<?xml version="1.0" encoding="UTF-8" standalone="no" ?>
<gpx xmlns="http://www.topografix.com/GPX/1/1" xmlns:xsi="http://www.w3.org/2001/XMLSchema-instance" xsi:schemaLocation="http://www.topografix.com/GPX/1/1 http://www.topografix.com/GPX/1/1/gpx.xsd" version="1.1" creator="VisuGPX - https://www.visugpx.com">
  <metadata>
    <name>Chars - Marines MA-Rando-2020-06-21</name>
  </metadata>
  <trk>
    <name><![CDATA[MA-Rando-2020-06-21-161210]]></name>
    <trkseg>
      <trkpt lat="49.1615" lon="1.93648">
        <ele>66</ele>
        <time>2020-06-21T08:21:42Z</time>
      </trkpt>
      <trkpt lat="49.1614" lon="1.93648">
        <ele>66</ele>
        <time>2020-06-21T08:21:49Z</time>
      </trkpt>
      <trkpt lat="49.16132" lon="1.93639">
        <ele>67</ele>
        <time>2020-06-21T08:21:54Z</time>
      </trkpt>
      <trkpt lat="49.16122" lon="1.93631">
        <ele>67</ele>
        <time>2020-06-21T08:22:01Z</time>
      </trkpt>
      <trkpt lat="49.16114" lon="1.93624">
        <ele>67</ele>
        <time>2020-06-21T08:22:11Z</time>
      </trkpt>
      <trkpt lat="49.16104" lon="1.93622">
        <ele>67</ele>
        <time>2020-06-21T08:22:21Z</time>
      </trkpt>
      <trkpt lat="49.16093" lon="1.93617">
        <ele>67</ele>
        <time>2020-06-21T08:22:26Z</time>
      </trkpt>
      <trkpt lat="49.16084" lon="1.93615">
        <ele>67</ele>
        <time>2020-06-21T08:22:32Z</time>
      </trkpt>
      <trkpt lat="49.16073" lon="1.93627">
        <ele>65</ele>
        <time>2020-06-21T08:22:49Z</time>
      </trkpt>
      <trkpt lat="49.16062" lon="1.93629">
        <ele>65</ele>
        <time>2020-06-21T08:22:56Z</time>
      </trkpt>
      <trkpt lat="49.16053" lon="1.93635">
        <ele>65</ele>
        <time>2020-06-21T08:23:03Z</time>
      </trkpt>
      <trkpt lat="49.16042" lon="1.93638">
        <ele>65</ele>
        <time>2020-06-21T08:23:09Z</time>
      </trkpt>
      <trkpt lat="49.16033" lon="1.93641">
        <ele>65</ele>
        <time>2020-06-21T08:23:17Z</time>
      </trkpt>
      <trkpt lat="49.16028" lon="1.9366">
        <ele>65</ele>
        <time>2020-06-21T08:24:35Z</time>
      </trkpt>
      <trkpt lat="49.16028" lon="1.93676">
        <ele>64</ele>
        <time>2020-06-21T08:24:42Z</time>
      </trkpt>
      <trkpt lat="49.16026" lon="1.9369">
        <ele>64</ele>
        <time>2020-06-21T08:24:48Z</time>
      </trkpt>
      <trkpt lat="49.16029" lon="1.93705">
        <ele>64</ele>
        <time>2020-06-21T08:25:00Z</time>
      </trkpt>
      <trkpt lat="49.16032" lon="1.93719">
        <ele>64</ele>
        <time>2020-06-21T08:25:05Z</time>
      </trkpt>
      <trkpt lat="49.16039" lon="1.93731">
        <ele>64</ele>
        <time>2020-06-21T08:25:16Z</time>
      </trkpt>
      <trkpt lat="49.16042" lon="1.93745">
        <ele>64</ele>
        <time>2020-06-21T08:25:24Z</time>
      </trkpt>
      <trkpt lat="49.16041" lon="1.93761">
        <ele>65</ele>
        <time>2020-06-21T08:25:30Z</time>
      </trkpt>
      <trkpt lat="49.16041" lon="1.93777">
        <ele>65</ele>
        <time>2020-06-21T08:25:36Z</time>
      </trkpt>
      <trkpt lat="49.16041" lon="1.93794">
        <ele>65</ele>
        <time>2020-06-21T08:26:09Z</time>
      </trkpt>
      <trkpt lat="49.16037" lon="1.93807">
        <ele>65</ele>
        <time>2020-06-21T08:26:19Z</time>
      </trkpt>
      <trkpt lat="49.16035" lon="1.93824">
        <ele>65</ele>
        <time>2020-06-21T08:26:27Z</time>
      </trkpt>
      <trkpt lat="49.16035" lon="1.9384">
        <ele>66</ele>
        <time>2020-06-21T08:26:34Z</time>
      </trkpt>
      <trkpt lat="49.16036" lon="1.93855">
        <ele>66</ele>
        <time>2020-06-21T08:26:41Z</time>
      </trkpt>
      <trkpt lat="49.16038" lon="1.93872">
        <ele>67</ele>
        <time>2020-06-21T08:26:49Z</time>
      </trkpt>
      <trkpt lat="49.16042" lon="1.93886">
        <ele>67</ele>
        <time>2020-06-21T08:26:56Z</time>
      </trkpt>
      <trkpt lat="49.16048" lon="1.939">
        <ele>67</ele>
        <time>2020-06-21T08:27:04Z</time>
      </trkpt>
      <trkpt lat="49.16052" lon="1.93914">
        <ele>66</ele>
        <time>2020-06-21T08:27:11Z</time>
      </trkpt>
      <trkpt lat="49.16057" lon="1.93931">
        <ele>69</ele>
        <time>2020-06-21T08:27:19Z</time>
      </trkpt>
      <trkpt lat="49.16064" lon="1.93943">
        <ele>69</ele>
        <time>2020-06-21T08:27:27Z</time>
      </trkpt>
      <trkpt lat="49.16071" lon="1.93954">
        <ele>70</ele>
        <time>2020-06-21T08:27:34Z</time>
      </trkpt>
      <trkpt lat="49.16078" lon="1.93966">
        <ele>70</ele>
        <time>2020-06-21T08:27:42Z</time>
      </trkpt>
      <trkpt lat="49.16084" lon="1.93976">
        <ele>70</ele>
        <time>2020-06-21T08:27:50Z</time>
      </trkpt>
      <trkpt lat="49.16092" lon="1.93987">
        <ele>71</ele>
        <time>2020-06-21T08:27:57Z</time>
      </trkpt>
      <trkpt lat="49.16101" lon="1.93997">
        <ele>71</ele>
        <time>2020-06-21T08:28:05Z</time>
      </trkpt>
      <trkpt lat="49.16111" lon="1.94002">
        <ele>76</ele>
        <time>2020-06-21T08:28:12Z</time>
      </trkpt>
      <trkpt lat="49.1612" lon="1.94005">
        <ele>76</ele>
        <time>2020-06-21T08:28:18Z</time>
      </trkpt>
      <trkpt lat="49.16131" lon="1.94007">
        <ele>76</ele>
        <time>2020-06-21T08:28:25Z</time>
      </trkpt>
      <trkpt lat="49.16141" lon="1.94006">
        <ele>76</ele>
        <time>2020-06-21T08:28:33Z</time>
      </trkpt>
      <trkpt lat="49.1615" lon="1.94004">
        <ele>76</ele>
        <time>2020-06-21T08:28:41Z</time>
      </trkpt>
      <trkpt lat="49.1616" lon="1.93999">
        <ele>73</ele>
        <time>2020-06-21T08:28:50Z</time>
      </trkpt>
      <trkpt lat="49.1617" lon="1.93994">
        <ele>74</ele>
        <time>2020-06-21T08:28:57Z</time>
      </trkpt>
      <trkpt lat="49.16177" lon="1.93985">
        <ele>74</ele>
        <time>2020-06-21T08:29:17Z</time>
      </trkpt>
      <trkpt lat="49.16188" lon="1.93983">
        <ele>74</ele>
        <time>2020-06-21T08:29:30Z</time>
      </trkpt>
      <trkpt lat="49.16198" lon="1.93983">
        <ele>74</ele>
        <time>2020-06-21T08:29:39Z</time>
      </trkpt>
      <trkpt lat="49.16207" lon="1.93982">
        <ele>74</ele>
        <time>2020-06-21T08:29:47Z</time>
      </trkpt>
      <trkpt lat="49.16223" lon="1.93978">
        <ele>75</ele>
        <time>2020-06-21T08:30:08Z</time>
      </trkpt>
      <trkpt lat="49.16237" lon="1.93974">
        <ele>76</ele>
        <time>2020-06-21T08:30:12Z</time>
      </trkpt>
      <trkpt lat="49.16248" lon="1.93974">
        <ele>76</ele>
        <time>2020-06-21T08:30:16Z</time>
      </trkpt>
      <trkpt lat="49.16259" lon="1.9397">
        <ele>79</ele>
        <time>2020-06-21T08:30:21Z</time>
      </trkpt>
      <trkpt lat="49.16265" lon="1.9396">
        <ele>79</ele>
        <time>2020-06-21T08:30:31Z</time>
      </trkpt>
      <trkpt lat="49.16272" lon="1.93947">
        <ele>78</ele>
        <time>2020-06-21T08:30:43Z</time>
      </trkpt>
      <trkpt lat="49.16284" lon="1.93934">
        <ele>78</ele>
        <time>2020-06-21T08:30:47Z</time>
      </trkpt>
      <trkpt lat="49.16293" lon="1.93925">
        <ele>79</ele>
        <time>2020-06-21T08:30:50Z</time>
      </trkpt>
      <trkpt lat="49.16303" lon="1.93914">
        <ele>75</ele>
        <time>2020-06-21T08:30:54Z</time>
      </trkpt>
      <trkpt lat="49.16313" lon="1.93904">
        <ele>76</ele>
        <time>2020-06-21T08:30:58Z</time>
      </trkpt>
      <trkpt lat="49.16323" lon="1.93896">
        <ele>76</ele>
        <time>2020-06-21T08:31:03Z</time>
      </trkpt>
      <trkpt lat="49.16333" lon="1.93891">
        <ele>76</ele>
        <time>2020-06-21T08:31:09Z</time>
      </trkpt>
      <trkpt lat="49.16345" lon="1.9389">
        <ele>77</ele>
        <time>2020-06-21T08:31:17Z</time>
      </trkpt>
      <trkpt lat="49.16354" lon="1.9389">
        <ele>76</ele>
        <time>2020-06-21T08:31:23Z</time>
      </trkpt>
      <trkpt lat="49.16364" lon="1.93891">
        <ele>76</ele>
        <time>2020-06-21T08:31:29Z</time>
      </trkpt>
      <trkpt lat="49.16373" lon="1.93894">
        <ele>76</ele>
        <time>2020-06-21T08:31:39Z</time>
      </trkpt>
      <trkpt lat="49.16383" lon="1.939">
        <ele>76</ele>
        <time>2020-06-21T08:31:49Z</time>
      </trkpt>
      <trkpt lat="49.16392" lon="1.93909">
        <ele>77</ele>
        <time>2020-06-21T08:31:57Z</time>
      </trkpt>
      <trkpt lat="49.16399" lon="1.93919">
        <ele>80</ele>
        <time>2020-06-21T08:32:03Z</time>
      </trkpt>
      <trkpt lat="49.16405" lon="1.93932">
        <ele>81</ele>
        <time>2020-06-21T08:32:09Z</time>
      </trkpt>
      <trkpt lat="49.16411" lon="1.93945">
        <ele>81</ele>
        <time>2020-06-21T08:32:15Z</time>
      </trkpt>
      <trkpt lat="49.16416" lon="1.93959">
        <ele>82</ele>
        <time>2020-06-21T08:32:21Z</time>
      </trkpt>
      <trkpt lat="49.16414" lon="1.93973">
        <ele>82</ele>
        <time>2020-06-21T08:32:26Z</time>
      </trkpt>
      <trkpt lat="49.16416" lon="1.9399">
        <ele>83</ele>
        <time>2020-06-21T08:32:34Z</time>
      </trkpt>
      <trkpt lat="49.16418" lon="1.94006">
        <ele>83</ele>
        <time>2020-06-21T08:32:42Z</time>
      </trkpt>
      <trkpt lat="49.16419" lon="1.94022">
        <ele>84</ele>
        <time>2020-06-21T08:32:50Z</time>
      </trkpt>
      <trkpt lat="49.16423" lon="1.94038">
        <ele>84</ele>
        <time>2020-06-21T08:32:59Z</time>
      </trkpt>
      <trkpt lat="49.1643" lon="1.94047">
        <ele>84</ele>
        <time>2020-06-21T08:33:11Z</time>
      </trkpt>
      <trkpt lat="49.1644" lon="1.94055">
        <ele>84</ele>
        <time>2020-06-21T08:33:19Z</time>
      </trkpt>
      <trkpt lat="49.16449" lon="1.94062">
        <ele>84</ele>
        <time>2020-06-21T08:33:27Z</time>
      </trkpt>
      <trkpt lat="49.16462" lon="1.94066">
        <ele>84</ele>
        <time>2020-06-21T08:33:34Z</time>
      </trkpt>
      <trkpt lat="49.16471" lon="1.94069">
        <ele>84</ele>
        <time>2020-06-21T08:33:40Z</time>
      </trkpt>
      <trkpt lat="49.16482" lon="1.94072">
        <ele>84</ele>
        <time>2020-06-21T08:33:49Z</time>
      </trkpt>
      <trkpt lat="49.16492" lon="1.94076">
        <ele>85</ele>
        <time>2020-06-21T08:33:57Z</time>
      </trkpt>
      <trkpt lat="49.16503" lon="1.94078">
        <ele>85</ele>
        <time>2020-06-21T08:34:04Z</time>
      </trkpt>
      <trkpt lat="49.16514" lon="1.94079">
        <ele>84</ele>
        <time>2020-06-21T08:34:10Z</time>
      </trkpt>
      <trkpt lat="49.16523" lon="1.94082">
        <ele>84</ele>
        <time>2020-06-21T08:34:17Z</time>
      </trkpt>
      <trkpt lat="49.16533" lon="1.94085">
        <ele>86</ele>
        <time>2020-06-21T08:34:24Z</time>
      </trkpt>
      <trkpt lat="49.1654" lon="1.94103">
        <ele>86</ele>
        <time>2020-06-21T08:34:39Z</time>
      </trkpt>
      <trkpt lat="49.16541" lon="1.94119">
        <ele>86</ele>
        <time>2020-06-21T08:34:46Z</time>
      </trkpt>
      <trkpt lat="49.16543" lon="1.94137">
        <ele>86</ele>
        <time>2020-06-21T08:34:54Z</time>
      </trkpt>
      <trkpt lat="49.16542" lon="1.94153">
        <ele>87</ele>
        <time>2020-06-21T08:35:00Z</time>
      </trkpt>
      <trkpt lat="49.16541" lon="1.94169">
        <ele>88</ele>
        <time>2020-06-21T08:35:07Z</time>
      </trkpt>
      <trkpt lat="49.16538" lon="1.94183">
        <ele>88</ele>
        <time>2020-06-21T08:35:14Z</time>
      </trkpt>
      <trkpt lat="49.16533" lon="1.94196">
        <ele>88</ele>
        <time>2020-06-21T08:35:21Z</time>
      </trkpt>
      <trkpt lat="49.16529" lon="1.9421">
        <ele>88</ele>
        <time>2020-06-21T08:35:27Z</time>
      </trkpt>
      <trkpt lat="49.16526" lon="1.94226">
        <ele>89</ele>
        <time>2020-06-21T08:35:35Z</time>
      </trkpt>
      <trkpt lat="49.16525" lon="1.94241">
        <ele>89</ele>
        <time>2020-06-21T08:35:43Z</time>
      </trkpt>
      <trkpt lat="49.16527" lon="1.94259">
        <ele>90</ele>
        <time>2020-06-21T08:35:51Z</time>
      </trkpt>
      <trkpt lat="49.16528" lon="1.94275">
        <ele>90</ele>
        <time>2020-06-21T08:35:58Z</time>
      </trkpt>
      <trkpt lat="49.1653" lon="1.94291">
        <ele>90</ele>
        <time>2020-06-21T08:36:07Z</time>
      </trkpt>
      <trkpt lat="49.16537" lon="1.94303">
        <ele>90</ele>
        <time>2020-06-21T08:36:14Z</time>
      </trkpt>
      <trkpt lat="49.16543" lon="1.94316">
        <ele>90</ele>
        <time>2020-06-21T08:36:22Z</time>
      </trkpt>
      <trkpt lat="49.16548" lon="1.94329">
        <ele>91</ele>
        <time>2020-06-21T08:36:29Z</time>
      </trkpt>
      <trkpt lat="49.1655" lon="1.94344">
        <ele>91</ele>
        <time>2020-06-21T08:36:37Z</time>
      </trkpt>
      <trkpt lat="49.16546" lon="1.94358">
        <ele>91</ele>
        <time>2020-06-21T08:36:44Z</time>
      </trkpt>
      <trkpt lat="49.1654" lon="1.94372">
        <ele>91</ele>
        <time>2020-06-21T08:36:51Z</time>
      </trkpt>
      <trkpt lat="49.16533" lon="1.94383">
        <ele>91</ele>
        <time>2020-06-21T08:36:57Z</time>
      </trkpt>
      <trkpt lat="49.16527" lon="1.94395">
        <ele>91</ele>
        <time>2020-06-21T08:37:03Z</time>
      </trkpt>
      <trkpt lat="49.16522" lon="1.94408">
        <ele>91</ele>
        <time>2020-06-21T08:37:10Z</time>
      </trkpt>
      <trkpt lat="49.16518" lon="1.94421">
        <ele>92</ele>
        <time>2020-06-21T08:37:17Z</time>
      </trkpt>
      <trkpt lat="49.16513" lon="1.94436">
        <ele>92</ele>
        <time>2020-06-21T08:37:23Z</time>
      </trkpt>
      <trkpt lat="49.16509" lon="1.94451">
        <ele>92</ele>
        <time>2020-06-21T08:37:31Z</time>
      </trkpt>
      <trkpt lat="49.16505" lon="1.94465">
        <ele>92</ele>
        <time>2020-06-21T08:37:38Z</time>
      </trkpt>
      <trkpt lat="49.16499" lon="1.9448">
        <ele>92</ele>
        <time>2020-06-21T08:37:46Z</time>
      </trkpt>
      <trkpt lat="49.16495" lon="1.94495">
        <ele>93</ele>
        <time>2020-06-21T08:37:54Z</time>
      </trkpt>
      <trkpt lat="49.16489" lon="1.94509">
        <ele>93</ele>
        <time>2020-06-21T08:38:02Z</time>
      </trkpt>
      <trkpt lat="49.16483" lon="1.94521">
        <ele>94</ele>
        <time>2020-06-21T08:38:09Z</time>
      </trkpt>
      <trkpt lat="49.16478" lon="1.94536">
        <ele>94</ele>
        <time>2020-06-21T08:38:17Z</time>
      </trkpt>
      <trkpt lat="49.16475" lon="1.94549">
        <ele>94</ele>
        <time>2020-06-21T08:38:23Z</time>
      </trkpt>
      <trkpt lat="49.16469" lon="1.94564">
        <ele>95</ele>
        <time>2020-06-21T08:38:32Z</time>
      </trkpt>
      <trkpt lat="49.16463" lon="1.94578">
        <ele>95</ele>
        <time>2020-06-21T08:38:39Z</time>
      </trkpt>
      <trkpt lat="49.16458" lon="1.94592">
        <ele>96</ele>
        <time>2020-06-21T08:38:46Z</time>
      </trkpt>
      <trkpt lat="49.16452" lon="1.94605">
        <ele>97</ele>
        <time>2020-06-21T08:38:53Z</time>
      </trkpt>
      <trkpt lat="49.16446" lon="1.94619">
        <ele>97</ele>
        <time>2020-06-21T08:39:01Z</time>
      </trkpt>
      <trkpt lat="49.16442" lon="1.94631">
        <ele>97</ele>
        <time>2020-06-21T08:39:07Z</time>
      </trkpt>
      <trkpt lat="49.16439" lon="1.94646">
        <ele>97</ele>
        <time>2020-06-21T08:39:13Z</time>
      </trkpt>
      <trkpt lat="49.16436" lon="1.94659">
        <ele>97</ele>
        <time>2020-06-21T08:39:20Z</time>
      </trkpt>
      <trkpt lat="49.16431" lon="1.94674">
        <ele>98</ele>
        <time>2020-06-21T08:39:27Z</time>
      </trkpt>
      <trkpt lat="49.16425" lon="1.94687">
        <ele>98</ele>
        <time>2020-06-21T08:39:34Z</time>
      </trkpt>
      <trkpt lat="49.16418" lon="1.947">
        <ele>99</ele>
        <time>2020-06-21T08:39:42Z</time>
      </trkpt>
      <trkpt lat="49.16415" lon="1.94716">
        <ele>97</ele>
        <time>2020-06-21T08:39:50Z</time>
      </trkpt>
      <trkpt lat="49.16421" lon="1.94728">
        <ele>99</ele>
        <time>2020-06-21T08:39:57Z</time>
      </trkpt>
      <trkpt lat="49.1643" lon="1.94737">
        <ele>99</ele>
        <time>2020-06-21T08:40:05Z</time>
      </trkpt>
      <trkpt lat="49.16438" lon="1.94747">
        <ele>99</ele>
        <time>2020-06-21T08:40:12Z</time>
      </trkpt>
      <trkpt lat="49.16445" lon="1.9476">
        <ele>101</ele>
        <time>2020-06-21T08:40:19Z</time>
      </trkpt>
      <trkpt lat="49.16451" lon="1.94771">
        <ele>102</ele>
        <time>2020-06-21T08:40:27Z</time>
      </trkpt>
      <trkpt lat="49.16459" lon="1.94783">
        <ele>102</ele>
        <time>2020-06-21T08:40:35Z</time>
      </trkpt>
      <trkpt lat="49.16466" lon="1.94796">
        <ele>103</ele>
        <time>2020-06-21T08:40:42Z</time>
      </trkpt>
      <trkpt lat="49.16472" lon="1.94809">
        <ele>104</ele>
        <time>2020-06-21T08:40:51Z</time>
      </trkpt>
      <trkpt lat="49.16474" lon="1.94825">
        <ele>104</ele>
        <time>2020-06-21T08:41:01Z</time>
      </trkpt>
      <trkpt lat="49.16478" lon="1.94839">
        <ele>106</ele>
        <time>2020-06-21T08:41:09Z</time>
      </trkpt>
      <trkpt lat="49.16485" lon="1.94852">
        <ele>106</ele>
        <time>2020-06-21T08:41:15Z</time>
      </trkpt>
      <trkpt lat="49.16491" lon="1.94865">
        <ele>106</ele>
        <time>2020-06-21T08:41:21Z</time>
      </trkpt>
      <trkpt lat="49.16497" lon="1.94878">
        <ele>107</ele>
        <time>2020-06-21T08:41:27Z</time>
      </trkpt>
      <trkpt lat="49.16502" lon="1.9489">
        <ele>110</ele>
        <time>2020-06-21T08:41:34Z</time>
      </trkpt>
      <trkpt lat="49.16512" lon="1.94906">
        <ele>110</ele>
        <time>2020-06-21T08:41:44Z</time>
      </trkpt>
      <trkpt lat="49.16518" lon="1.9492">
        <ele>110</ele>
        <time>2020-06-21T08:41:53Z</time>
      </trkpt>
      <trkpt lat="49.16525" lon="1.94935">
        <ele>110</ele>
        <time>2020-06-21T08:41:59Z</time>
      </trkpt>
      <trkpt lat="49.16532" lon="1.94948">
        <ele>110</ele>
        <time>2020-06-21T08:42:07Z</time>
      </trkpt>
      <trkpt lat="49.16539" lon="1.94961">
        <ele>110</ele>
        <time>2020-06-21T08:42:17Z</time>
      </trkpt>
      <trkpt lat="49.16542" lon="1.94974">
        <ele>110</ele>
        <time>2020-06-21T08:42:28Z</time>
      </trkpt>
      <trkpt lat="49.16549" lon="1.94985">
        <ele>111</ele>
        <time>2020-06-21T08:42:36Z</time>
      </trkpt>
      <trkpt lat="49.16555" lon="1.94996">
        <ele>111</ele>
        <time>2020-06-21T08:42:45Z</time>
      </trkpt>
      <trkpt lat="49.16562" lon="1.95007">
        <ele>110</ele>
        <time>2020-06-21T08:42:52Z</time>
      </trkpt>
      <trkpt lat="49.16573" lon="1.95016">
        <ele>110</ele>
        <time>2020-06-21T08:42:58Z</time>
      </trkpt>
      <trkpt lat="49.16581" lon="1.95023">
        <ele>110</ele>
        <time>2020-06-21T08:43:02Z</time>
      </trkpt>
      <trkpt lat="49.16591" lon="1.9503">
        <ele>111</ele>
        <time>2020-06-21T08:43:09Z</time>
      </trkpt>
      <trkpt lat="49.166" lon="1.9504">
        <ele>111</ele>
        <time>2020-06-21T08:43:15Z</time>
      </trkpt>
      <trkpt lat="49.16608" lon="1.9505">
        <ele>111</ele>
        <time>2020-06-21T08:43:20Z</time>
      </trkpt>
      <trkpt lat="49.16614" lon="1.9506">
        <ele>111</ele>
        <time>2020-06-21T08:43:27Z</time>
      </trkpt>
      <trkpt lat="49.16622" lon="1.95068">
        <ele>112</ele>
        <time>2020-06-21T08:43:33Z</time>
      </trkpt>
      <trkpt lat="49.1663" lon="1.95078">
        <ele>112</ele>
        <time>2020-06-21T08:43:43Z</time>
      </trkpt>
      <trkpt lat="49.16638" lon="1.95088">
        <ele>112</ele>
        <time>2020-06-21T08:43:51Z</time>
      </trkpt>
      <trkpt lat="49.16645" lon="1.95099">
        <ele>112</ele>
        <time>2020-06-21T08:43:59Z</time>
      </trkpt>
      <trkpt lat="49.16649" lon="1.95115">
        <ele>112</ele>
        <time>2020-06-21T08:44:07Z</time>
      </trkpt>
      <trkpt lat="49.16652" lon="1.9513">
        <ele>112</ele>
        <time>2020-06-21T08:44:18Z</time>
      </trkpt>
      <trkpt lat="49.16656" lon="1.95143">
        <ele>112</ele>
        <time>2020-06-21T08:44:28Z</time>
      </trkpt>
      <trkpt lat="49.16664" lon="1.95156">
        <ele>113</ele>
        <time>2020-06-21T08:44:38Z</time>
      </trkpt>
      <trkpt lat="49.16671" lon="1.9517">
        <ele>114</ele>
        <time>2020-06-21T08:44:47Z</time>
      </trkpt>
      <trkpt lat="49.16676" lon="1.95183">
        <ele>114</ele>
        <time>2020-06-21T08:44:56Z</time>
      </trkpt>
      <trkpt lat="49.16682" lon="1.95195">
        <ele>114</ele>
        <time>2020-06-21T08:45:05Z</time>
      </trkpt>
      <trkpt lat="49.16687" lon="1.95208">
        <ele>115</ele>
        <time>2020-06-21T08:45:14Z</time>
      </trkpt>
      <trkpt lat="49.16694" lon="1.95221">
        <ele>115</ele>
        <time>2020-06-21T08:45:22Z</time>
      </trkpt>
      <trkpt lat="49.16701" lon="1.95232">
        <ele>115</ele>
        <time>2020-06-21T08:45:28Z</time>
      </trkpt>
      <trkpt lat="49.16709" lon="1.95243">
        <ele>115</ele>
        <time>2020-06-21T08:45:36Z</time>
      </trkpt>
      <trkpt lat="49.16718" lon="1.95253">
        <ele>115</ele>
        <time>2020-06-21T08:45:42Z</time>
      </trkpt>
      <trkpt lat="49.16727" lon="1.95261">
        <ele>115</ele>
        <time>2020-06-21T08:45:47Z</time>
      </trkpt>
      <trkpt lat="49.16737" lon="1.9527">
        <ele>115</ele>
        <time>2020-06-21T08:45:53Z</time>
      </trkpt>
      <trkpt lat="49.16748" lon="1.95279">
        <ele>115</ele>
        <time>2020-06-21T08:45:59Z</time>
      </trkpt>
      <trkpt lat="49.1676" lon="1.9529">
        <ele>114</ele>
        <time>2020-06-21T08:46:04Z</time>
      </trkpt>
      <trkpt lat="49.1677" lon="1.95302">
        <ele>114</ele>
        <time>2020-06-21T08:46:10Z</time>
      </trkpt>
      <trkpt lat="49.16781" lon="1.9531">
        <ele>113</ele>
        <time>2020-06-21T08:46:16Z</time>
      </trkpt>
      <trkpt lat="49.16794" lon="1.95313">
        <ele>113</ele>
        <time>2020-06-21T08:46:22Z</time>
      </trkpt>
      <trkpt lat="49.16806" lon="1.95315">
        <ele>113</ele>
        <time>2020-06-21T08:46:27Z</time>
      </trkpt>
      <trkpt lat="49.16817" lon="1.95316">
        <ele>113</ele>
        <time>2020-06-21T08:46:33Z</time>
      </trkpt>
      <trkpt lat="49.16827" lon="1.95316">
        <ele>113</ele>
        <time>2020-06-21T08:46:39Z</time>
      </trkpt>
      <trkpt lat="49.16837" lon="1.95317">
        <ele>113</ele>
        <time>2020-06-21T08:46:44Z</time>
      </trkpt>
      <trkpt lat="49.16847" lon="1.95317">
        <ele>113</ele>
        <time>2020-06-21T08:46:50Z</time>
      </trkpt>
      <trkpt lat="49.16857" lon="1.95319">
        <ele>113</ele>
        <time>2020-06-21T08:46:56Z</time>
      </trkpt>
      <trkpt lat="49.16868" lon="1.95321">
        <ele>113</ele>
        <time>2020-06-21T08:47:03Z</time>
      </trkpt>
      <trkpt lat="49.16879" lon="1.95322">
        <ele>113</ele>
        <time>2020-06-21T08:47:10Z</time>
      </trkpt>
      <trkpt lat="49.16889" lon="1.95322">
        <ele>114</ele>
        <time>2020-06-21T08:47:18Z</time>
      </trkpt>
      <trkpt lat="49.16899" lon="1.9532">
        <ele>114</ele>
        <time>2020-06-21T08:47:29Z</time>
      </trkpt>
      <trkpt lat="49.16907" lon="1.95313">
        <ele>114</ele>
        <time>2020-06-21T08:47:46Z</time>
      </trkpt>
      <trkpt lat="49.16917" lon="1.95307">
        <ele>113</ele>
        <time>2020-06-21T08:47:58Z</time>
      </trkpt>
      <trkpt lat="49.16927" lon="1.95305">
        <ele>113</ele>
        <time>2020-06-21T08:48:06Z</time>
      </trkpt>
      <trkpt lat="49.16939" lon="1.95301">
        <ele>113</ele>
        <time>2020-06-21T08:48:12Z</time>
      </trkpt>
      <trkpt lat="49.16949" lon="1.95301">
        <ele>112</ele>
        <time>2020-06-21T08:48:21Z</time>
      </trkpt>
      <trkpt lat="49.16959" lon="1.953">
        <ele>112</ele>
        <time>2020-06-21T08:48:32Z</time>
      </trkpt>
      <trkpt lat="49.1697" lon="1.95299">
        <ele>112</ele>
        <time>2020-06-21T08:48:40Z</time>
      </trkpt>
      <trkpt lat="49.16981" lon="1.95299">
        <ele>112</ele>
        <time>2020-06-21T08:48:47Z</time>
      </trkpt>
      <trkpt lat="49.16993" lon="1.95298">
        <ele>111</ele>
        <time>2020-06-21T08:48:52Z</time>
      </trkpt>
      <trkpt lat="49.17006" lon="1.95296">
        <ele>108</ele>
        <time>2020-06-21T08:48:57Z</time>
      </trkpt>
      <trkpt lat="49.17017" lon="1.95294">
        <ele>107</ele>
        <time>2020-06-21T08:49:02Z</time>
      </trkpt>
      <trkpt lat="49.17027" lon="1.95292">
        <ele>107</ele>
        <time>2020-06-21T08:49:06Z</time>
      </trkpt>
      <trkpt lat="49.1704" lon="1.95289">
        <ele>106</ele>
        <time>2020-06-21T08:49:12Z</time>
      </trkpt>
      <trkpt lat="49.1705" lon="1.95287">
        <ele>105</ele>
        <time>2020-06-21T08:49:17Z</time>
      </trkpt>
      <trkpt lat="49.17061" lon="1.95286">
        <ele>105</ele>
        <time>2020-06-21T08:49:23Z</time>
      </trkpt>
      <trkpt lat="49.17073" lon="1.95284">
        <ele>105</ele>
        <time>2020-06-21T08:49:29Z</time>
      </trkpt>
      <trkpt lat="49.17083" lon="1.95282">
        <ele>103</ele>
        <time>2020-06-21T08:49:34Z</time>
      </trkpt>
      <trkpt lat="49.17094" lon="1.95278">
        <ele>103</ele>
        <time>2020-06-21T08:49:40Z</time>
      </trkpt>
      <trkpt lat="49.17104" lon="1.95274">
        <ele>103</ele>
        <time>2020-06-21T08:49:46Z</time>
      </trkpt>
      <trkpt lat="49.17114" lon="1.9527">
        <ele>103</ele>
        <time>2020-06-21T08:49:52Z</time>
      </trkpt>
      <trkpt lat="49.17124" lon="1.95264">
        <ele>104</ele>
        <time>2020-06-21T08:49:58Z</time>
      </trkpt>
      <trkpt lat="49.17138" lon="1.95257">
        <ele>104</ele>
        <time>2020-06-21T08:50:08Z</time>
      </trkpt>
      <trkpt lat="49.17146" lon="1.95247">
        <ele>101</ele>
        <time>2020-06-21T08:50:14Z</time>
      </trkpt>
      <trkpt lat="49.17155" lon="1.95235">
        <ele>101</ele>
        <time>2020-06-21T08:50:19Z</time>
      </trkpt>
      <trkpt lat="49.17165" lon="1.95223">
        <ele>101</ele>
        <time>2020-06-21T08:50:27Z</time>
      </trkpt>
      <trkpt lat="49.17175" lon="1.95231">
        <ele>102</ele>
        <time>2020-06-21T08:50:42Z</time>
      </trkpt>
      <trkpt lat="49.17183" lon="1.95244">
        <ele>103</ele>
        <time>2020-06-21T08:50:48Z</time>
      </trkpt>
      <trkpt lat="49.17191" lon="1.95256">
        <ele>105</ele>
        <time>2020-06-21T08:50:54Z</time>
      </trkpt>
      <trkpt lat="49.17196" lon="1.95267">
        <ele>106</ele>
        <time>2020-06-21T08:51:01Z</time>
      </trkpt>
      <trkpt lat="49.17206" lon="1.95267">
        <ele>106</ele>
        <time>2020-06-21T08:51:14Z</time>
      </trkpt>
      <trkpt lat="49.17216" lon="1.95252">
        <ele>106</ele>
        <time>2020-06-21T08:51:38Z</time>
      </trkpt>
      <trkpt lat="49.1722" lon="1.9523">
        <ele>103</ele>
        <time>2020-06-21T08:51:58Z</time>
      </trkpt>
      <trkpt lat="49.17247" lon="1.95259">
        <ele>105</ele>
        <time>2020-06-21T08:52:12Z</time>
      </trkpt>
      <trkpt lat="49.1726" lon="1.95287">
        <ele>108</ele>
        <time>2020-06-21T08:52:14Z</time>
      </trkpt>
      <trkpt lat="49.17274" lon="1.95299">
        <ele>109</ele>
        <time>2020-06-21T08:52:16Z</time>
      </trkpt>
      <trkpt lat="49.17285" lon="1.95309">
        <ele>109</ele>
        <time>2020-06-21T08:52:18Z</time>
      </trkpt>
      <trkpt lat="49.17296" lon="1.95318">
        <ele>109</ele>
        <time>2020-06-21T08:52:21Z</time>
      </trkpt>
      <trkpt lat="49.17308" lon="1.95324">
        <ele>110</ele>
        <time>2020-06-21T08:52:25Z</time>
      </trkpt>
      <trkpt lat="49.17318" lon="1.95329">
        <ele>110</ele>
        <time>2020-06-21T08:52:29Z</time>
      </trkpt>
      <trkpt lat="49.17328" lon="1.95334">
        <ele>113</ele>
        <time>2020-06-21T08:52:33Z</time>
      </trkpt>
      <trkpt lat="49.17339" lon="1.95337">
        <ele>113</ele>
        <time>2020-06-21T08:52:38Z</time>
      </trkpt>
      <trkpt lat="49.17349" lon="1.95337">
        <ele>114</ele>
        <time>2020-06-21T08:52:44Z</time>
      </trkpt>
      <trkpt lat="49.17359" lon="1.95341">
        <ele>114</ele>
        <time>2020-06-21T08:52:50Z</time>
      </trkpt>
      <trkpt lat="49.17369" lon="1.95349">
        <ele>115</ele>
        <time>2020-06-21T08:52:58Z</time>
      </trkpt>
      <trkpt lat="49.17378" lon="1.95357">
        <ele>115</ele>
        <time>2020-06-21T08:53:07Z</time>
      </trkpt>
      <trkpt lat="49.17388" lon="1.95359">
        <ele>115</ele>
        <time>2020-06-21T08:53:15Z</time>
      </trkpt>
      <trkpt lat="49.17399" lon="1.9536">
        <ele>115</ele>
        <time>2020-06-21T08:53:24Z</time>
      </trkpt>
      <trkpt lat="49.17409" lon="1.95355">
        <ele>114</ele>
        <time>2020-06-21T08:53:30Z</time>
      </trkpt>
      <trkpt lat="49.17417" lon="1.95345">
        <ele>112</ele>
        <time>2020-06-21T08:53:38Z</time>
      </trkpt>
      <trkpt lat="49.17427" lon="1.95335">
        <ele>112</ele>
        <time>2020-06-21T08:53:46Z</time>
      </trkpt>
      <trkpt lat="49.17436" lon="1.95346">
        <ele>112</ele>
        <time>2020-06-21T08:53:54Z</time>
      </trkpt>
      <trkpt lat="49.17444" lon="1.95353">
        <ele>112</ele>
        <time>2020-06-21T08:53:58Z</time>
      </trkpt>
      <trkpt lat="49.17456" lon="1.9536">
        <ele>112</ele>
        <time>2020-06-21T08:54:02Z</time>
      </trkpt>
      <trkpt lat="49.17464" lon="1.95369">
        <ele>112</ele>
        <time>2020-06-21T08:54:07Z</time>
      </trkpt>
      <trkpt lat="49.17473" lon="1.95374">
        <ele>112</ele>
        <time>2020-06-21T08:54:18Z</time>
      </trkpt>
      <trkpt lat="49.17485" lon="1.95373">
        <ele>112</ele>
        <time>2020-06-21T08:54:25Z</time>
      </trkpt>
      <trkpt lat="49.17496" lon="1.95373">
        <ele>111</ele>
        <time>2020-06-21T08:54:30Z</time>
      </trkpt>
      <trkpt lat="49.17507" lon="1.9537">
        <ele>108</ele>
        <time>2020-06-21T08:54:35Z</time>
      </trkpt>
      <trkpt lat="49.17518" lon="1.95368">
        <ele>108</ele>
        <time>2020-06-21T08:54:40Z</time>
      </trkpt>
      <trkpt lat="49.17529" lon="1.95364">
        <ele>108</ele>
        <time>2020-06-21T08:54:46Z</time>
      </trkpt>
      <trkpt lat="49.17538" lon="1.9536">
        <ele>108</ele>
        <time>2020-06-21T08:54:52Z</time>
      </trkpt>
      <trkpt lat="49.1755" lon="1.95356">
        <ele>107</ele>
        <time>2020-06-21T08:55:00Z</time>
      </trkpt>
      <trkpt lat="49.1756" lon="1.95349">
        <ele>107</ele>
        <time>2020-06-21T08:55:08Z</time>
      </trkpt>
      <trkpt lat="49.1757" lon="1.9534">
        <ele>107</ele>
        <time>2020-06-21T08:55:14Z</time>
      </trkpt>
      <trkpt lat="49.17578" lon="1.95332">
        <ele>106</ele>
        <time>2020-06-21T08:55:20Z</time>
      </trkpt>
      <trkpt lat="49.17587" lon="1.9532">
        <ele>105</ele>
        <time>2020-06-21T08:55:26Z</time>
      </trkpt>
      <trkpt lat="49.17596" lon="1.95316">
        <ele>105</ele>
        <time>2020-06-21T08:55:38Z</time>
      </trkpt>
      <trkpt lat="49.17603" lon="1.953">
        <ele>104</ele>
        <time>2020-06-21T08:55:44Z</time>
      </trkpt>
      <trkpt lat="49.17611" lon="1.95292">
        <ele>104</ele>
        <time>2020-06-21T08:55:49Z</time>
      </trkpt>
      <trkpt lat="49.17622" lon="1.95285">
        <ele>104</ele>
        <time>2020-06-21T08:55:56Z</time>
      </trkpt>
      <trkpt lat="49.17632" lon="1.95283">
        <ele>103</ele>
        <time>2020-06-21T08:56:05Z</time>
      </trkpt>
      <trkpt lat="49.17641" lon="1.95277">
        <ele>103</ele>
        <time>2020-06-21T08:56:11Z</time>
      </trkpt>
      <trkpt lat="49.17651" lon="1.95271">
        <ele>103</ele>
        <time>2020-06-21T08:56:18Z</time>
      </trkpt>
      <trkpt lat="49.1766" lon="1.95266">
        <ele>102</ele>
        <time>2020-06-21T08:56:25Z</time>
      </trkpt>
      <trkpt lat="49.1767" lon="1.95264">
        <ele>101</ele>
        <time>2020-06-21T08:56:31Z</time>
      </trkpt>
      <trkpt lat="49.17679" lon="1.95264">
        <ele>101</ele>
        <time>2020-06-21T08:56:37Z</time>
      </trkpt>
      <trkpt lat="49.17689" lon="1.95263">
        <ele>101</ele>
        <time>2020-06-21T08:56:43Z</time>
      </trkpt>
      <trkpt lat="49.17699" lon="1.95263">
        <ele>101</ele>
        <time>2020-06-21T08:56:50Z</time>
      </trkpt>
      <trkpt lat="49.1771" lon="1.95263">
        <ele>101</ele>
        <time>2020-06-21T08:56:58Z</time>
      </trkpt>
      <trkpt lat="49.17721" lon="1.95265">
        <ele>101</ele>
        <time>2020-06-21T08:57:05Z</time>
      </trkpt>
      <trkpt lat="49.17732" lon="1.95259">
        <ele>101</ele>
        <time>2020-06-21T08:57:14Z</time>
      </trkpt>
      <trkpt lat="49.17743" lon="1.95265">
        <ele>101</ele>
        <time>2020-06-21T08:57:27Z</time>
      </trkpt>
      <trkpt lat="49.17755" lon="1.95266">
        <ele>102</ele>
        <time>2020-06-21T08:57:33Z</time>
      </trkpt>
      <trkpt lat="49.17765" lon="1.95266">
        <ele>102</ele>
        <time>2020-06-21T08:57:40Z</time>
      </trkpt>
      <trkpt lat="49.17777" lon="1.95262">
        <ele>102</ele>
        <time>2020-06-21T08:57:51Z</time>
      </trkpt>
      <trkpt lat="49.17789" lon="1.9526">
        <ele>102</ele>
        <time>2020-06-21T08:57:57Z</time>
      </trkpt>
      <trkpt lat="49.17803" lon="1.95255">
        <ele>102</ele>
        <time>2020-06-21T08:58:02Z</time>
      </trkpt>
      <trkpt lat="49.17813" lon="1.95248">
        <ele>100</ele>
        <time>2020-06-21T08:58:10Z</time>
      </trkpt>
      <trkpt lat="49.17827" lon="1.9524">
        <ele>100</ele>
        <time>2020-06-21T08:58:17Z</time>
      </trkpt>
      <trkpt lat="49.17832" lon="1.95228">
        <ele>100</ele>
        <time>2020-06-21T08:58:26Z</time>
      </trkpt>
      <trkpt lat="49.1784" lon="1.95217">
        <ele>100</ele>
        <time>2020-06-21T08:58:33Z</time>
      </trkpt>
      <trkpt lat="49.17849" lon="1.95207">
        <ele>100</ele>
        <time>2020-06-21T08:58:39Z</time>
      </trkpt>
      <trkpt lat="49.17859" lon="1.95198">
        <ele>100</ele>
        <time>2020-06-21T08:58:51Z</time>
      </trkpt>
      <trkpt lat="49.17869" lon="1.95201">
        <ele>100</ele>
        <time>2020-06-21T08:58:57Z</time>
      </trkpt>
      <trkpt lat="49.1788" lon="1.95202">
        <ele>100</ele>
        <time>2020-06-21T08:59:05Z</time>
      </trkpt>
      <trkpt lat="49.1789" lon="1.95202">
        <ele>101</ele>
        <time>2020-06-21T08:59:11Z</time>
      </trkpt>
      <trkpt lat="49.17898" lon="1.95195">
        <ele>101</ele>
        <time>2020-06-21T08:59:19Z</time>
      </trkpt>
      <trkpt lat="49.1791" lon="1.95192">
        <ele>101</ele>
        <time>2020-06-21T08:59:28Z</time>
      </trkpt>
      <trkpt lat="49.1792" lon="1.95189">
        <ele>103</ele>
        <time>2020-06-21T08:59:36Z</time>
      </trkpt>
      <trkpt lat="49.1793" lon="1.95187">
        <ele>104</ele>
        <time>2020-06-21T08:59:42Z</time>
      </trkpt>
      <trkpt lat="49.1794" lon="1.95185">
        <ele>104</ele>
        <time>2020-06-21T08:59:47Z</time>
      </trkpt>
      <trkpt lat="49.17949" lon="1.95177">
        <ele>105</ele>
        <time>2020-06-21T08:59:54Z</time>
      </trkpt>
      <trkpt lat="49.1796" lon="1.95178">
        <ele>106</ele>
        <time>2020-06-21T09:00:09Z</time>
      </trkpt>
      <trkpt lat="49.17971" lon="1.95186">
        <ele>106</ele>
        <time>2020-06-21T09:00:15Z</time>
      </trkpt>
      <trkpt lat="49.17982" lon="1.95192">
        <ele>107</ele>
        <time>2020-06-21T09:00:21Z</time>
      </trkpt>
      <trkpt lat="49.17991" lon="1.95199">
        <ele>107</ele>
        <time>2020-06-21T09:00:27Z</time>
      </trkpt>
      <trkpt lat="49.17995" lon="1.95212">
        <ele>106</ele>
        <time>2020-06-21T09:00:48Z</time>
      </trkpt>
      <trkpt lat="49.17996" lon="1.95197">
        <ele>107</ele>
        <time>2020-06-21T09:02:19Z</time>
      </trkpt>
      <trkpt lat="49.18003" lon="1.95207">
        <ele>109</ele>
        <time>2020-06-21T09:03:50Z</time>
      </trkpt>
      <trkpt lat="49.18013" lon="1.95214">
        <ele>109</ele>
        <time>2020-06-21T09:03:57Z</time>
      </trkpt>
      <trkpt lat="49.18021" lon="1.95219">
        <ele>109</ele>
        <time>2020-06-21T09:04:03Z</time>
      </trkpt>
      <trkpt lat="49.18029" lon="1.95225">
        <ele>109</ele>
        <time>2020-06-21T09:04:09Z</time>
      </trkpt>
      <trkpt lat="49.18037" lon="1.95233">
        <ele>109</ele>
        <time>2020-06-21T09:04:15Z</time>
      </trkpt>
      <trkpt lat="49.18044" lon="1.95245">
        <ele>109</ele>
        <time>2020-06-21T09:04:22Z</time>
      </trkpt>
      <trkpt lat="49.18049" lon="1.95257">
        <ele>108</ele>
        <time>2020-06-21T09:04:28Z</time>
      </trkpt>
      <trkpt lat="49.18053" lon="1.95274">
        <ele>108</ele>
        <time>2020-06-21T09:04:36Z</time>
      </trkpt>
      <trkpt lat="49.18054" lon="1.95289">
        <ele>108</ele>
        <time>2020-06-21T09:04:46Z</time>
      </trkpt>
      <trkpt lat="49.18057" lon="1.95304">
        <ele>109</ele>
        <time>2020-06-21T09:04:55Z</time>
      </trkpt>
      <trkpt lat="49.18061" lon="1.95319">
        <ele>109</ele>
        <time>2020-06-21T09:05:05Z</time>
      </trkpt>
      <trkpt lat="49.18065" lon="1.95334">
        <ele>110</ele>
        <time>2020-06-21T09:05:14Z</time>
      </trkpt>
      <trkpt lat="49.1807" lon="1.9535">
        <ele>110</ele>
        <time>2020-06-21T09:05:23Z</time>
      </trkpt>
      <trkpt lat="49.18074" lon="1.95363">
        <ele>109</ele>
        <time>2020-06-21T09:05:29Z</time>
      </trkpt>
      <trkpt lat="49.18082" lon="1.95373">
        <ele>109</ele>
        <time>2020-06-21T09:05:35Z</time>
      </trkpt>
      <trkpt lat="49.1809" lon="1.95386">
        <ele>110</ele>
        <time>2020-06-21T09:05:41Z</time>
      </trkpt>
      <trkpt lat="49.18098" lon="1.95398">
        <ele>110</ele>
        <time>2020-06-21T09:05:47Z</time>
      </trkpt>
      <trkpt lat="49.18105" lon="1.95409">
        <ele>110</ele>
        <time>2020-06-21T09:05:53Z</time>
      </trkpt>
      <trkpt lat="49.18112" lon="1.9542">
        <ele>111</ele>
        <time>2020-06-21T09:05:59Z</time>
      </trkpt>
      <trkpt lat="49.18119" lon="1.9543">
        <ele>111</ele>
        <time>2020-06-21T09:06:05Z</time>
      </trkpt>
      <trkpt lat="49.18126" lon="1.95443">
        <ele>112</ele>
        <time>2020-06-21T09:06:11Z</time>
      </trkpt>
      <trkpt lat="49.18132" lon="1.95455">
        <ele>112</ele>
        <time>2020-06-21T09:06:17Z</time>
      </trkpt>
      <trkpt lat="49.18138" lon="1.95469">
        <ele>112</ele>
        <time>2020-06-21T09:06:25Z</time>
      </trkpt>
      <trkpt lat="49.18144" lon="1.95484">
        <ele>112</ele>
        <time>2020-06-21T09:06:33Z</time>
      </trkpt>
      <trkpt lat="49.18146" lon="1.95501">
        <ele>112</ele>
        <time>2020-06-21T09:06:41Z</time>
      </trkpt>
      <trkpt lat="49.18147" lon="1.95517">
        <ele>112</ele>
        <time>2020-06-21T09:06:49Z</time>
      </trkpt>
      <trkpt lat="49.18148" lon="1.95531">
        <ele>112</ele>
        <time>2020-06-21T09:06:55Z</time>
      </trkpt>
      <trkpt lat="49.18151" lon="1.95546">
        <ele>112</ele>
        <time>2020-06-21T09:07:02Z</time>
      </trkpt>
      <trkpt lat="49.18153" lon="1.95562">
        <ele>112</ele>
        <time>2020-06-21T09:07:09Z</time>
      </trkpt>
      <trkpt lat="49.18155" lon="1.95579">
        <ele>112</ele>
        <time>2020-06-21T09:07:17Z</time>
      </trkpt>
      <trkpt lat="49.18159" lon="1.95594">
        <ele>112</ele>
        <time>2020-06-21T09:07:24Z</time>
      </trkpt>
      <trkpt lat="49.18162" lon="1.95609">
        <ele>112</ele>
        <time>2020-06-21T09:07:32Z</time>
      </trkpt>
      <trkpt lat="49.18164" lon="1.95624">
        <ele>113</ele>
        <time>2020-06-21T09:07:40Z</time>
      </trkpt>
      <trkpt lat="49.18165" lon="1.95639">
        <ele>113</ele>
        <time>2020-06-21T09:07:48Z</time>
      </trkpt>
      <trkpt lat="49.18165" lon="1.95656">
        <ele>113</ele>
        <time>2020-06-21T09:07:56Z</time>
      </trkpt>
      <trkpt lat="49.18166" lon="1.95672">
        <ele>114</ele>
        <time>2020-06-21T09:08:04Z</time>
      </trkpt>
      <trkpt lat="49.18168" lon="1.95687">
        <ele>117</ele>
        <time>2020-06-21T09:08:10Z</time>
      </trkpt>
      <trkpt lat="49.18168" lon="1.95704">
        <ele>118</ele>
        <time>2020-06-21T09:08:18Z</time>
      </trkpt>
      <trkpt lat="49.18169" lon="1.95718">
        <ele>118</ele>
        <time>2020-06-21T09:08:24Z</time>
      </trkpt>
      <trkpt lat="49.18169" lon="1.95732">
        <ele>118</ele>
        <time>2020-06-21T09:08:30Z</time>
      </trkpt>
      <trkpt lat="49.18169" lon="1.95748">
        <ele>117</ele>
        <time>2020-06-21T09:08:37Z</time>
      </trkpt>
      <trkpt lat="49.1817" lon="1.95765">
        <ele>119</ele>
        <time>2020-06-21T09:08:45Z</time>
      </trkpt>
      <trkpt lat="49.18167" lon="1.95783">
        <ele>120</ele>
        <time>2020-06-21T09:08:53Z</time>
      </trkpt>
      <trkpt lat="49.18164" lon="1.95797">
        <ele>116</ele>
        <time>2020-06-21T09:09:00Z</time>
      </trkpt>
      <trkpt lat="49.18163" lon="1.95814">
        <ele>116</ele>
        <time>2020-06-21T09:09:08Z</time>
      </trkpt>
      <trkpt lat="49.18162" lon="1.95829">
        <ele>118</ele>
        <time>2020-06-21T09:09:16Z</time>
      </trkpt>
      <trkpt lat="49.1816" lon="1.95843">
        <ele>118</ele>
        <time>2020-06-21T09:09:24Z</time>
      </trkpt>
      <trkpt lat="49.18159" lon="1.95859">
        <ele>117</ele>
        <time>2020-06-21T09:09:31Z</time>
      </trkpt>
      <trkpt lat="49.18156" lon="1.95876">
        <ele>117</ele>
        <time>2020-06-21T09:09:39Z</time>
      </trkpt>
      <trkpt lat="49.18154" lon="1.95891">
        <ele>117</ele>
        <time>2020-06-21T09:09:45Z</time>
      </trkpt>
      <trkpt lat="49.1815" lon="1.95905">
        <ele>117</ele>
        <time>2020-06-21T09:09:51Z</time>
      </trkpt>
      <trkpt lat="49.18147" lon="1.95922">
        <ele>117</ele>
        <time>2020-06-21T09:09:59Z</time>
      </trkpt>
      <trkpt lat="49.18146" lon="1.95937">
        <ele>117</ele>
        <time>2020-06-21T09:10:07Z</time>
      </trkpt>
      <trkpt lat="49.18146" lon="1.95953">
        <ele>117</ele>
        <time>2020-06-21T09:10:15Z</time>
      </trkpt>
      <trkpt lat="49.18145" lon="1.95969">
        <ele>117</ele>
        <time>2020-06-21T09:10:22Z</time>
      </trkpt>
      <trkpt lat="49.18142" lon="1.95987">
        <ele>117</ele>
        <time>2020-06-21T09:10:30Z</time>
      </trkpt>
      <trkpt lat="49.18141" lon="1.96002">
        <ele>118</ele>
        <time>2020-06-21T09:10:37Z</time>
      </trkpt>
      <trkpt lat="49.18142" lon="1.9602">
        <ele>118</ele>
        <time>2020-06-21T09:10:45Z</time>
      </trkpt>
      <trkpt lat="49.18144" lon="1.96034">
        <ele>118</ele>
        <time>2020-06-21T09:10:51Z</time>
      </trkpt>
      <trkpt lat="49.18145" lon="1.96052">
        <ele>118</ele>
        <time>2020-06-21T09:10:59Z</time>
      </trkpt>
      <trkpt lat="49.18145" lon="1.96067">
        <ele>119</ele>
        <time>2020-06-21T09:11:05Z</time>
      </trkpt>
      <trkpt lat="49.18144" lon="1.96082">
        <ele>119</ele>
        <time>2020-06-21T09:11:11Z</time>
      </trkpt>
      <trkpt lat="49.18144" lon="1.96098">
        <ele>120</ele>
        <time>2020-06-21T09:11:19Z</time>
      </trkpt>
      <trkpt lat="49.18142" lon="1.96115">
        <ele>119</ele>
        <time>2020-06-21T09:11:27Z</time>
      </trkpt>
      <trkpt lat="49.18141" lon="1.96133">
        <ele>119</ele>
        <time>2020-06-21T09:11:35Z</time>
      </trkpt>
      <trkpt lat="49.18142" lon="1.96148">
        <ele>120</ele>
        <time>2020-06-21T09:11:41Z</time>
      </trkpt>
      <trkpt lat="49.18143" lon="1.96164">
        <ele>120</ele>
        <time>2020-06-21T09:11:48Z</time>
      </trkpt>
      <trkpt lat="49.18143" lon="1.96179">
        <ele>121</ele>
        <time>2020-06-21T09:11:56Z</time>
      </trkpt>
      <trkpt lat="49.18144" lon="1.96194">
        <ele>121</ele>
        <time>2020-06-21T09:12:04Z</time>
      </trkpt>
      <trkpt lat="49.18147" lon="1.9621">
        <ele>121</ele>
        <time>2020-06-21T09:12:13Z</time>
      </trkpt>
      <trkpt lat="49.18147" lon="1.96224">
        <ele>121</ele>
        <time>2020-06-21T09:12:19Z</time>
      </trkpt>
      <trkpt lat="49.18147" lon="1.96238">
        <ele>122</ele>
        <time>2020-06-21T09:12:25Z</time>
      </trkpt>
      <trkpt lat="49.18146" lon="1.96252">
        <ele>123</ele>
        <time>2020-06-21T09:12:31Z</time>
      </trkpt>
      <trkpt lat="49.18145" lon="1.96268">
        <ele>122</ele>
        <time>2020-06-21T09:12:37Z</time>
      </trkpt>
      <trkpt lat="49.18145" lon="1.96284">
        <ele>122</ele>
        <time>2020-06-21T09:12:43Z</time>
      </trkpt>
      <trkpt lat="49.18144" lon="1.96298">
        <ele>122</ele>
        <time>2020-06-21T09:12:49Z</time>
      </trkpt>
      <trkpt lat="49.18144" lon="1.96314">
        <ele>123</ele>
        <time>2020-06-21T09:12:55Z</time>
      </trkpt>
      <trkpt lat="49.18145" lon="1.96329">
        <ele>123</ele>
        <time>2020-06-21T09:13:01Z</time>
      </trkpt>
      <trkpt lat="49.18146" lon="1.96345">
        <ele>124</ele>
        <time>2020-06-21T09:13:08Z</time>
      </trkpt>
      <trkpt lat="49.18146" lon="1.96362">
        <ele>124</ele>
        <time>2020-06-21T09:13:16Z</time>
      </trkpt>
      <trkpt lat="49.18146" lon="1.96378">
        <ele>125</ele>
        <time>2020-06-21T09:13:24Z</time>
      </trkpt>
      <trkpt lat="49.18148" lon="1.96394">
        <ele>125</ele>
        <time>2020-06-21T09:13:32Z</time>
      </trkpt>
      <trkpt lat="49.1815" lon="1.96409">
        <ele>126</ele>
        <time>2020-06-21T09:13:40Z</time>
      </trkpt>
      <trkpt lat="49.18151" lon="1.96425">
        <ele>127</ele>
        <time>2020-06-21T09:13:48Z</time>
      </trkpt>
      <trkpt lat="49.18153" lon="1.96441">
        <ele>126</ele>
        <time>2020-06-21T09:13:56Z</time>
      </trkpt>
      <trkpt lat="49.18153" lon="1.96457">
        <ele>126</ele>
        <time>2020-06-21T09:14:03Z</time>
      </trkpt>
      <trkpt lat="49.18152" lon="1.96474">
        <ele>127</ele>
        <time>2020-06-21T09:14:12Z</time>
      </trkpt>
      <trkpt lat="49.18152" lon="1.96492">
        <ele>127</ele>
        <time>2020-06-21T09:14:20Z</time>
      </trkpt>
      <trkpt lat="49.18151" lon="1.96508">
        <ele>128</ele>
        <time>2020-06-21T09:14:29Z</time>
      </trkpt>
      <trkpt lat="49.18152" lon="1.96526">
        <ele>128</ele>
        <time>2020-06-21T09:14:37Z</time>
      </trkpt>
      <trkpt lat="49.18154" lon="1.96543">
        <ele>128</ele>
        <time>2020-06-21T09:14:45Z</time>
      </trkpt>
      <trkpt lat="49.18158" lon="1.96556">
        <ele>128</ele>
        <time>2020-06-21T09:14:53Z</time>
      </trkpt>
      <trkpt lat="49.18163" lon="1.96572">
        <ele>129</ele>
        <time>2020-06-21T09:15:00Z</time>
      </trkpt>
      <trkpt lat="49.18167" lon="1.96586">
        <ele>130</ele>
        <time>2020-06-21T09:15:06Z</time>
      </trkpt>
      <trkpt lat="49.18169" lon="1.966">
        <ele>131</ele>
        <time>2020-06-21T09:15:12Z</time>
      </trkpt>
      <trkpt lat="49.18172" lon="1.96616">
        <ele>132</ele>
        <time>2020-06-21T09:15:18Z</time>
      </trkpt>
      <trkpt lat="49.18174" lon="1.96633">
        <ele>132</ele>
        <time>2020-06-21T09:15:26Z</time>
      </trkpt>
      <trkpt lat="49.18174" lon="1.96647">
        <ele>132</ele>
        <time>2020-06-21T09:15:32Z</time>
      </trkpt>
      <trkpt lat="49.18175" lon="1.96663">
        <ele>131</ele>
        <time>2020-06-21T09:15:38Z</time>
      </trkpt>
      <trkpt lat="49.18178" lon="1.9668">
        <ele>131</ele>
        <time>2020-06-21T09:15:46Z</time>
      </trkpt>
      <trkpt lat="49.1818" lon="1.96696">
        <ele>130</ele>
        <time>2020-06-21T09:15:54Z</time>
      </trkpt>
      <trkpt lat="49.18182" lon="1.96711">
        <ele>130</ele>
        <time>2020-06-21T09:16:02Z</time>
      </trkpt>
      <trkpt lat="49.18184" lon="1.96725">
        <ele>130</ele>
        <time>2020-06-21T09:16:08Z</time>
      </trkpt>
      <trkpt lat="49.18188" lon="1.96741">
        <ele>129</ele>
        <time>2020-06-21T09:16:15Z</time>
      </trkpt>
      <trkpt lat="49.18192" lon="1.96754">
        <ele>127</ele>
        <time>2020-06-21T09:16:20Z</time>
      </trkpt>
      <trkpt lat="49.18195" lon="1.9677">
        <ele>127</ele>
        <time>2020-06-21T09:16:28Z</time>
      </trkpt>
      <trkpt lat="49.18197" lon="1.96787">
        <ele>126</ele>
        <time>2020-06-21T09:16:37Z</time>
      </trkpt>
      <trkpt lat="49.182" lon="1.96802">
        <ele>126</ele>
        <time>2020-06-21T09:16:45Z</time>
      </trkpt>
      <trkpt lat="49.18203" lon="1.96818">
        <ele>126</ele>
        <time>2020-06-21T09:16:53Z</time>
      </trkpt>
      <trkpt lat="49.18206" lon="1.96834">
        <ele>123</ele>
        <time>2020-06-21T09:17:01Z</time>
      </trkpt>
      <trkpt lat="49.18208" lon="1.9685">
        <ele>123</ele>
        <time>2020-06-21T09:17:08Z</time>
      </trkpt>
      <trkpt lat="49.18211" lon="1.96865">
        <ele>123</ele>
        <time>2020-06-21T09:17:15Z</time>
      </trkpt>
      <trkpt lat="49.18212" lon="1.9688">
        <ele>123</ele>
        <time>2020-06-21T09:17:23Z</time>
      </trkpt>
      <trkpt lat="49.18214" lon="1.96895">
        <ele>122</ele>
        <time>2020-06-21T09:17:31Z</time>
      </trkpt>
      <trkpt lat="49.18215" lon="1.9691">
        <ele>122</ele>
        <time>2020-06-21T09:17:39Z</time>
      </trkpt>
      <trkpt lat="49.18216" lon="1.96926">
        <ele>121</ele>
        <time>2020-06-21T09:17:47Z</time>
      </trkpt>
      <trkpt lat="49.18217" lon="1.9694">
        <ele>121</ele>
        <time>2020-06-21T09:17:55Z</time>
      </trkpt>
      <trkpt lat="49.18222" lon="1.96956">
        <ele>120</ele>
        <time>2020-06-21T09:18:03Z</time>
      </trkpt>
      <trkpt lat="49.18228" lon="1.96969">
        <ele>120</ele>
        <time>2020-06-21T09:18:10Z</time>
      </trkpt>
      <trkpt lat="49.18233" lon="1.96984">
        <ele>119</ele>
        <time>2020-06-21T09:18:18Z</time>
      </trkpt>
      <trkpt lat="49.18237" lon="1.96999">
        <ele>118</ele>
        <time>2020-06-21T09:18:26Z</time>
      </trkpt>
      <trkpt lat="49.18241" lon="1.97014">
        <ele>117</ele>
        <time>2020-06-21T09:18:33Z</time>
      </trkpt>
      <trkpt lat="49.18243" lon="1.97027">
        <ele>117</ele>
        <time>2020-06-21T09:18:39Z</time>
      </trkpt>
      <trkpt lat="49.18245" lon="1.97048">
        <ele>117</ele>
        <time>2020-06-21T09:18:48Z</time>
      </trkpt>
      <trkpt lat="49.18243" lon="1.97064">
        <ele>116</ele>
        <time>2020-06-21T09:18:57Z</time>
      </trkpt>
      <trkpt lat="49.18247" lon="1.97079">
        <ele>115</ele>
        <time>2020-06-21T09:19:08Z</time>
      </trkpt>
      <trkpt lat="49.18251" lon="1.97094">
        <ele>112</ele>
        <time>2020-06-21T09:19:18Z</time>
      </trkpt>
      <trkpt lat="49.18259" lon="1.97104">
        <ele>111</ele>
        <time>2020-06-21T09:19:29Z</time>
      </trkpt>
      <trkpt lat="49.18263" lon="1.97118">
        <ele>110</ele>
        <time>2020-06-21T09:19:40Z</time>
      </trkpt>
      <trkpt lat="49.18262" lon="1.97133">
        <ele>110</ele>
        <time>2020-06-21T09:19:49Z</time>
      </trkpt>
      <trkpt lat="49.18263" lon="1.97148">
        <ele>110</ele>
        <time>2020-06-21T09:20:06Z</time>
      </trkpt>
      <trkpt lat="49.18266" lon="1.97162">
        <ele>110</ele>
        <time>2020-06-21T09:20:15Z</time>
      </trkpt>
      <trkpt lat="49.18267" lon="1.97177">
        <ele>108</ele>
        <time>2020-06-21T09:20:29Z</time>
      </trkpt>
      <trkpt lat="49.18269" lon="1.97195">
        <ele>108</ele>
        <time>2020-06-21T09:20:38Z</time>
      </trkpt>
      <trkpt lat="49.1827" lon="1.97212">
        <ele>107</ele>
        <time>2020-06-21T09:20:43Z</time>
      </trkpt>
      <trkpt lat="49.18272" lon="1.97227">
        <ele>107</ele>
        <time>2020-06-21T09:20:47Z</time>
      </trkpt>
      <trkpt lat="49.18275" lon="1.97242">
        <ele>107</ele>
        <time>2020-06-21T09:20:51Z</time>
      </trkpt>
      <trkpt lat="49.18278" lon="1.97255">
        <ele>105</ele>
        <time>2020-06-21T09:20:55Z</time>
      </trkpt>
      <trkpt lat="49.18282" lon="1.97271">
        <ele>105</ele>
        <time>2020-06-21T09:21:00Z</time>
      </trkpt>
      <trkpt lat="49.18285" lon="1.97288">
        <ele>105</ele>
        <time>2020-06-21T09:21:06Z</time>
      </trkpt>
      <trkpt lat="49.18287" lon="1.97304">
        <ele>105</ele>
        <time>2020-06-21T09:21:12Z</time>
      </trkpt>
      <trkpt lat="49.18289" lon="1.9732">
        <ele>104</ele>
        <time>2020-06-21T09:21:18Z</time>
      </trkpt>
      <trkpt lat="49.18293" lon="1.97335">
        <ele>103</ele>
        <time>2020-06-21T09:21:24Z</time>
      </trkpt>
      <trkpt lat="49.18298" lon="1.97349">
        <ele>103</ele>
        <time>2020-06-21T09:21:30Z</time>
      </trkpt>
      <trkpt lat="49.18303" lon="1.97362">
        <ele>103</ele>
        <time>2020-06-21T09:21:36Z</time>
      </trkpt>
      <trkpt lat="49.18308" lon="1.97376">
        <ele>103</ele>
        <time>2020-06-21T09:21:43Z</time>
      </trkpt>
      <trkpt lat="49.18312" lon="1.97388">
        <ele>103</ele>
        <time>2020-06-21T09:21:49Z</time>
      </trkpt>
      <trkpt lat="49.18316" lon="1.97401">
        <ele>103</ele>
        <time>2020-06-21T09:21:55Z</time>
      </trkpt>
      <trkpt lat="49.18322" lon="1.97413">
        <ele>102</ele>
        <time>2020-06-21T09:22:01Z</time>
      </trkpt>
      <trkpt lat="49.18327" lon="1.97426">
        <ele>102</ele>
        <time>2020-06-21T09:22:08Z</time>
      </trkpt>
      <trkpt lat="49.18332" lon="1.97442">
        <ele>103</ele>
        <time>2020-06-21T09:22:16Z</time>
      </trkpt>
      <trkpt lat="49.18336" lon="1.97457">
        <ele>104</ele>
        <time>2020-06-21T09:22:24Z</time>
      </trkpt>
      <trkpt lat="49.18342" lon="1.97469">
        <ele>104</ele>
        <time>2020-06-21T09:22:31Z</time>
      </trkpt>
      <trkpt lat="49.1835" lon="1.9748">
        <ele>104</ele>
        <time>2020-06-21T09:22:37Z</time>
      </trkpt>
      <trkpt lat="49.18356" lon="1.9749">
        <ele>105</ele>
        <time>2020-06-21T09:22:43Z</time>
      </trkpt>
      <trkpt lat="49.1836" lon="1.97504">
        <ele>105</ele>
        <time>2020-06-21T09:22:51Z</time>
      </trkpt>
      <trkpt lat="49.18361" lon="1.97519">
        <ele>105</ele>
        <time>2020-06-21T09:22:59Z</time>
      </trkpt>
      <trkpt lat="49.18362" lon="1.97535">
        <ele>106</ele>
        <time>2020-06-21T09:23:07Z</time>
      </trkpt>
      <trkpt lat="49.18364" lon="1.97549">
        <ele>106</ele>
        <time>2020-06-21T09:23:15Z</time>
      </trkpt>
      <trkpt lat="49.1837" lon="1.97561">
        <ele>106</ele>
        <time>2020-06-21T09:23:22Z</time>
      </trkpt>
      <trkpt lat="49.18377" lon="1.97573">
        <ele>106</ele>
        <time>2020-06-21T09:23:28Z</time>
      </trkpt>
      <trkpt lat="49.18385" lon="1.97585">
        <ele>107</ele>
        <time>2020-06-21T09:23:34Z</time>
      </trkpt>
      <trkpt lat="49.18394" lon="1.97597">
        <ele>107</ele>
        <time>2020-06-21T09:23:40Z</time>
      </trkpt>
      <trkpt lat="49.18403" lon="1.97607">
        <ele>107</ele>
        <time>2020-06-21T09:23:46Z</time>
      </trkpt>
      <trkpt lat="49.18411" lon="1.97617">
        <ele>107</ele>
        <time>2020-06-21T09:23:52Z</time>
      </trkpt>
      <trkpt lat="49.18418" lon="1.97628">
        <ele>110</ele>
        <time>2020-06-21T09:23:59Z</time>
      </trkpt>
      <trkpt lat="49.18426" lon="1.97641">
        <ele>110</ele>
        <time>2020-06-21T09:24:07Z</time>
      </trkpt>
      <trkpt lat="49.18433" lon="1.97652">
        <ele>110</ele>
        <time>2020-06-21T09:24:13Z</time>
      </trkpt>
      <trkpt lat="49.1844" lon="1.97664">
        <ele>110</ele>
        <time>2020-06-21T09:24:20Z</time>
      </trkpt>
      <trkpt lat="49.18447" lon="1.97676">
        <ele>110</ele>
        <time>2020-06-21T09:24:28Z</time>
      </trkpt>
      <trkpt lat="49.18455" lon="1.97686">
        <ele>111</ele>
        <time>2020-06-21T09:24:35Z</time>
      </trkpt>
      <trkpt lat="49.18464" lon="1.97695">
        <ele>111</ele>
        <time>2020-06-21T09:24:41Z</time>
      </trkpt>
      <trkpt lat="49.18471" lon="1.97705">
        <ele>111</ele>
        <time>2020-06-21T09:24:47Z</time>
      </trkpt>
      <trkpt lat="49.18479" lon="1.97716">
        <ele>111</ele>
        <time>2020-06-21T09:24:53Z</time>
      </trkpt>
      <trkpt lat="49.18486" lon="1.97727">
        <ele>112</ele>
        <time>2020-06-21T09:24:59Z</time>
      </trkpt>
      <trkpt lat="49.18493" lon="1.97738">
        <ele>112</ele>
        <time>2020-06-21T09:25:05Z</time>
      </trkpt>
      <trkpt lat="49.18501" lon="1.97747">
        <ele>113</ele>
        <time>2020-06-21T09:25:11Z</time>
      </trkpt>
      <trkpt lat="49.18509" lon="1.97759">
        <ele>114</ele>
        <time>2020-06-21T09:25:19Z</time>
      </trkpt>
      <trkpt lat="49.18518" lon="1.97768">
        <ele>114</ele>
        <time>2020-06-21T09:25:27Z</time>
      </trkpt>
      <trkpt lat="49.18526" lon="1.97778">
        <ele>114</ele>
        <time>2020-06-21T09:25:34Z</time>
      </trkpt>
      <trkpt lat="49.18532" lon="1.97789">
        <ele>115</ele>
        <time>2020-06-21T09:25:40Z</time>
      </trkpt>
      <trkpt lat="49.18537" lon="1.97803">
        <ele>115</ele>
        <time>2020-06-21T09:25:47Z</time>
      </trkpt>
      <trkpt lat="49.18543" lon="1.97818">
        <ele>115</ele>
        <time>2020-06-21T09:25:55Z</time>
      </trkpt>
      <trkpt lat="49.18549" lon="1.97833">
        <ele>115</ele>
        <time>2020-06-21T09:26:02Z</time>
      </trkpt>
      <trkpt lat="49.18556" lon="1.97847">
        <ele>115</ele>
        <time>2020-06-21T09:26:08Z</time>
      </trkpt>
      <trkpt lat="49.18561" lon="1.97861">
        <ele>115</ele>
        <time>2020-06-21T09:26:14Z</time>
      </trkpt>
      <trkpt lat="49.18565" lon="1.97875">
        <ele>115</ele>
        <time>2020-06-21T09:26:20Z</time>
      </trkpt>
      <trkpt lat="49.18568" lon="1.97891">
        <ele>116</ele>
        <time>2020-06-21T09:26:28Z</time>
      </trkpt>
      <trkpt lat="49.18569" lon="1.97907">
        <ele>117</ele>
        <time>2020-06-21T09:26:36Z</time>
      </trkpt>
      <trkpt lat="49.18573" lon="1.97922">
        <ele>118</ele>
        <time>2020-06-21T09:26:46Z</time>
      </trkpt>
      <trkpt lat="49.18577" lon="1.97936">
        <ele>117</ele>
        <time>2020-06-21T09:26:54Z</time>
      </trkpt>
      <trkpt lat="49.18582" lon="1.97951">
        <ele>116</ele>
        <time>2020-06-21T09:27:02Z</time>
      </trkpt>
      <trkpt lat="49.18587" lon="1.97968">
        <ele>120</ele>
        <time>2020-06-21T09:27:10Z</time>
      </trkpt>
      <trkpt lat="49.18592" lon="1.97982">
        <ele>119</ele>
        <time>2020-06-21T09:27:17Z</time>
      </trkpt>
      <trkpt lat="49.18598" lon="1.97997">
        <ele>119</ele>
        <time>2020-06-21T09:27:25Z</time>
      </trkpt>
      <trkpt lat="49.18604" lon="1.98012">
        <ele>117</ele>
        <time>2020-06-21T09:27:33Z</time>
      </trkpt>
      <trkpt lat="49.18609" lon="1.98025">
        <ele>117</ele>
        <time>2020-06-21T09:27:40Z</time>
      </trkpt>
      <trkpt lat="49.18615" lon="1.98037">
        <ele>117</ele>
        <time>2020-06-21T09:27:46Z</time>
      </trkpt>
      <trkpt lat="49.18621" lon="1.98049">
        <ele>117</ele>
        <time>2020-06-21T09:27:53Z</time>
      </trkpt>
      <trkpt lat="49.18628" lon="1.98062">
        <ele>117</ele>
        <time>2020-06-21T09:28:01Z</time>
      </trkpt>
      <trkpt lat="49.18634" lon="1.98075">
        <ele>117</ele>
        <time>2020-06-21T09:28:09Z</time>
      </trkpt>
      <trkpt lat="49.1864" lon="1.98089">
        <ele>116</ele>
        <time>2020-06-21T09:28:17Z</time>
      </trkpt>
      <trkpt lat="49.18645" lon="1.98105">
        <ele>116</ele>
        <time>2020-06-21T09:28:25Z</time>
      </trkpt>
      <trkpt lat="49.1865" lon="1.9812">
        <ele>116</ele>
        <time>2020-06-21T09:28:33Z</time>
      </trkpt>
      <trkpt lat="49.18655" lon="1.98135">
        <ele>116</ele>
        <time>2020-06-21T09:28:40Z</time>
      </trkpt>
      <trkpt lat="49.1866" lon="1.98148">
        <ele>116</ele>
        <time>2020-06-21T09:28:46Z</time>
      </trkpt>
      <trkpt lat="49.18666" lon="1.98161">
        <ele>117</ele>
        <time>2020-06-21T09:28:52Z</time>
      </trkpt>
      <trkpt lat="49.18671" lon="1.98174">
        <ele>117</ele>
        <time>2020-06-21T09:28:58Z</time>
      </trkpt>
      <trkpt lat="49.18676" lon="1.98187">
        <ele>117</ele>
        <time>2020-06-21T09:29:04Z</time>
      </trkpt>
      <trkpt lat="49.18681" lon="1.98201">
        <ele>117</ele>
        <time>2020-06-21T09:29:11Z</time>
      </trkpt>
      <trkpt lat="49.18686" lon="1.98214">
        <ele>117</ele>
        <time>2020-06-21T09:29:17Z</time>
      </trkpt>
      <trkpt lat="49.1869" lon="1.98227">
        <ele>116</ele>
        <time>2020-06-21T09:29:23Z</time>
      </trkpt>
      <trkpt lat="49.18693" lon="1.98241">
        <ele>116</ele>
        <time>2020-06-21T09:29:29Z</time>
      </trkpt>
      <trkpt lat="49.18696" lon="1.98255">
        <ele>116</ele>
        <time>2020-06-21T09:29:35Z</time>
      </trkpt>
      <trkpt lat="49.18698" lon="1.98273">
        <ele>116</ele>
        <time>2020-06-21T09:29:43Z</time>
      </trkpt>
      <trkpt lat="49.18698" lon="1.98289">
        <ele>116</ele>
        <time>2020-06-21T09:29:50Z</time>
      </trkpt>
      <trkpt lat="49.18697" lon="1.98303">
        <ele>116</ele>
        <time>2020-06-21T09:29:58Z</time>
      </trkpt>
      <trkpt lat="49.18698" lon="1.98318">
        <ele>116</ele>
        <time>2020-06-21T09:30:05Z</time>
      </trkpt>
      <trkpt lat="49.187" lon="1.98335">
        <ele>116</ele>
        <time>2020-06-21T09:30:13Z</time>
      </trkpt>
      <trkpt lat="49.18699" lon="1.98351">
        <ele>116</ele>
        <time>2020-06-21T09:30:21Z</time>
      </trkpt>
      <trkpt lat="49.18701" lon="1.98367">
        <ele>117</ele>
        <time>2020-06-21T09:30:29Z</time>
      </trkpt>
      <trkpt lat="49.18703" lon="1.98382">
        <ele>117</ele>
        <time>2020-06-21T09:30:36Z</time>
      </trkpt>
      <trkpt lat="49.18706" lon="1.98398">
        <ele>117</ele>
        <time>2020-06-21T09:30:42Z</time>
      </trkpt>
      <trkpt lat="49.18708" lon="1.98413">
        <ele>117</ele>
        <time>2020-06-21T09:30:48Z</time>
      </trkpt>
      <trkpt lat="49.18711" lon="1.98429">
        <ele>118</ele>
        <time>2020-06-21T09:30:55Z</time>
      </trkpt>
      <trkpt lat="49.18712" lon="1.98446">
        <ele>118</ele>
        <time>2020-06-21T09:31:03Z</time>
      </trkpt>
      <trkpt lat="49.18713" lon="1.98463">
        <ele>118</ele>
        <time>2020-06-21T09:31:11Z</time>
      </trkpt>
      <trkpt lat="49.18714" lon="1.98477">
        <ele>118</ele>
        <time>2020-06-21T09:31:17Z</time>
      </trkpt>
      <trkpt lat="49.18718" lon="1.98491">
        <ele>118</ele>
        <time>2020-06-21T09:31:23Z</time>
      </trkpt>
      <trkpt lat="49.18718" lon="1.98507">
        <ele>118</ele>
        <time>2020-06-21T09:31:30Z</time>
      </trkpt>
      <trkpt lat="49.18719" lon="1.98523">
        <ele>119</ele>
        <time>2020-06-21T09:31:38Z</time>
      </trkpt>
      <trkpt lat="49.18721" lon="1.98539">
        <ele>119</ele>
        <time>2020-06-21T09:31:45Z</time>
      </trkpt>
      <trkpt lat="49.1872" lon="1.98557">
        <ele>119</ele>
        <time>2020-06-21T09:31:53Z</time>
      </trkpt>
      <trkpt lat="49.18717" lon="1.98574">
        <ele>119</ele>
        <time>2020-06-21T09:32:01Z</time>
      </trkpt>
      <trkpt lat="49.18717" lon="1.98589">
        <ele>120</ele>
        <time>2020-06-21T09:32:08Z</time>
      </trkpt>
      <trkpt lat="49.18718" lon="1.98606">
        <ele>120</ele>
        <time>2020-06-21T09:32:16Z</time>
      </trkpt>
      <trkpt lat="49.18719" lon="1.98623">
        <ele>120</ele>
        <time>2020-06-21T09:32:24Z</time>
      </trkpt>
      <trkpt lat="49.18721" lon="1.98637">
        <ele>120</ele>
        <time>2020-06-21T09:32:30Z</time>
      </trkpt>
      <trkpt lat="49.18724" lon="1.98653">
        <ele>120</ele>
        <time>2020-06-21T09:32:37Z</time>
      </trkpt>
      <trkpt lat="49.18728" lon="1.98668">
        <ele>121</ele>
        <time>2020-06-21T09:32:43Z</time>
      </trkpt>
      <trkpt lat="49.1873" lon="1.98684">
        <ele>121</ele>
        <time>2020-06-21T09:32:50Z</time>
      </trkpt>
      <trkpt lat="49.18729" lon="1.987">
        <ele>122</ele>
        <time>2020-06-21T09:32:58Z</time>
      </trkpt>
      <trkpt lat="49.18728" lon="1.98717">
        <ele>122</ele>
        <time>2020-06-21T09:33:06Z</time>
      </trkpt>
      <trkpt lat="49.18729" lon="1.98734">
        <ele>122</ele>
        <time>2020-06-21T09:33:14Z</time>
      </trkpt>
      <trkpt lat="49.18729" lon="1.98751">
        <ele>124</ele>
        <time>2020-06-21T09:33:21Z</time>
      </trkpt>
      <trkpt lat="49.18729" lon="1.98768">
        <ele>124</ele>
        <time>2020-06-21T09:33:27Z</time>
      </trkpt>
      <trkpt lat="49.18727" lon="1.98785">
        <ele>124</ele>
        <time>2020-06-21T09:33:35Z</time>
      </trkpt>
      <trkpt lat="49.18726" lon="1.98801">
        <ele>125</ele>
        <time>2020-06-21T09:33:42Z</time>
      </trkpt>
      <trkpt lat="49.18729" lon="1.98817">
        <ele>124</ele>
        <time>2020-06-21T09:33:48Z</time>
      </trkpt>
      <trkpt lat="49.18732" lon="1.98831">
        <ele>124</ele>
        <time>2020-06-21T09:33:54Z</time>
      </trkpt>
      <trkpt lat="49.18734" lon="1.98847">
        <ele>125</ele>
        <time>2020-06-21T09:34:01Z</time>
      </trkpt>
      <trkpt lat="49.18734" lon="1.98863">
        <ele>126</ele>
        <time>2020-06-21T09:34:08Z</time>
      </trkpt>
      <trkpt lat="49.18735" lon="1.98878">
        <ele>127</ele>
        <time>2020-06-21T09:34:14Z</time>
      </trkpt>
      <trkpt lat="49.18736" lon="1.98892">
        <ele>127</ele>
        <time>2020-06-21T09:34:20Z</time>
      </trkpt>
      <trkpt lat="49.18737" lon="1.98906">
        <ele>127</ele>
        <time>2020-06-21T09:34:26Z</time>
      </trkpt>
      <trkpt lat="49.18737" lon="1.98923">
        <ele>128</ele>
        <time>2020-06-21T09:34:34Z</time>
      </trkpt>
      <trkpt lat="49.18735" lon="1.98939">
        <ele>129</ele>
        <time>2020-06-21T09:34:42Z</time>
      </trkpt>
      <trkpt lat="49.1873" lon="1.98956">
        <ele>129</ele>
        <time>2020-06-21T09:34:50Z</time>
      </trkpt>
      <trkpt lat="49.18722" lon="1.98967">
        <ele>130</ele>
        <time>2020-06-21T09:34:57Z</time>
      </trkpt>
      <trkpt lat="49.18714" lon="1.98976">
        <ele>130</ele>
        <time>2020-06-21T09:35:03Z</time>
      </trkpt>
      <trkpt lat="49.18706" lon="1.98987">
        <ele>130</ele>
        <time>2020-06-21T09:35:10Z</time>
      </trkpt>
      <trkpt lat="49.18699" lon="1.98997">
        <ele>131</ele>
        <time>2020-06-21T09:35:17Z</time>
      </trkpt>
      <trkpt lat="49.18692" lon="1.99009">
        <ele>133</ele>
        <time>2020-06-21T09:35:25Z</time>
      </trkpt>
      <trkpt lat="49.18684" lon="1.99023">
        <ele>133</ele>
        <time>2020-06-21T09:35:33Z</time>
      </trkpt>
      <trkpt lat="49.18677" lon="1.99035">
        <ele>133</ele>
        <time>2020-06-21T09:35:41Z</time>
      </trkpt>
      <trkpt lat="49.1867" lon="1.99048">
        <ele>133</ele>
        <time>2020-06-21T09:35:49Z</time>
      </trkpt>
      <trkpt lat="49.18662" lon="1.99058">
        <ele>135</ele>
        <time>2020-06-21T09:35:57Z</time>
      </trkpt>
      <trkpt lat="49.18653" lon="1.99068">
        <ele>135</ele>
        <time>2020-06-21T09:36:05Z</time>
      </trkpt>
      <trkpt lat="49.18645" lon="1.9908">
        <ele>135</ele>
        <time>2020-06-21T09:36:13Z</time>
      </trkpt>
      <trkpt lat="49.18637" lon="1.99088">
        <ele>136</ele>
        <time>2020-06-21T09:36:21Z</time>
      </trkpt>
      <trkpt lat="49.18628" lon="1.99098">
        <ele>136</ele>
        <time>2020-06-21T09:36:29Z</time>
      </trkpt>
      <trkpt lat="49.18618" lon="1.99101">
        <ele>137</ele>
        <time>2020-06-21T09:36:38Z</time>
      </trkpt>
      <trkpt lat="49.18608" lon="1.99105">
        <ele>137</ele>
        <time>2020-06-21T09:36:46Z</time>
      </trkpt>
      <trkpt lat="49.18599" lon="1.99111">
        <ele>137</ele>
        <time>2020-06-21T09:37:16Z</time>
      </trkpt>
      <trkpt lat="49.1859" lon="1.9912">
        <ele>137</ele>
        <time>2020-06-21T09:37:24Z</time>
      </trkpt>
      <trkpt lat="49.1858" lon="1.99124">
        <ele>136</ele>
        <time>2020-06-21T09:37:30Z</time>
      </trkpt>
      <trkpt lat="49.18569" lon="1.99128">
        <ele>136</ele>
        <time>2020-06-21T09:37:35Z</time>
      </trkpt>
      <trkpt lat="49.18558" lon="1.99131">
        <ele>136</ele>
        <time>2020-06-21T09:37:41Z</time>
      </trkpt>
      <trkpt lat="49.18549" lon="1.99135">
        <ele>136</ele>
        <time>2020-06-21T09:37:47Z</time>
      </trkpt>
      <trkpt lat="49.1854" lon="1.99142">
        <ele>136</ele>
        <time>2020-06-21T09:37:53Z</time>
      </trkpt>
      <trkpt lat="49.18529" lon="1.99148">
        <ele>135</ele>
        <time>2020-06-21T09:38:02Z</time>
      </trkpt>
      <trkpt lat="49.1852" lon="1.99152">
        <ele>135</ele>
        <time>2020-06-21T09:38:09Z</time>
      </trkpt>
      <trkpt lat="49.18511" lon="1.99161">
        <ele>134</ele>
        <time>2020-06-21T09:38:17Z</time>
      </trkpt>
      <trkpt lat="49.18502" lon="1.99168">
        <ele>133</ele>
        <time>2020-06-21T09:38:26Z</time>
      </trkpt>
      <trkpt lat="49.18495" lon="1.99178">
        <ele>130</ele>
        <time>2020-06-21T09:38:34Z</time>
      </trkpt>
      <trkpt lat="49.18488" lon="1.99191">
        <ele>128</ele>
        <time>2020-06-21T09:38:42Z</time>
      </trkpt>
      <trkpt lat="49.18483" lon="1.99204">
        <ele>127</ele>
        <time>2020-06-21T09:38:47Z</time>
      </trkpt>
      <trkpt lat="49.18477" lon="1.99216">
        <ele>127</ele>
        <time>2020-06-21T09:38:51Z</time>
      </trkpt>
      <trkpt lat="49.18469" lon="1.99232">
        <ele>126</ele>
        <time>2020-06-21T09:38:57Z</time>
      </trkpt>
      <trkpt lat="49.18461" lon="1.99245">
        <ele>125</ele>
        <time>2020-06-21T09:39:03Z</time>
      </trkpt>
      <trkpt lat="49.18453" lon="1.99256">
        <ele>123</ele>
        <time>2020-06-21T09:39:09Z</time>
      </trkpt>
      <trkpt lat="49.18445" lon="1.99266">
        <ele>122</ele>
        <time>2020-06-21T09:39:16Z</time>
      </trkpt>
      <trkpt lat="49.18437" lon="1.99276">
        <ele>122</ele>
        <time>2020-06-21T09:39:23Z</time>
      </trkpt>
      <trkpt lat="49.18428" lon="1.99285">
        <ele>122</ele>
        <time>2020-06-21T09:39:31Z</time>
      </trkpt>
      <trkpt lat="49.18421" lon="1.99293">
        <ele>121</ele>
        <time>2020-06-21T09:39:37Z</time>
      </trkpt>
      <trkpt lat="49.18411" lon="1.99301">
        <ele>118</ele>
        <time>2020-06-21T09:39:45Z</time>
      </trkpt>
      <trkpt lat="49.18402" lon="1.99309">
        <ele>118</ele>
        <time>2020-06-21T09:39:51Z</time>
      </trkpt>
      <trkpt lat="49.18393" lon="1.99319">
        <ele>118</ele>
        <time>2020-06-21T09:39:57Z</time>
      </trkpt>
      <trkpt lat="49.18384" lon="1.99327">
        <ele>118</ele>
        <time>2020-06-21T09:40:04Z</time>
      </trkpt>
      <trkpt lat="49.18374" lon="1.99336">
        <ele>118</ele>
        <time>2020-06-21T09:40:12Z</time>
      </trkpt>
      <trkpt lat="49.18367" lon="1.99344">
        <ele>118</ele>
        <time>2020-06-21T09:40:18Z</time>
      </trkpt>
      <trkpt lat="49.18359" lon="1.99353">
        <ele>118</ele>
        <time>2020-06-21T09:40:24Z</time>
      </trkpt>
      <trkpt lat="49.18351" lon="1.99362">
        <ele>118</ele>
        <time>2020-06-21T09:40:31Z</time>
      </trkpt>
      <trkpt lat="49.18343" lon="1.99375">
        <ele>119</ele>
        <time>2020-06-21T09:40:38Z</time>
      </trkpt>
      <trkpt lat="49.18335" lon="1.99387">
        <ele>119</ele>
        <time>2020-06-21T09:40:44Z</time>
      </trkpt>
      <trkpt lat="49.18326" lon="1.99399">
        <ele>120</ele>
        <time>2020-06-21T09:40:50Z</time>
      </trkpt>
      <trkpt lat="49.18318" lon="1.99409">
        <ele>121</ele>
        <time>2020-06-21T09:40:56Z</time>
      </trkpt>
      <trkpt lat="49.18311" lon="1.99419">
        <ele>121</ele>
        <time>2020-06-21T09:41:02Z</time>
      </trkpt>
      <trkpt lat="49.18303" lon="1.99429">
        <ele>122</ele>
        <time>2020-06-21T09:41:09Z</time>
      </trkpt>
      <trkpt lat="49.18294" lon="1.99441">
        <ele>122</ele>
        <time>2020-06-21T09:41:17Z</time>
      </trkpt>
      <trkpt lat="49.18286" lon="1.99452">
        <ele>122</ele>
        <time>2020-06-21T09:41:25Z</time>
      </trkpt>
      <trkpt lat="49.18277" lon="1.99462">
        <ele>123</ele>
        <time>2020-06-21T09:41:33Z</time>
      </trkpt>
      <trkpt lat="49.18268" lon="1.9947">
        <ele>123</ele>
        <time>2020-06-21T09:41:40Z</time>
      </trkpt>
      <trkpt lat="49.1826" lon="1.99478">
        <ele>123</ele>
        <time>2020-06-21T09:41:46Z</time>
      </trkpt>
      <trkpt lat="49.18253" lon="1.99487">
        <ele>123</ele>
        <time>2020-06-21T09:41:52Z</time>
      </trkpt>
      <trkpt lat="49.18246" lon="1.99497">
        <ele>125</ele>
        <time>2020-06-21T09:41:58Z</time>
      </trkpt>
      <trkpt lat="49.18237" lon="1.99507">
        <ele>125</ele>
        <time>2020-06-21T09:42:06Z</time>
      </trkpt>
      <trkpt lat="49.18228" lon="1.99517">
        <ele>126</ele>
        <time>2020-06-21T09:42:14Z</time>
      </trkpt>
      <trkpt lat="49.1822" lon="1.99525">
        <ele>126</ele>
        <time>2020-06-21T09:42:20Z</time>
      </trkpt>
      <trkpt lat="49.18212" lon="1.99535">
        <ele>127</ele>
        <time>2020-06-21T09:42:27Z</time>
      </trkpt>
      <trkpt lat="49.18203" lon="1.99545">
        <ele>127</ele>
        <time>2020-06-21T09:42:35Z</time>
      </trkpt>
      <trkpt lat="49.18194" lon="1.99556">
        <ele>127</ele>
        <time>2020-06-21T09:42:43Z</time>
      </trkpt>
      <trkpt lat="49.18186" lon="1.99564">
        <ele>128</ele>
        <time>2020-06-21T09:42:51Z</time>
      </trkpt>
      <trkpt lat="49.18177" lon="1.99573">
        <ele>129</ele>
        <time>2020-06-21T09:42:58Z</time>
      </trkpt>
      <trkpt lat="49.18168" lon="1.99581">
        <ele>130</ele>
        <time>2020-06-21T09:43:05Z</time>
      </trkpt>
      <trkpt lat="49.18159" lon="1.99589">
        <ele>131</ele>
        <time>2020-06-21T09:43:13Z</time>
      </trkpt>
      <trkpt lat="49.1815" lon="1.99595">
        <ele>132</ele>
        <time>2020-06-21T09:43:21Z</time>
      </trkpt>
      <trkpt lat="49.1814" lon="1.99604">
        <ele>133</ele>
        <time>2020-06-21T09:43:29Z</time>
      </trkpt>
      <trkpt lat="49.18133" lon="1.99612">
        <ele>133</ele>
        <time>2020-06-21T09:43:35Z</time>
      </trkpt>
      <trkpt lat="49.18123" lon="1.99619">
        <ele>133</ele>
        <time>2020-06-21T09:43:44Z</time>
      </trkpt>
      <trkpt lat="49.18113" lon="1.99627">
        <ele>134</ele>
        <time>2020-06-21T09:43:52Z</time>
      </trkpt>
      <trkpt lat="49.18104" lon="1.99635">
        <ele>134</ele>
        <time>2020-06-21T09:44:01Z</time>
      </trkpt>
      <trkpt lat="49.18096" lon="1.99638">
        <ele>134</ele>
        <time>2020-06-21T09:44:09Z</time>
      </trkpt>
      <trkpt lat="49.18086" lon="1.99647">
        <ele>135</ele>
        <time>2020-06-21T09:44:19Z</time>
      </trkpt>
      <trkpt lat="49.18078" lon="1.99656">
        <ele>136</ele>
        <time>2020-06-21T09:44:26Z</time>
      </trkpt>
      <trkpt lat="49.1807" lon="1.99666">
        <ele>136</ele>
        <time>2020-06-21T09:44:33Z</time>
      </trkpt>
      <trkpt lat="49.1806" lon="1.9967">
        <ele>137</ele>
        <time>2020-06-21T09:44:40Z</time>
      </trkpt>
      <trkpt lat="49.18052" lon="1.99678">
        <ele>137</ele>
        <time>2020-06-21T09:44:46Z</time>
      </trkpt>
      <trkpt lat="49.18043" lon="1.99685">
        <ele>137</ele>
        <time>2020-06-21T09:44:52Z</time>
      </trkpt>
      <trkpt lat="49.18035" lon="1.99692">
        <ele>138</ele>
        <time>2020-06-21T09:45:01Z</time>
      </trkpt>
      <trkpt lat="49.18028" lon="1.99701">
        <ele>138</ele>
        <time>2020-06-21T09:45:13Z</time>
      </trkpt>
      <trkpt lat="49.18019" lon="1.9971">
        <ele>138</ele>
        <time>2020-06-21T09:45:26Z</time>
      </trkpt>
      <trkpt lat="49.18012" lon="1.99721">
        <ele>138</ele>
        <time>2020-06-21T09:45:33Z</time>
      </trkpt>
      <trkpt lat="49.18005" lon="1.99734">
        <ele>139</ele>
        <time>2020-06-21T09:45:39Z</time>
      </trkpt>
      <trkpt lat="49.17997" lon="1.99746">
        <ele>140</ele>
        <time>2020-06-21T09:45:45Z</time>
      </trkpt>
      <trkpt lat="49.17989" lon="1.99756">
        <ele>142</ele>
        <time>2020-06-21T09:45:52Z</time>
      </trkpt>
      <trkpt lat="49.17982" lon="1.99767">
        <ele>142</ele>
        <time>2020-06-21T09:45:59Z</time>
      </trkpt>
      <trkpt lat="49.17974" lon="1.99776">
        <ele>143</ele>
        <time>2020-06-21T09:46:07Z</time>
      </trkpt>
      <trkpt lat="49.17967" lon="1.99787">
        <ele>144</ele>
        <time>2020-06-21T09:46:15Z</time>
      </trkpt>
      <trkpt lat="49.17959" lon="1.99795">
        <ele>144</ele>
        <time>2020-06-21T09:46:25Z</time>
      </trkpt>
      <trkpt lat="49.17951" lon="1.99807">
        <ele>145</ele>
        <time>2020-06-21T09:46:32Z</time>
      </trkpt>
      <trkpt lat="49.17944" lon="1.99819">
        <ele>146</ele>
        <time>2020-06-21T09:46:38Z</time>
      </trkpt>
      <trkpt lat="49.17938" lon="1.9983">
        <ele>148</ele>
        <time>2020-06-21T09:46:44Z</time>
      </trkpt>
      <trkpt lat="49.1793" lon="1.99843">
        <ele>150</ele>
        <time>2020-06-21T09:46:52Z</time>
      </trkpt>
      <trkpt lat="49.17922" lon="1.99851">
        <ele>150</ele>
        <time>2020-06-21T09:47:00Z</time>
      </trkpt>
      <trkpt lat="49.17913" lon="1.99859">
        <ele>157</ele>
        <time>2020-06-21T09:47:08Z</time>
      </trkpt>
      <trkpt lat="49.17904" lon="1.99865">
        <ele>158</ele>
        <time>2020-06-21T09:47:15Z</time>
      </trkpt>
      <trkpt lat="49.17895" lon="1.99872">
        <ele>159</ele>
        <time>2020-06-21T09:47:22Z</time>
      </trkpt>
      <trkpt lat="49.17886" lon="1.99881">
        <ele>160</ele>
        <time>2020-06-21T09:47:31Z</time>
      </trkpt>
      <trkpt lat="49.17878" lon="1.99889">
        <ele>160</ele>
        <time>2020-06-21T09:47:43Z</time>
      </trkpt>
      <trkpt lat="49.1787" lon="1.99898">
        <ele>161</ele>
        <time>2020-06-21T09:47:50Z</time>
      </trkpt>
      <trkpt lat="49.17861" lon="1.99907">
        <ele>163</ele>
        <time>2020-06-21T09:47:59Z</time>
      </trkpt>
      <trkpt lat="49.17851" lon="1.99912">
        <ele>164</ele>
        <time>2020-06-21T09:48:06Z</time>
      </trkpt>
      <trkpt lat="49.1784" lon="1.99921">
        <ele>167</ele>
        <time>2020-06-21T09:48:12Z</time>
      </trkpt>
      <trkpt lat="49.17831" lon="1.9993">
        <ele>171</ele>
        <time>2020-06-21T09:48:18Z</time>
      </trkpt>
      <trkpt lat="49.17822" lon="1.9994">
        <ele>171</ele>
        <time>2020-06-21T09:48:24Z</time>
      </trkpt>
      <trkpt lat="49.17814" lon="1.9995">
        <ele>172</ele>
        <time>2020-06-21T09:48:30Z</time>
      </trkpt>
      <trkpt lat="49.17804" lon="1.99957">
        <ele>172</ele>
        <time>2020-06-21T09:48:39Z</time>
      </trkpt>
      <trkpt lat="49.17796" lon="1.99965">
        <ele>173</ele>
        <time>2020-06-21T09:48:48Z</time>
      </trkpt>
      <trkpt lat="49.17789" lon="1.99978">
        <ele>173</ele>
        <time>2020-06-21T09:48:58Z</time>
      </trkpt>
      <trkpt lat="49.17785" lon="1.99993">
        <ele>173</ele>
        <time>2020-06-21T09:49:08Z</time>
      </trkpt>
      <trkpt lat="49.17781" lon="2.00009">
        <ele>172</ele>
        <time>2020-06-21T09:49:16Z</time>
      </trkpt>
      <trkpt lat="49.17777" lon="2.00025">
        <ele>172</ele>
        <time>2020-06-21T09:49:22Z</time>
      </trkpt>
      <trkpt lat="49.17772" lon="2.00041">
        <ele>172</ele>
        <time>2020-06-21T09:49:28Z</time>
      </trkpt>
      <trkpt lat="49.17769" lon="2.00056">
        <ele>172</ele>
        <time>2020-06-21T09:49:34Z</time>
      </trkpt>
      <trkpt lat="49.17767" lon="2.00071">
        <ele>172</ele>
        <time>2020-06-21T09:49:40Z</time>
      </trkpt>
      <trkpt lat="49.17764" lon="2.00087">
        <ele>172</ele>
        <time>2020-06-21T09:49:46Z</time>
      </trkpt>
      <trkpt lat="49.1776" lon="2.00101">
        <ele>172</ele>
        <time>2020-06-21T09:49:54Z</time>
      </trkpt>
      <trkpt lat="49.17752" lon="2.00111">
        <ele>172</ele>
        <time>2020-06-21T09:50:06Z</time>
      </trkpt>
      <trkpt lat="49.17743" lon="2.00119">
        <ele>179</ele>
        <time>2020-06-21T09:50:14Z</time>
      </trkpt>
      <trkpt lat="49.17733" lon="2.00123">
        <ele>180</ele>
        <time>2020-06-21T09:50:22Z</time>
      </trkpt>
      <trkpt lat="49.17724" lon="2.00118">
        <ele>180</ele>
        <time>2020-06-21T09:50:32Z</time>
      </trkpt>
      <trkpt lat="49.17717" lon="2.00109">
        <ele>180</ele>
        <time>2020-06-21T09:50:41Z</time>
      </trkpt>
      <trkpt lat="49.17713" lon="2.00096">
        <ele>180</ele>
        <time>2020-06-21T09:50:52Z</time>
      </trkpt>
      <trkpt lat="49.17714" lon="2.00082">
        <ele>179</ele>
        <time>2020-06-21T09:51:02Z</time>
      </trkpt>
      <trkpt lat="49.17714" lon="2.00067">
        <ele>179</ele>
        <time>2020-06-21T09:51:09Z</time>
      </trkpt>
      <trkpt lat="49.17713" lon="2.00052">
        <ele>180</ele>
        <time>2020-06-21T09:51:16Z</time>
      </trkpt>
      <trkpt lat="49.17713" lon="2.00036">
        <ele>180</ele>
        <time>2020-06-21T09:51:24Z</time>
      </trkpt>
      <trkpt lat="49.17714" lon="2.0002">
        <ele>180</ele>
        <time>2020-06-21T09:51:32Z</time>
      </trkpt>
      <trkpt lat="49.17715" lon="2.00005">
        <ele>180</ele>
        <time>2020-06-21T09:51:41Z</time>
      </trkpt>
      <trkpt lat="49.17717" lon="1.99989">
        <ele>181</ele>
        <time>2020-06-21T09:51:49Z</time>
      </trkpt>
      <trkpt lat="49.1772" lon="1.99974">
        <ele>181</ele>
        <time>2020-06-21T09:51:58Z</time>
      </trkpt>
      <trkpt lat="49.1772" lon="1.99959">
        <ele>181</ele>
        <time>2020-06-21T09:52:06Z</time>
      </trkpt>
      <trkpt lat="49.17718" lon="1.99942">
        <ele>181</ele>
        <time>2020-06-21T09:52:13Z</time>
      </trkpt>
      <trkpt lat="49.17713" lon="1.99927">
        <ele>182</ele>
        <time>2020-06-21T09:52:19Z</time>
      </trkpt>
      <trkpt lat="49.17706" lon="1.99914">
        <ele>179</ele>
        <time>2020-06-21T09:52:25Z</time>
      </trkpt>
      <trkpt lat="49.17697" lon="1.99908">
        <ele>180</ele>
        <time>2020-06-21T09:52:32Z</time>
      </trkpt>
      <trkpt lat="49.17687" lon="1.99909">
        <ele>181</ele>
        <time>2020-06-21T09:52:38Z</time>
      </trkpt>
      <trkpt lat="49.17676" lon="1.99909">
        <ele>183</ele>
        <time>2020-06-21T09:52:44Z</time>
      </trkpt>
      <trkpt lat="49.17666" lon="1.99908">
        <ele>185</ele>
        <time>2020-06-21T09:52:52Z</time>
      </trkpt>
      <trkpt lat="49.17656" lon="1.99905">
        <ele>184</ele>
        <time>2020-06-21T09:53:03Z</time>
      </trkpt>
      <trkpt lat="49.17647" lon="1.99901">
        <ele>184</ele>
        <time>2020-06-21T09:53:11Z</time>
      </trkpt>
      <trkpt lat="49.17637" lon="1.99902">
        <ele>184</ele>
        <time>2020-06-21T09:53:17Z</time>
      </trkpt>
      <trkpt lat="49.17626" lon="1.99905">
        <ele>184</ele>
        <time>2020-06-21T09:53:23Z</time>
      </trkpt>
      <trkpt lat="49.17615" lon="1.99907">
        <ele>185</ele>
        <time>2020-06-21T09:53:29Z</time>
      </trkpt>
      <trkpt lat="49.17605" lon="1.99909">
        <ele>186</ele>
        <time>2020-06-21T09:53:35Z</time>
      </trkpt>
      <trkpt lat="49.17595" lon="1.99909">
        <ele>187</ele>
        <time>2020-06-21T09:53:41Z</time>
      </trkpt>
      <trkpt lat="49.17585" lon="1.99909">
        <ele>189</ele>
        <time>2020-06-21T09:53:52Z</time>
      </trkpt>
      <trkpt lat="49.17575" lon="1.99908">
        <ele>190</ele>
        <time>2020-06-21T09:54:04Z</time>
      </trkpt>
      <trkpt lat="49.17565" lon="1.99907">
        <ele>190</ele>
        <time>2020-06-21T09:54:12Z</time>
      </trkpt>
      <trkpt lat="49.17556" lon="1.99903">
        <ele>190</ele>
        <time>2020-06-21T09:54:21Z</time>
      </trkpt>
      <trkpt lat="49.17547" lon="1.99897">
        <ele>190</ele>
        <time>2020-06-21T09:54:30Z</time>
      </trkpt>
      <trkpt lat="49.17538" lon="1.99891">
        <ele>191</ele>
        <time>2020-06-21T09:54:38Z</time>
      </trkpt>
      <trkpt lat="49.17527" lon="1.99887">
        <ele>191</ele>
        <time>2020-06-21T09:54:46Z</time>
      </trkpt>
      <trkpt lat="49.17517" lon="1.99887">
        <ele>192</ele>
        <time>2020-06-21T09:54:55Z</time>
      </trkpt>
      <trkpt lat="49.17508" lon="1.99887">
        <ele>192</ele>
        <time>2020-06-21T09:55:16Z</time>
      </trkpt>
      <trkpt lat="49.175" lon="1.9988">
        <ele>193</ele>
        <time>2020-06-21T09:57:27Z</time>
      </trkpt>
      <trkpt lat="49.17491" lon="1.99879">
        <ele>193</ele>
        <time>2020-06-21T09:57:46Z</time>
      </trkpt>
      <trkpt lat="49.17481" lon="1.99884">
        <ele>193</ele>
        <time>2020-06-21T09:57:58Z</time>
      </trkpt>
      <trkpt lat="49.17473" lon="1.99894">
        <ele>193</ele>
        <time>2020-06-21T09:58:05Z</time>
      </trkpt>
      <trkpt lat="49.17465" lon="1.99904">
        <ele>194</ele>
        <time>2020-06-21T09:58:11Z</time>
      </trkpt>
      <trkpt lat="49.17457" lon="1.99915">
        <ele>193</ele>
        <time>2020-06-21T09:58:17Z</time>
      </trkpt>
      <trkpt lat="49.17449" lon="1.99928">
        <ele>199</ele>
        <time>2020-06-21T09:58:23Z</time>
      </trkpt>
      <trkpt lat="49.17442" lon="1.99937">
        <ele>199</ele>
        <time>2020-06-21T09:58:29Z</time>
      </trkpt>
      <trkpt lat="49.17435" lon="1.99948">
        <ele>199</ele>
        <time>2020-06-21T09:58:35Z</time>
      </trkpt>
      <trkpt lat="49.17427" lon="1.9996">
        <ele>199</ele>
        <time>2020-06-21T09:58:42Z</time>
      </trkpt>
      <trkpt lat="49.17418" lon="1.99973">
        <ele>200</ele>
        <time>2020-06-21T09:58:48Z</time>
      </trkpt>
      <trkpt lat="49.1741" lon="1.99985">
        <ele>196</ele>
        <time>2020-06-21T09:58:54Z</time>
      </trkpt>
      <trkpt lat="49.17403" lon="1.99997">
        <ele>196</ele>
        <time>2020-06-21T09:59:00Z</time>
      </trkpt>
      <trkpt lat="49.17395" lon="2.00009">
        <ele>197</ele>
        <time>2020-06-21T09:59:06Z</time>
      </trkpt>
      <trkpt lat="49.17388" lon="2.0002">
        <ele>197</ele>
        <time>2020-06-21T09:59:12Z</time>
      </trkpt>
      <trkpt lat="49.17382" lon="2.00031">
        <ele>197</ele>
        <time>2020-06-21T09:59:18Z</time>
      </trkpt>
      <trkpt lat="49.17379" lon="2.00044">
        <ele>197</ele>
        <time>2020-06-21T09:59:25Z</time>
      </trkpt>
      <trkpt lat="49.17372" lon="2.00058">
        <ele>196</ele>
        <time>2020-06-21T09:59:33Z</time>
      </trkpt>
      <trkpt lat="49.17366" lon="2.00068">
        <ele>196</ele>
        <time>2020-06-21T09:59:39Z</time>
      </trkpt>
      <trkpt lat="49.17357" lon="2.00077">
        <ele>195</ele>
        <time>2020-06-21T09:59:49Z</time>
      </trkpt>
      <trkpt lat="49.17348" lon="2.00082">
        <ele>194</ele>
        <time>2020-06-21T09:59:57Z</time>
      </trkpt>
      <trkpt lat="49.1734" lon="2.00091">
        <ele>194</ele>
        <time>2020-06-21T10:00:06Z</time>
      </trkpt>
      <trkpt lat="49.17333" lon="2.00102">
        <ele>190</ele>
        <time>2020-06-21T10:00:14Z</time>
      </trkpt>
      <trkpt lat="49.17323" lon="2.00109">
        <ele>189</ele>
        <time>2020-06-21T10:00:23Z</time>
      </trkpt>
      <trkpt lat="49.17313" lon="2.00114">
        <ele>189</ele>
        <time>2020-06-21T10:00:31Z</time>
      </trkpt>
      <trkpt lat="49.17303" lon="2.00112">
        <ele>188</ele>
        <time>2020-06-21T10:00:39Z</time>
      </trkpt>
      <trkpt lat="49.17294" lon="2.00114">
        <ele>187</ele>
        <time>2020-06-21T10:00:48Z</time>
      </trkpt>
      <trkpt lat="49.17283" lon="2.00119">
        <ele>187</ele>
        <time>2020-06-21T10:00:58Z</time>
      </trkpt>
      <trkpt lat="49.17274" lon="2.00126">
        <ele>186</ele>
        <time>2020-06-21T10:01:08Z</time>
      </trkpt>
      <trkpt lat="49.17265" lon="2.00132">
        <ele>186</ele>
        <time>2020-06-21T10:01:17Z</time>
      </trkpt>
      <trkpt lat="49.17253" lon="2.00135">
        <ele>185</ele>
        <time>2020-06-21T10:01:24Z</time>
      </trkpt>
      <trkpt lat="49.17243" lon="2.00138">
        <ele>180</ele>
        <time>2020-06-21T10:01:30Z</time>
      </trkpt>
      <trkpt lat="49.17233" lon="2.00139">
        <ele>180</ele>
        <time>2020-06-21T10:01:36Z</time>
      </trkpt>
      <trkpt lat="49.17222" lon="2.00143">
        <ele>179</ele>
        <time>2020-06-21T10:01:43Z</time>
      </trkpt>
      <trkpt lat="49.17213" lon="2.00149">
        <ele>179</ele>
        <time>2020-06-21T10:01:51Z</time>
      </trkpt>
      <trkpt lat="49.17204" lon="2.00152">
        <ele>178</ele>
        <time>2020-06-21T10:01:59Z</time>
      </trkpt>
      <trkpt lat="49.17195" lon="2.00156">
        <ele>178</ele>
        <time>2020-06-21T10:02:11Z</time>
      </trkpt>
      <trkpt lat="49.17186" lon="2.00163">
        <ele>178</ele>
        <time>2020-06-21T10:02:20Z</time>
      </trkpt>
      <trkpt lat="49.17177" lon="2.00172">
        <ele>179</ele>
        <time>2020-06-21T10:02:28Z</time>
      </trkpt>
      <trkpt lat="49.17169" lon="2.00181">
        <ele>179</ele>
        <time>2020-06-21T10:02:35Z</time>
      </trkpt>
      <trkpt lat="49.17162" lon="2.0019">
        <ele>175</ele>
        <time>2020-06-21T10:02:43Z</time>
      </trkpt>
      <trkpt lat="49.17154" lon="2.00203">
        <ele>175</ele>
        <time>2020-06-21T10:02:49Z</time>
      </trkpt>
      <trkpt lat="49.17145" lon="2.00214">
        <ele>175</ele>
        <time>2020-06-21T10:02:55Z</time>
      </trkpt>
      <trkpt lat="49.17137" lon="2.00226">
        <ele>175</ele>
        <time>2020-06-21T10:03:01Z</time>
      </trkpt>
      <trkpt lat="49.17128" lon="2.00238">
        <ele>174</ele>
        <time>2020-06-21T10:03:05Z</time>
      </trkpt>
      <trkpt lat="49.1712" lon="2.0025">
        <ele>174</ele>
        <time>2020-06-21T10:03:09Z</time>
      </trkpt>
      <trkpt lat="49.17111" lon="2.00262">
        <ele>174</ele>
        <time>2020-06-21T10:03:15Z</time>
      </trkpt>
      <trkpt lat="49.17102" lon="2.00267">
        <ele>173</ele>
        <time>2020-06-21T10:03:21Z</time>
      </trkpt>
      <trkpt lat="49.17091" lon="2.00274">
        <ele>173</ele>
        <time>2020-06-21T10:03:29Z</time>
      </trkpt>
      <trkpt lat="49.17082" lon="2.00282">
        <ele>168</ele>
        <time>2020-06-21T10:03:38Z</time>
      </trkpt>
      <trkpt lat="49.17073" lon="2.00292">
        <ele>168</ele>
        <time>2020-06-21T10:03:45Z</time>
      </trkpt>
      <trkpt lat="49.17063" lon="2.003">
        <ele>168</ele>
        <time>2020-06-21T10:03:51Z</time>
      </trkpt>
      <trkpt lat="49.17054" lon="2.00308">
        <ele>168</ele>
        <time>2020-06-21T10:03:58Z</time>
      </trkpt>
      <trkpt lat="49.17045" lon="2.00313">
        <ele>167</ele>
        <time>2020-06-21T10:04:04Z</time>
      </trkpt>
      <trkpt lat="49.17035" lon="2.00321">
        <ele>167</ele>
        <time>2020-06-21T10:04:12Z</time>
      </trkpt>
      <trkpt lat="49.17025" lon="2.00329">
        <ele>167</ele>
        <time>2020-06-21T10:04:19Z</time>
      </trkpt>
      <trkpt lat="49.17015" lon="2.00338">
        <ele>166</ele>
        <time>2020-06-21T10:04:26Z</time>
      </trkpt>
      <trkpt lat="49.17006" lon="2.00346">
        <ele>165</ele>
        <time>2020-06-21T10:04:32Z</time>
      </trkpt>
      <trkpt lat="49.16997" lon="2.00354">
        <ele>161</ele>
        <time>2020-06-21T10:04:38Z</time>
      </trkpt>
      <trkpt lat="49.16988" lon="2.00365">
        <ele>160</ele>
        <time>2020-06-21T10:04:44Z</time>
      </trkpt>
      <trkpt lat="49.16979" lon="2.00377">
        <ele>159</ele>
        <time>2020-06-21T10:04:49Z</time>
      </trkpt>
      <trkpt lat="49.16971" lon="2.00389">
        <ele>158</ele>
        <time>2020-06-21T10:04:53Z</time>
      </trkpt>
      <trkpt lat="49.16963" lon="2.004">
        <ele>157</ele>
        <time>2020-06-21T10:04:57Z</time>
      </trkpt>
      <trkpt lat="49.16955" lon="2.00409">
        <ele>157</ele>
        <time>2020-06-21T10:05:01Z</time>
      </trkpt>
      <trkpt lat="49.16946" lon="2.00419">
        <ele>154</ele>
        <time>2020-06-21T10:05:06Z</time>
      </trkpt>
      <trkpt lat="49.16936" lon="2.00427">
        <ele>153</ele>
        <time>2020-06-21T10:05:12Z</time>
      </trkpt>
      <trkpt lat="49.16927" lon="2.00431">
        <ele>153</ele>
        <time>2020-06-21T10:05:19Z</time>
      </trkpt>
      <trkpt lat="49.16917" lon="2.00433">
        <ele>153</ele>
        <time>2020-06-21T10:05:28Z</time>
      </trkpt>
      <trkpt lat="49.16908" lon="2.00436">
        <ele>150</ele>
        <time>2020-06-21T10:05:36Z</time>
      </trkpt>
      <trkpt lat="49.16899" lon="2.0044">
        <ele>149</ele>
        <time>2020-06-21T10:05:44Z</time>
      </trkpt>
      <trkpt lat="49.16889" lon="2.00448">
        <ele>148</ele>
        <time>2020-06-21T10:05:51Z</time>
      </trkpt>
      <trkpt lat="49.16878" lon="2.00458">
        <ele>148</ele>
        <time>2020-06-21T10:05:57Z</time>
      </trkpt>
      <trkpt lat="49.16867" lon="2.00468">
        <ele>147</ele>
        <time>2020-06-21T10:06:03Z</time>
      </trkpt>
      <trkpt lat="49.16859" lon="2.00475">
        <ele>147</ele>
        <time>2020-06-21T10:06:07Z</time>
      </trkpt>
      <trkpt lat="49.1685" lon="2.00482">
        <ele>146</ele>
        <time>2020-06-21T10:06:12Z</time>
      </trkpt>
      <trkpt lat="49.16841" lon="2.00489">
        <ele>146</ele>
        <time>2020-06-21T10:06:18Z</time>
      </trkpt>
      <trkpt lat="49.16832" lon="2.00495">
        <ele>144</ele>
        <time>2020-06-21T10:06:24Z</time>
      </trkpt>
      <trkpt lat="49.16823" lon="2.005">
        <ele>143</ele>
        <time>2020-06-21T10:06:30Z</time>
      </trkpt>
      <trkpt lat="49.16812" lon="2.00506">
        <ele>143</ele>
        <time>2020-06-21T10:06:38Z</time>
      </trkpt>
      <trkpt lat="49.16804" lon="2.00513">
        <ele>143</ele>
        <time>2020-06-21T10:06:44Z</time>
      </trkpt>
      <trkpt lat="49.16793" lon="2.00521">
        <ele>142</ele>
        <time>2020-06-21T10:06:50Z</time>
      </trkpt>
      <trkpt lat="49.16784" lon="2.00525">
        <ele>142</ele>
        <time>2020-06-21T10:06:56Z</time>
      </trkpt>
      <trkpt lat="49.16775" lon="2.00529">
        <ele>142</ele>
        <time>2020-06-21T10:07:02Z</time>
      </trkpt>
      <trkpt lat="49.16765" lon="2.00533">
        <ele>142</ele>
        <time>2020-06-21T10:07:09Z</time>
      </trkpt>
      <trkpt lat="49.16756" lon="2.00538">
        <ele>142</ele>
        <time>2020-06-21T10:07:17Z</time>
      </trkpt>
      <trkpt lat="49.16747" lon="2.00541">
        <ele>141</ele>
        <time>2020-06-21T10:07:24Z</time>
      </trkpt>
      <trkpt lat="49.16736" lon="2.00546">
        <ele>140</ele>
        <time>2020-06-21T10:07:30Z</time>
      </trkpt>
      <trkpt lat="49.16725" lon="2.00552">
        <ele>140</ele>
        <time>2020-06-21T10:07:36Z</time>
      </trkpt>
      <trkpt lat="49.16716" lon="2.00558">
        <ele>140</ele>
        <time>2020-06-21T10:07:42Z</time>
      </trkpt>
      <trkpt lat="49.16707" lon="2.00564">
        <ele>140</ele>
        <time>2020-06-21T10:07:48Z</time>
      </trkpt>
      <trkpt lat="49.16696" lon="2.0057">
        <ele>140</ele>
        <time>2020-06-21T10:07:54Z</time>
      </trkpt>
      <trkpt lat="49.16684" lon="2.00575">
        <ele>139</ele>
        <time>2020-06-21T10:08:00Z</time>
      </trkpt>
      <trkpt lat="49.16673" lon="2.00577">
        <ele>139</ele>
        <time>2020-06-21T10:08:06Z</time>
      </trkpt>
      <trkpt lat="49.16662" lon="2.00577">
        <ele>138</ele>
        <time>2020-06-21T10:08:12Z</time>
      </trkpt>
      <trkpt lat="49.16653" lon="2.00573">
        <ele>137</ele>
        <time>2020-06-21T10:08:18Z</time>
      </trkpt>
      <trkpt lat="49.16644" lon="2.00568">
        <ele>137</ele>
        <time>2020-06-21T10:08:24Z</time>
      </trkpt>
      <trkpt lat="49.16635" lon="2.00561">
        <ele>136</ele>
        <time>2020-06-21T10:08:31Z</time>
      </trkpt>
      <trkpt lat="49.16625" lon="2.00555">
        <ele>136</ele>
        <time>2020-06-21T10:08:39Z</time>
      </trkpt>
      <trkpt lat="49.16615" lon="2.00555">
        <ele>136</ele>
        <time>2020-06-21T10:09:07Z</time>
      </trkpt>
      <trkpt lat="49.16609" lon="2.00544">
        <ele>136</ele>
        <time>2020-06-21T10:09:29Z</time>
      </trkpt>
      <trkpt lat="49.16601" lon="2.00552">
        <ele>135</ele>
        <time>2020-06-21T10:11:43Z</time>
      </trkpt>
      <trkpt lat="49.16592" lon="2.00547">
        <ele>135</ele>
        <time>2020-06-21T10:11:51Z</time>
      </trkpt>
      <trkpt lat="49.16582" lon="2.00542">
        <ele>134</ele>
        <time>2020-06-21T10:11:59Z</time>
      </trkpt>
      <trkpt lat="49.16571" lon="2.00539">
        <ele>134</ele>
        <time>2020-06-21T10:12:07Z</time>
      </trkpt>
      <trkpt lat="49.16561" lon="2.0054">
        <ele>134</ele>
        <time>2020-06-21T10:12:14Z</time>
      </trkpt>
      <trkpt lat="49.1655" lon="2.00541">
        <ele>134</ele>
        <time>2020-06-21T10:12:21Z</time>
      </trkpt>
      <trkpt lat="49.1654" lon="2.00543">
        <ele>134</ele>
        <time>2020-06-21T10:12:28Z</time>
      </trkpt>
      <trkpt lat="49.1653" lon="2.00547">
        <ele>134</ele>
        <time>2020-06-21T10:12:34Z</time>
      </trkpt>
      <trkpt lat="49.1652" lon="2.00549">
        <ele>134</ele>
        <time>2020-06-21T10:12:41Z</time>
      </trkpt>
      <trkpt lat="49.16508" lon="2.00553">
        <ele>133</ele>
        <time>2020-06-21T10:12:49Z</time>
      </trkpt>
      <trkpt lat="49.16498" lon="2.00556">
        <ele>134</ele>
        <time>2020-06-21T10:12:57Z</time>
      </trkpt>
      <trkpt lat="49.16489" lon="2.0056">
        <ele>134</ele>
        <time>2020-06-21T10:13:03Z</time>
      </trkpt>
      <trkpt lat="49.1648" lon="2.00554">
        <ele>134</ele>
        <time>2020-06-21T10:13:11Z</time>
      </trkpt>
      <trkpt lat="49.16474" lon="2.00541">
        <ele>135</ele>
        <time>2020-06-21T10:13:19Z</time>
      </trkpt>
      <trkpt lat="49.16471" lon="2.00525">
        <ele>135</ele>
        <time>2020-06-21T10:13:26Z</time>
      </trkpt>
      <trkpt lat="49.16468" lon="2.00512">
        <ele>135</ele>
        <time>2020-06-21T10:13:32Z</time>
      </trkpt>
      <trkpt lat="49.16465" lon="2.00498">
        <ele>137</ele>
        <time>2020-06-21T10:13:38Z</time>
      </trkpt>
      <trkpt lat="49.16461" lon="2.00486">
        <ele>137</ele>
        <time>2020-06-21T10:13:45Z</time>
      </trkpt>
      <trkpt lat="49.16456" lon="2.00469">
        <ele>137</ele>
        <time>2020-06-21T10:13:53Z</time>
      </trkpt>
      <trkpt lat="49.16451" lon="2.00456">
        <ele>137</ele>
        <time>2020-06-21T10:13:59Z</time>
      </trkpt>
      <trkpt lat="49.16446" lon="2.00443">
        <ele>138</ele>
        <time>2020-06-21T10:14:07Z</time>
      </trkpt>
      <trkpt lat="49.16442" lon="2.0043">
        <ele>138</ele>
        <time>2020-06-21T10:14:13Z</time>
      </trkpt>
      <trkpt lat="49.16442" lon="2.00415">
        <ele>140</ele>
        <time>2020-06-21T10:14:21Z</time>
      </trkpt>
      <trkpt lat="49.16444" lon="2.00401">
        <ele>140</ele>
        <time>2020-06-21T10:14:29Z</time>
      </trkpt>
      <trkpt lat="49.16444" lon="2.00385">
        <ele>140</ele>
        <time>2020-06-21T10:14:35Z</time>
      </trkpt>
      <trkpt lat="49.16446" lon="2.00368">
        <ele>140</ele>
        <time>2020-06-21T10:14:43Z</time>
      </trkpt>
      <trkpt lat="49.16446" lon="2.00352">
        <ele>141</ele>
        <time>2020-06-21T10:14:50Z</time>
      </trkpt>
      <trkpt lat="49.16445" lon="2.00337">
        <ele>141</ele>
        <time>2020-06-21T10:14:56Z</time>
      </trkpt>
      <trkpt lat="49.16443" lon="2.00322">
        <ele>143</ele>
        <time>2020-06-21T10:15:04Z</time>
      </trkpt>
      <trkpt lat="49.1644" lon="2.00306">
        <ele>143</ele>
        <time>2020-06-21T10:15:12Z</time>
      </trkpt>
      <trkpt lat="49.16436" lon="2.00293">
        <ele>143</ele>
        <time>2020-06-21T10:15:18Z</time>
      </trkpt>
      <trkpt lat="49.16433" lon="2.0028">
        <ele>144</ele>
        <time>2020-06-21T10:15:24Z</time>
      </trkpt>
      <trkpt lat="49.16428" lon="2.00267">
        <ele>144</ele>
        <time>2020-06-21T10:15:30Z</time>
      </trkpt>
      <trkpt lat="49.16423" lon="2.00254">
        <ele>145</ele>
        <time>2020-06-21T10:15:36Z</time>
      </trkpt>
      <trkpt lat="49.16419" lon="2.0024">
        <ele>146</ele>
        <time>2020-06-21T10:15:43Z</time>
      </trkpt>
      <trkpt lat="49.16415" lon="2.00226">
        <ele>148</ele>
        <time>2020-06-21T10:15:51Z</time>
      </trkpt>
      <trkpt lat="49.1641" lon="2.00212">
        <ele>149</ele>
        <time>2020-06-21T10:15:59Z</time>
      </trkpt>
      <trkpt lat="49.16405" lon="2.00197">
        <ele>149</ele>
        <time>2020-06-21T10:16:07Z</time>
      </trkpt>
      <trkpt lat="49.164" lon="2.00181">
        <ele>149</ele>
        <time>2020-06-21T10:16:15Z</time>
      </trkpt>
      <trkpt lat="49.16396" lon="2.00166">
        <ele>150</ele>
        <time>2020-06-21T10:16:21Z</time>
      </trkpt>
      <trkpt lat="49.16393" lon="2.00152">
        <ele>150</ele>
        <time>2020-06-21T10:16:27Z</time>
      </trkpt>
      <trkpt lat="49.16389" lon="2.00137">
        <ele>151</ele>
        <time>2020-06-21T10:16:35Z</time>
      </trkpt>
      <trkpt lat="49.16386" lon="2.00122">
        <ele>151</ele>
        <time>2020-06-21T10:16:43Z</time>
      </trkpt>
      <trkpt lat="49.16383" lon="2.00105">
        <ele>151</ele>
        <time>2020-06-21T10:16:51Z</time>
      </trkpt>
      <trkpt lat="49.16379" lon="2.0009">
        <ele>151</ele>
        <time>2020-06-21T10:16:59Z</time>
      </trkpt>
      <trkpt lat="49.16375" lon="2.00074">
        <ele>153</ele>
        <time>2020-06-21T10:17:07Z</time>
      </trkpt>
      <trkpt lat="49.16372" lon="2.00058">
        <ele>153</ele>
        <time>2020-06-21T10:17:15Z</time>
      </trkpt>
      <trkpt lat="49.16369" lon="2.00041">
        <ele>154</ele>
        <time>2020-06-21T10:17:23Z</time>
      </trkpt>
      <trkpt lat="49.16364" lon="2.00025">
        <ele>154</ele>
        <time>2020-06-21T10:17:31Z</time>
      </trkpt>
      <trkpt lat="49.1636" lon="2.00009">
        <ele>154</ele>
        <time>2020-06-21T10:17:39Z</time>
      </trkpt>
      <trkpt lat="49.16357" lon="1.99992">
        <ele>156</ele>
        <time>2020-06-21T10:17:47Z</time>
      </trkpt>
      <trkpt lat="49.16353" lon="1.9998">
        <ele>156</ele>
        <time>2020-06-21T10:18:02Z</time>
      </trkpt>
      <trkpt lat="49.16344" lon="1.99975">
        <ele>157</ele>
        <time>2020-06-21T10:18:12Z</time>
      </trkpt>
      <trkpt lat="49.16334" lon="1.99977">
        <ele>157</ele>
        <time>2020-06-21T10:18:20Z</time>
      </trkpt>
      <trkpt lat="49.16324" lon="1.99983">
        <ele>159</ele>
        <time>2020-06-21T10:18:28Z</time>
      </trkpt>
      <trkpt lat="49.16316" lon="1.99992">
        <ele>159</ele>
        <time>2020-06-21T10:18:36Z</time>
      </trkpt>
      <trkpt lat="49.16308" lon="2">
        <ele>160</ele>
        <time>2020-06-21T10:18:42Z</time>
      </trkpt>
      <trkpt lat="49.16299" lon="2.0001">
        <ele>159</ele>
        <time>2020-06-21T10:18:50Z</time>
      </trkpt>
      <trkpt lat="49.16291" lon="2.00018">
        <ele>160</ele>
        <time>2020-06-21T10:18:56Z</time>
      </trkpt>
      <trkpt lat="49.16283" lon="2.00029">
        <ele>160</ele>
        <time>2020-06-21T10:19:04Z</time>
      </trkpt>
      <trkpt lat="49.16275" lon="2.00037">
        <ele>160</ele>
        <time>2020-06-21T10:19:14Z</time>
      </trkpt>
      <trkpt lat="49.16266" lon="2.00045">
        <ele>161</ele>
        <time>2020-06-21T10:19:23Z</time>
      </trkpt>
      <trkpt lat="49.16256" lon="2.00052">
        <ele>161</ele>
        <time>2020-06-21T10:19:31Z</time>
      </trkpt>
      <trkpt lat="49.16247" lon="2.00058">
        <ele>166</ele>
        <time>2020-06-21T10:19:44Z</time>
      </trkpt>
      <trkpt lat="49.16236" lon="2.00062">
        <ele>166</ele>
        <time>2020-06-21T10:19:54Z</time>
      </trkpt>
      <trkpt lat="49.16225" lon="2.00067">
        <ele>166</ele>
        <time>2020-06-21T10:20:02Z</time>
      </trkpt>
      <trkpt lat="49.16216" lon="2.00072">
        <ele>167</ele>
        <time>2020-06-21T10:20:09Z</time>
      </trkpt>
      <trkpt lat="49.16206" lon="2.00076">
        <ele>167</ele>
        <time>2020-06-21T10:20:16Z</time>
      </trkpt>
      <trkpt lat="49.16196" lon="2.00082">
        <ele>168</ele>
        <time>2020-06-21T10:20:24Z</time>
      </trkpt>
      <trkpt lat="49.16187" lon="2.0008">
        <ele>168</ele>
        <time>2020-06-21T10:20:38Z</time>
      </trkpt>
      <trkpt lat="49.16176" lon="2.00081">
        <ele>168</ele>
        <time>2020-06-21T10:20:50Z</time>
      </trkpt>
      <trkpt lat="49.16165" lon="2.00086">
        <ele>168</ele>
        <time>2020-06-21T10:20:56Z</time>
      </trkpt>
      <trkpt lat="49.16155" lon="2.00089">
        <ele>167</ele>
        <time>2020-06-21T10:21:04Z</time>
      </trkpt>
      <trkpt lat="49.16144" lon="2.00092">
        <ele>166</ele>
        <time>2020-06-21T10:21:12Z</time>
      </trkpt>
      <trkpt lat="49.16134" lon="2.00094">
        <ele>166</ele>
        <time>2020-06-21T10:21:21Z</time>
      </trkpt>
      <trkpt lat="49.16125" lon="2.00093">
        <ele>166</ele>
        <time>2020-06-21T10:21:31Z</time>
      </trkpt>
      <trkpt lat="49.16115" lon="2.00092">
        <ele>166</ele>
        <time>2020-06-21T10:21:44Z</time>
      </trkpt>
      <trkpt lat="49.16106" lon="2.00098">
        <ele>166</ele>
        <time>2020-06-21T10:21:53Z</time>
      </trkpt>
      <trkpt lat="49.16096" lon="2.00106">
        <ele>165</ele>
        <time>2020-06-21T10:21:59Z</time>
      </trkpt>
      <trkpt lat="49.16084" lon="2.00114">
        <ele>165</ele>
        <time>2020-06-21T10:22:05Z</time>
      </trkpt>
      <trkpt lat="49.16074" lon="2.0012">
        <ele>160</ele>
        <time>2020-06-21T10:22:10Z</time>
      </trkpt>
      <trkpt lat="49.16064" lon="2.00129">
        <ele>159</ele>
        <time>2020-06-21T10:22:15Z</time>
      </trkpt>
      <trkpt lat="49.16056" lon="2.00137">
        <ele>159</ele>
        <time>2020-06-21T10:22:19Z</time>
      </trkpt>
      <trkpt lat="49.16045" lon="2.00142">
        <ele>158</ele>
        <time>2020-06-21T10:22:24Z</time>
      </trkpt>
      <trkpt lat="49.16035" lon="2.00143">
        <ele>157</ele>
        <time>2020-06-21T10:22:29Z</time>
      </trkpt>
      <trkpt lat="49.16024" lon="2.0014">
        <ele>156</ele>
        <time>2020-06-21T10:22:35Z</time>
      </trkpt>
      <trkpt lat="49.16014" lon="2.00137">
        <ele>156</ele>
        <time>2020-06-21T10:22:41Z</time>
      </trkpt>
      <trkpt lat="49.16005" lon="2.00135">
        <ele>155</ele>
        <time>2020-06-21T10:22:48Z</time>
      </trkpt>
      <trkpt lat="49.15996" lon="2.0014">
        <ele>151</ele>
        <time>2020-06-21T10:23:24Z</time>
      </trkpt>
      <trkpt lat="49.15985" lon="2.00137">
        <ele>151</ele>
        <time>2020-06-21T10:23:32Z</time>
      </trkpt>
      <trkpt lat="49.15974" lon="2.00135">
        <ele>151</ele>
        <time>2020-06-21T10:23:40Z</time>
      </trkpt>
      <trkpt lat="49.15964" lon="2.00138">
        <ele>151</ele>
        <time>2020-06-21T10:23:47Z</time>
      </trkpt>
      <trkpt lat="49.15954" lon="2.00144">
        <ele>151</ele>
        <time>2020-06-21T10:23:53Z</time>
      </trkpt>
      <trkpt lat="49.15944" lon="2.0015">
        <ele>151</ele>
        <time>2020-06-21T10:24:00Z</time>
      </trkpt>
      <trkpt lat="49.15934" lon="2.00155">
        <ele>150</ele>
        <time>2020-06-21T10:24:08Z</time>
      </trkpt>
      <trkpt lat="49.15924" lon="2.00159">
        <ele>150</ele>
        <time>2020-06-21T10:24:15Z</time>
      </trkpt>
      <trkpt lat="49.15915" lon="2.00163">
        <ele>150</ele>
        <time>2020-06-21T10:24:21Z</time>
      </trkpt>
      <trkpt lat="49.15905" lon="2.00168">
        <ele>149</ele>
        <time>2020-06-21T10:24:29Z</time>
      </trkpt>
      <trkpt lat="49.15895" lon="2.00174">
        <ele>150</ele>
        <time>2020-06-21T10:24:36Z</time>
      </trkpt>
      <trkpt lat="49.15885" lon="2.0018">
        <ele>150</ele>
        <time>2020-06-21T10:24:42Z</time>
      </trkpt>
      <trkpt lat="49.15876" lon="2.00187">
        <ele>150</ele>
        <time>2020-06-21T10:24:48Z</time>
      </trkpt>
      <trkpt lat="49.15867" lon="2.00196">
        <ele>150</ele>
        <time>2020-06-21T10:24:55Z</time>
      </trkpt>
      <trkpt lat="49.15859" lon="2.00203">
        <ele>151</ele>
        <time>2020-06-21T10:25:01Z</time>
      </trkpt>
      <trkpt lat="49.15849" lon="2.00211">
        <ele>150</ele>
        <time>2020-06-21T10:25:09Z</time>
      </trkpt>
      <trkpt lat="49.15841" lon="2.00218">
        <ele>150</ele>
        <time>2020-06-21T10:25:19Z</time>
      </trkpt>
      <trkpt lat="49.15833" lon="2.00229">
        <ele>153</ele>
        <time>2020-06-21T10:25:26Z</time>
      </trkpt>
      <trkpt lat="49.15826" lon="2.00239">
        <ele>152</ele>
        <time>2020-06-21T10:25:33Z</time>
      </trkpt>
      <trkpt lat="49.15817" lon="2.00251">
        <ele>151</ele>
        <time>2020-06-21T10:25:39Z</time>
      </trkpt>
      <trkpt lat="49.15807" lon="2.00265">
        <ele>152</ele>
        <time>2020-06-21T10:25:45Z</time>
      </trkpt>
      <trkpt lat="49.158" lon="2.00279">
        <ele>152</ele>
        <time>2020-06-21T10:25:51Z</time>
      </trkpt>
      <trkpt lat="49.15793" lon="2.0029">
        <ele>152</ele>
        <time>2020-06-21T10:25:58Z</time>
      </trkpt>
      <trkpt lat="49.15787" lon="2.00305">
        <ele>152</ele>
        <time>2020-06-21T10:26:05Z</time>
      </trkpt>
      <trkpt lat="49.15781" lon="2.00317">
        <ele>153</ele>
        <time>2020-06-21T10:26:11Z</time>
      </trkpt>
      <trkpt lat="49.15776" lon="2.0033">
        <ele>153</ele>
        <time>2020-06-21T10:26:20Z</time>
      </trkpt>
      <trkpt lat="49.15768" lon="2.00342">
        <ele>151</ele>
        <time>2020-06-21T10:26:30Z</time>
      </trkpt>
      <trkpt lat="49.15761" lon="2.00354">
        <ele>150</ele>
        <time>2020-06-21T10:26:36Z</time>
      </trkpt>
      <trkpt lat="49.15753" lon="2.00368">
        <ele>149</ele>
        <time>2020-06-21T10:26:42Z</time>
      </trkpt>
      <trkpt lat="49.15747" lon="2.00381">
        <ele>153</ele>
        <time>2020-06-21T10:26:48Z</time>
      </trkpt>
      <trkpt lat="49.15739" lon="2.00393">
        <ele>153</ele>
        <time>2020-06-21T10:26:55Z</time>
      </trkpt>
      <trkpt lat="49.15734" lon="2.00404">
        <ele>152</ele>
        <time>2020-06-21T10:27:02Z</time>
      </trkpt>
      <trkpt lat="49.15725" lon="2.00412">
        <ele>153</ele>
        <time>2020-06-21T10:27:11Z</time>
      </trkpt>
      <trkpt lat="49.15715" lon="2.00418">
        <ele>152</ele>
        <time>2020-06-21T10:27:19Z</time>
      </trkpt>
      <trkpt lat="49.15708" lon="2.00429">
        <ele>153</ele>
        <time>2020-06-21T10:27:26Z</time>
      </trkpt>
      <trkpt lat="49.15704" lon="2.00442">
        <ele>154</ele>
        <time>2020-06-21T10:27:32Z</time>
      </trkpt>
      <trkpt lat="49.15698" lon="2.00458">
        <ele>154</ele>
        <time>2020-06-21T10:27:38Z</time>
      </trkpt>
      <trkpt lat="49.15693" lon="2.00471">
        <ele>155</ele>
        <time>2020-06-21T10:27:44Z</time>
      </trkpt>
      <trkpt lat="49.15688" lon="2.00485">
        <ele>156</ele>
        <time>2020-06-21T10:27:52Z</time>
      </trkpt>
      <trkpt lat="49.15685" lon="2.005">
        <ele>157</ele>
        <time>2020-06-21T10:28:00Z</time>
      </trkpt>
      <trkpt lat="49.15682" lon="2.00514">
        <ele>157</ele>
        <time>2020-06-21T10:28:06Z</time>
      </trkpt>
      <trkpt lat="49.15679" lon="2.00528">
        <ele>156</ele>
        <time>2020-06-21T10:28:12Z</time>
      </trkpt>
      <trkpt lat="49.15678" lon="2.00544">
        <ele>156</ele>
        <time>2020-06-21T10:28:21Z</time>
      </trkpt>
      <trkpt lat="49.15676" lon="2.00559">
        <ele>156</ele>
        <time>2020-06-21T10:28:30Z</time>
      </trkpt>
      <trkpt lat="49.15673" lon="2.00573">
        <ele>158</ele>
        <time>2020-06-21T10:28:36Z</time>
      </trkpt>
      <trkpt lat="49.15669" lon="2.00586">
        <ele>160</ele>
        <time>2020-06-21T10:28:42Z</time>
      </trkpt>
      <trkpt lat="49.15663" lon="2.006">
        <ele>162</ele>
        <time>2020-06-21T10:28:48Z</time>
      </trkpt>
      <trkpt lat="49.15656" lon="2.0061">
        <ele>163</ele>
        <time>2020-06-21T10:28:54Z</time>
      </trkpt>
      <trkpt lat="49.15648" lon="2.0062">
        <ele>163</ele>
        <time>2020-06-21T10:29:01Z</time>
      </trkpt>
      <trkpt lat="49.15638" lon="2.00624">
        <ele>163</ele>
        <time>2020-06-21T10:29:09Z</time>
      </trkpt>
      <trkpt lat="49.15629" lon="2.00628">
        <ele>164</ele>
        <time>2020-06-21T10:29:18Z</time>
      </trkpt>
      <trkpt lat="49.15619" lon="2.00633">
        <ele>164</ele>
        <time>2020-06-21T10:29:25Z</time>
      </trkpt>
      <trkpt lat="49.1561" lon="2.00637">
        <ele>164</ele>
        <time>2020-06-21T10:29:32Z</time>
      </trkpt>
      <trkpt lat="49.156" lon="2.00641">
        <ele>164</ele>
        <time>2020-06-21T10:29:41Z</time>
      </trkpt>
      <trkpt lat="49.15596" lon="2.00621">
        <ele>165</ele>
        <time>2020-06-21T10:30:27Z</time>
      </trkpt>
      <trkpt lat="49.15594" lon="2.00607">
        <ele>166</ele>
        <time>2020-06-21T10:30:35Z</time>
      </trkpt>
      <trkpt lat="49.15587" lon="2.00594">
        <ele>168</ele>
        <time>2020-06-21T10:30:43Z</time>
      </trkpt>
      <trkpt lat="49.15582" lon="2.00582">
        <ele>171</ele>
        <time>2020-06-21T10:30:51Z</time>
      </trkpt>
      <trkpt lat="49.15576" lon="2.00569">
        <ele>172</ele>
        <time>2020-06-21T10:31:00Z</time>
      </trkpt>
      <trkpt lat="49.15569" lon="2.00558">
        <ele>173</ele>
        <time>2020-06-21T10:31:10Z</time>
      </trkpt>
      <trkpt lat="49.15563" lon="2.00545">
        <ele>174</ele>
        <time>2020-06-21T10:31:19Z</time>
      </trkpt>
      <trkpt lat="49.15559" lon="2.00532">
        <ele>174</ele>
        <time>2020-06-21T10:31:27Z</time>
      </trkpt>
      <trkpt lat="49.15554" lon="2.00519">
        <ele>175</ele>
        <time>2020-06-21T10:31:35Z</time>
      </trkpt>
      <trkpt lat="49.15547" lon="2.0051">
        <ele>175</ele>
        <time>2020-06-21T10:31:43Z</time>
      </trkpt>
      <trkpt lat="49.15538" lon="2.00501">
        <ele>176</ele>
        <time>2020-06-21T10:31:50Z</time>
      </trkpt>
      <trkpt lat="49.1553" lon="2.0049">
        <ele>179</ele>
        <time>2020-06-21T10:31:57Z</time>
      </trkpt>
      <trkpt lat="49.15523" lon="2.00482">
        <ele>179</ele>
        <time>2020-06-21T10:32:07Z</time>
      </trkpt>
      <trkpt lat="49.15515" lon="2.00472">
        <ele>180</ele>
        <time>2020-06-21T10:32:21Z</time>
      </trkpt>
      <trkpt lat="49.15507" lon="2.00462">
        <ele>180</ele>
        <time>2020-06-21T10:32:32Z</time>
      </trkpt>
      <trkpt lat="49.15499" lon="2.00451">
        <ele>186</ele>
        <time>2020-06-21T10:32:41Z</time>
      </trkpt>
      <trkpt lat="49.15493" lon="2.0044">
        <ele>187</ele>
        <time>2020-06-21T10:32:47Z</time>
      </trkpt>
      <trkpt lat="49.15487" lon="2.00428">
        <ele>187</ele>
        <time>2020-06-21T10:32:57Z</time>
      </trkpt>
      <trkpt lat="49.15482" lon="2.00415">
        <ele>189</ele>
        <time>2020-06-21T10:33:09Z</time>
      </trkpt>
      <trkpt lat="49.15475" lon="2.00403">
        <ele>191</ele>
        <time>2020-06-21T10:33:19Z</time>
      </trkpt>
      <trkpt lat="49.1547" lon="2.00389">
        <ele>192</ele>
        <time>2020-06-21T10:33:27Z</time>
      </trkpt>
      <trkpt lat="49.15465" lon="2.00377">
        <ele>192</ele>
        <time>2020-06-21T10:33:36Z</time>
      </trkpt>
      <trkpt lat="49.15461" lon="2.0036">
        <ele>193</ele>
        <time>2020-06-21T10:33:44Z</time>
      </trkpt>
      <trkpt lat="49.15459" lon="2.00343">
        <ele>193</ele>
        <time>2020-06-21T10:33:51Z</time>
      </trkpt>
      <trkpt lat="49.15458" lon="2.00326">
        <ele>195</ele>
        <time>2020-06-21T10:33:59Z</time>
      </trkpt>
      <trkpt lat="49.15457" lon="2.0031">
        <ele>196</ele>
        <time>2020-06-21T10:34:05Z</time>
      </trkpt>
      <trkpt lat="49.15454" lon="2.00292">
        <ele>197</ele>
        <time>2020-06-21T10:34:11Z</time>
      </trkpt>
      <trkpt lat="49.1545" lon="2.00277">
        <ele>198</ele>
        <time>2020-06-21T10:34:17Z</time>
      </trkpt>
      <trkpt lat="49.15445" lon="2.00265">
        <ele>199</ele>
        <time>2020-06-21T10:34:26Z</time>
      </trkpt>
      <trkpt lat="49.15438" lon="2.00255">
        <ele>200</ele>
        <time>2020-06-21T10:34:37Z</time>
      </trkpt>
      <trkpt lat="49.1543" lon="2.00244">
        <ele>204</ele>
        <time>2020-06-21T10:34:48Z</time>
      </trkpt>
      <trkpt lat="49.15427" lon="2.00227">
        <ele>203</ele>
        <time>2020-06-21T10:34:56Z</time>
      </trkpt>
      <trkpt lat="49.15424" lon="2.00213">
        <ele>203</ele>
        <time>2020-06-21T10:35:03Z</time>
      </trkpt>
      <trkpt lat="49.15421" lon="2.00198">
        <ele>204</ele>
        <time>2020-06-21T10:35:13Z</time>
      </trkpt>
      <trkpt lat="49.15418" lon="2.00183">
        <ele>206</ele>
        <time>2020-06-21T10:35:21Z</time>
      </trkpt>
      <trkpt lat="49.15415" lon="2.00168">
        <ele>209</ele>
        <time>2020-06-21T10:35:29Z</time>
      </trkpt>
      <trkpt lat="49.1541" lon="2.00156">
        <ele>209</ele>
        <time>2020-06-21T10:35:40Z</time>
      </trkpt>
      <trkpt lat="49.15402" lon="2.00148">
        <ele>208</ele>
        <time>2020-06-21T10:36:00Z</time>
      </trkpt>
      <trkpt lat="49.15395" lon="2.00138">
        <ele>208</ele>
        <time>2020-06-21T10:36:24Z</time>
      </trkpt>
      <trkpt lat="49.15387" lon="2.0015">
        <ele>208</ele>
        <time>2020-06-21T10:37:55Z</time>
      </trkpt>
      <trkpt lat="49.1538" lon="2.0016">
        <ele>208</ele>
        <time>2020-06-21T10:38:01Z</time>
      </trkpt>
      <trkpt lat="49.15371" lon="2.00168">
        <ele>209</ele>
        <time>2020-06-21T10:38:09Z</time>
      </trkpt>
      <trkpt lat="49.15363" lon="2.00178">
        <ele>209</ele>
        <time>2020-06-21T10:38:18Z</time>
      </trkpt>
      <trkpt lat="49.15355" lon="2.00189">
        <ele>209</ele>
        <time>2020-06-21T10:38:29Z</time>
      </trkpt>
      <trkpt lat="49.15348" lon="2.00198">
        <ele>209</ele>
        <time>2020-06-21T10:38:39Z</time>
      </trkpt>
      <trkpt lat="49.1534" lon="2.00211">
        <ele>209</ele>
        <time>2020-06-21T10:38:46Z</time>
      </trkpt>
      <trkpt lat="49.15332" lon="2.00223">
        <ele>209</ele>
        <time>2020-06-21T10:38:52Z</time>
      </trkpt>
      <trkpt lat="49.15325" lon="2.00233">
        <ele>209</ele>
        <time>2020-06-21T10:38:58Z</time>
      </trkpt>
      <trkpt lat="49.15317" lon="2.00245">
        <ele>209</ele>
        <time>2020-06-21T10:39:05Z</time>
      </trkpt>
      <trkpt lat="49.1531" lon="2.00255">
        <ele>208</ele>
        <time>2020-06-21T10:39:12Z</time>
      </trkpt>
      <trkpt lat="49.15303" lon="2.00267">
        <ele>208</ele>
        <time>2020-06-21T10:39:23Z</time>
      </trkpt>
      <trkpt lat="49.15297" lon="2.00279">
        <ele>208</ele>
        <time>2020-06-21T10:39:31Z</time>
      </trkpt>
      <trkpt lat="49.15291" lon="2.00291">
        <ele>208</ele>
        <time>2020-06-21T10:39:39Z</time>
      </trkpt>
      <trkpt lat="49.15285" lon="2.00306">
        <ele>208</ele>
        <time>2020-06-21T10:39:47Z</time>
      </trkpt>
      <trkpt lat="49.15279" lon="2.0032">
        <ele>207</ele>
        <time>2020-06-21T10:39:51Z</time>
      </trkpt>
      <trkpt lat="49.15271" lon="2.00334">
        <ele>205</ele>
        <time>2020-06-21T10:39:55Z</time>
      </trkpt>
      <trkpt lat="49.15265" lon="2.00347">
        <ele>205</ele>
        <time>2020-06-21T10:40:00Z</time>
      </trkpt>
      <trkpt lat="49.1526" lon="2.0036">
        <ele>205</ele>
        <time>2020-06-21T10:40:08Z</time>
      </trkpt>
      <trkpt lat="49.15253" lon="2.00373">
        <ele>205</ele>
        <time>2020-06-21T10:40:15Z</time>
      </trkpt>
      <trkpt lat="49.15247" lon="2.00386">
        <ele>202</ele>
        <time>2020-06-21T10:40:21Z</time>
      </trkpt>
      <trkpt lat="49.15241" lon="2.00399">
        <ele>202</ele>
        <time>2020-06-21T10:40:29Z</time>
      </trkpt>
      <trkpt lat="49.15234" lon="2.00411">
        <ele>202</ele>
        <time>2020-06-21T10:40:37Z</time>
      </trkpt>
      <trkpt lat="49.15228" lon="2.00422">
        <ele>202</ele>
        <time>2020-06-21T10:40:46Z</time>
      </trkpt>
      <trkpt lat="49.15221" lon="2.00434">
        <ele>201</ele>
        <time>2020-06-21T10:40:53Z</time>
      </trkpt>
      <trkpt lat="49.15214" lon="2.00445">
        <ele>201</ele>
        <time>2020-06-21T10:41:00Z</time>
      </trkpt>
      <trkpt lat="49.15209" lon="2.00458">
        <ele>201</ele>
        <time>2020-06-21T10:41:10Z</time>
      </trkpt>
      <trkpt lat="49.15202" lon="2.00471">
        <ele>201</ele>
        <time>2020-06-21T10:41:19Z</time>
      </trkpt>
      <trkpt lat="49.15195" lon="2.00485">
        <ele>201</ele>
        <time>2020-06-21T10:41:25Z</time>
      </trkpt>
      <trkpt lat="49.15187" lon="2.00499">
        <ele>201</ele>
        <time>2020-06-21T10:41:30Z</time>
      </trkpt>
      <trkpt lat="49.1518" lon="2.0051">
        <ele>202</ele>
        <time>2020-06-21T10:41:34Z</time>
      </trkpt>
      <trkpt lat="49.15174" lon="2.00521">
        <ele>202</ele>
        <time>2020-06-21T10:41:38Z</time>
      </trkpt>
      <trkpt lat="49.15166" lon="2.00533">
        <ele>200</ele>
        <time>2020-06-21T10:41:44Z</time>
      </trkpt>
      <trkpt lat="49.1516" lon="2.00544">
        <ele>200</ele>
        <time>2020-06-21T10:41:55Z</time>
      </trkpt>
      <trkpt lat="49.15153" lon="2.00554">
        <ele>200</ele>
        <time>2020-06-21T10:42:09Z</time>
      </trkpt>
      <trkpt lat="49.15146" lon="2.00565">
        <ele>200</ele>
        <time>2020-06-21T10:42:18Z</time>
      </trkpt>
      <trkpt lat="49.15138" lon="2.00576">
        <ele>200</ele>
        <time>2020-06-21T10:42:23Z</time>
      </trkpt>
      <trkpt lat="49.1513" lon="2.00586">
        <ele>199</ele>
        <time>2020-06-21T10:42:27Z</time>
      </trkpt>
      <trkpt lat="49.15122" lon="2.00595">
        <ele>199</ele>
        <time>2020-06-21T10:42:31Z</time>
      </trkpt>
      <trkpt lat="49.15112" lon="2.00604">
        <ele>198</ele>
        <time>2020-06-21T10:42:36Z</time>
      </trkpt>
      <trkpt lat="49.15104" lon="2.00614">
        <ele>198</ele>
        <time>2020-06-21T10:42:43Z</time>
      </trkpt>
      <trkpt lat="49.15095" lon="2.00621">
        <ele>198</ele>
        <time>2020-06-21T10:42:55Z</time>
      </trkpt>
      <trkpt lat="49.15086" lon="2.00629">
        <ele>198</ele>
        <time>2020-06-21T10:43:03Z</time>
      </trkpt>
      <trkpt lat="49.15076" lon="2.00637">
        <ele>194</ele>
        <time>2020-06-21T10:43:10Z</time>
      </trkpt>
      <trkpt lat="49.15067" lon="2.00645">
        <ele>194</ele>
        <time>2020-06-21T10:43:19Z</time>
      </trkpt>
      <trkpt lat="49.15062" lon="2.00658">
        <ele>194</ele>
        <time>2020-06-21T10:43:31Z</time>
      </trkpt>
      <trkpt lat="49.15056" lon="2.00672">
        <ele>195</ele>
        <time>2020-06-21T10:43:38Z</time>
      </trkpt>
      <trkpt lat="49.15048" lon="2.00683">
        <ele>195</ele>
        <time>2020-06-21T10:43:42Z</time>
      </trkpt>
      <trkpt lat="49.15043" lon="2.00695">
        <ele>195</ele>
        <time>2020-06-21T10:43:47Z</time>
      </trkpt>
      <trkpt lat="49.15036" lon="2.00706">
        <ele>195</ele>
        <time>2020-06-21T10:43:53Z</time>
      </trkpt>
      <trkpt lat="49.15027" lon="2.0072">
        <ele>195</ele>
        <time>2020-06-21T10:43:59Z</time>
      </trkpt>
      <trkpt lat="49.15019" lon="2.00728">
        <ele>195</ele>
        <time>2020-06-21T10:44:06Z</time>
      </trkpt>
      <trkpt lat="49.15009" lon="2.00733">
        <ele>194</ele>
        <time>2020-06-21T10:44:15Z</time>
      </trkpt>
      <trkpt lat="49.15" lon="2.00735">
        <ele>191</ele>
        <time>2020-06-21T10:44:26Z</time>
      </trkpt>
      <trkpt lat="49.14992" lon="2.0075">
        <ele>193</ele>
        <time>2020-06-21T10:45:03Z</time>
      </trkpt>
      <trkpt lat="49.14984" lon="2.00759">
        <ele>193</ele>
        <time>2020-06-21T10:45:19Z</time>
      </trkpt>
      <trkpt lat="49.14975" lon="2.00764">
        <ele>193</ele>
        <time>2020-06-21T10:45:29Z</time>
      </trkpt>
      <trkpt lat="49.14965" lon="2.00767">
        <ele>192</ele>
        <time>2020-06-21T10:45:39Z</time>
      </trkpt>
      <trkpt lat="49.14955" lon="2.00771">
        <ele>192</ele>
        <time>2020-06-21T10:45:51Z</time>
      </trkpt>
      <trkpt lat="49.14946" lon="2.00778">
        <ele>192</ele>
        <time>2020-06-21T10:45:58Z</time>
      </trkpt>
      <trkpt lat="49.14937" lon="2.00788">
        <ele>192</ele>
        <time>2020-06-21T10:46:03Z</time>
      </trkpt>
      <trkpt lat="49.14929" lon="2.008">
        <ele>192</ele>
        <time>2020-06-21T10:46:09Z</time>
      </trkpt>
      <trkpt lat="49.1492" lon="2.00812">
        <ele>192</ele>
        <time>2020-06-21T10:46:14Z</time>
      </trkpt>
      <trkpt lat="49.14915" lon="2.00828">
        <ele>192</ele>
        <time>2020-06-21T10:46:21Z</time>
      </trkpt>
      <trkpt lat="49.14907" lon="2.0084">
        <ele>192</ele>
        <time>2020-06-21T10:46:26Z</time>
      </trkpt>
      <trkpt lat="49.14899" lon="2.00851">
        <ele>192</ele>
        <time>2020-06-21T10:46:31Z</time>
      </trkpt>
      <trkpt lat="49.1489" lon="2.0086">
        <ele>191</ele>
        <time>2020-06-21T10:46:38Z</time>
      </trkpt>
      <trkpt lat="49.14882" lon="2.00871">
        <ele>191</ele>
        <time>2020-06-21T10:46:46Z</time>
      </trkpt>
      <trkpt lat="49.14874" lon="2.00883">
        <ele>191</ele>
        <time>2020-06-21T10:46:51Z</time>
      </trkpt>
      <trkpt lat="49.14868" lon="2.00893">
        <ele>191</ele>
        <time>2020-06-21T10:46:55Z</time>
      </trkpt>
      <trkpt lat="49.1486" lon="2.00905">
        <ele>191</ele>
        <time>2020-06-21T10:47:00Z</time>
      </trkpt>
      <trkpt lat="49.14853" lon="2.00919">
        <ele>190</ele>
        <time>2020-06-21T10:47:08Z</time>
      </trkpt>
      <trkpt lat="49.14846" lon="2.00931">
        <ele>190</ele>
        <time>2020-06-21T10:47:14Z</time>
      </trkpt>
      <trkpt lat="49.14839" lon="2.00942">
        <ele>190</ele>
        <time>2020-06-21T10:47:20Z</time>
      </trkpt>
      <trkpt lat="49.14831" lon="2.00953">
        <ele>186</ele>
        <time>2020-06-21T10:47:28Z</time>
      </trkpt>
      <trkpt lat="49.14822" lon="2.00963">
        <ele>186</ele>
        <time>2020-06-21T10:47:36Z</time>
      </trkpt>
      <trkpt lat="49.14814" lon="2.00972">
        <ele>186</ele>
        <time>2020-06-21T10:47:43Z</time>
      </trkpt>
      <trkpt lat="49.14807" lon="2.00981">
        <ele>185</ele>
        <time>2020-06-21T10:47:51Z</time>
      </trkpt>
      <trkpt lat="49.148" lon="2.00993">
        <ele>185</ele>
        <time>2020-06-21T10:47:56Z</time>
      </trkpt>
      <trkpt lat="49.14794" lon="2.01005">
        <ele>182</ele>
        <time>2020-06-21T10:48:00Z</time>
      </trkpt>
      <trkpt lat="49.14787" lon="2.01019">
        <ele>181</ele>
        <time>2020-06-21T10:48:05Z</time>
      </trkpt>
      <trkpt lat="49.1478" lon="2.01031">
        <ele>180</ele>
        <time>2020-06-21T10:48:11Z</time>
      </trkpt>
      <trkpt lat="49.14772" lon="2.01039">
        <ele>180</ele>
        <time>2020-06-21T10:48:18Z</time>
      </trkpt>
      <trkpt lat="49.14764" lon="2.01045">
        <ele>180</ele>
        <time>2020-06-21T10:48:26Z</time>
      </trkpt>
      <trkpt lat="49.14754" lon="2.01053">
        <ele>179</ele>
        <time>2020-06-21T10:48:35Z</time>
      </trkpt>
      <trkpt lat="49.14745" lon="2.01064">
        <ele>176</ele>
        <time>2020-06-21T10:48:42Z</time>
      </trkpt>
      <trkpt lat="49.14737" lon="2.01076">
        <ele>176</ele>
        <time>2020-06-21T10:48:48Z</time>
      </trkpt>
      <trkpt lat="49.1473" lon="2.01087">
        <ele>173</ele>
        <time>2020-06-21T10:48:55Z</time>
      </trkpt>
      <trkpt lat="49.14723" lon="2.01097">
        <ele>171</ele>
        <time>2020-06-21T10:49:04Z</time>
      </trkpt>
      <trkpt lat="49.14716" lon="2.01106">
        <ele>171</ele>
        <time>2020-06-21T10:49:10Z</time>
      </trkpt>
      <trkpt lat="49.14707" lon="2.01116">
        <ele>170</ele>
        <time>2020-06-21T10:49:17Z</time>
      </trkpt>
      <trkpt lat="49.14699" lon="2.01125">
        <ele>169</ele>
        <time>2020-06-21T10:49:24Z</time>
      </trkpt>
      <trkpt lat="49.14689" lon="2.01132">
        <ele>168</ele>
        <time>2020-06-21T10:49:32Z</time>
      </trkpt>
      <trkpt lat="49.14676" lon="2.01134">
        <ele>168</ele>
        <time>2020-06-21T10:49:38Z</time>
      </trkpt>
      <trkpt lat="49.14666" lon="2.01132">
        <ele>168</ele>
        <time>2020-06-21T10:49:44Z</time>
      </trkpt>
      <trkpt lat="49.14656" lon="2.01132">
        <ele>169</ele>
        <time>2020-06-21T10:49:51Z</time>
      </trkpt>
      <trkpt lat="49.14645" lon="2.01137">
        <ele>168</ele>
        <time>2020-06-21T10:49:59Z</time>
      </trkpt>
      <trkpt lat="49.14635" lon="2.01141">
        <ele>168</ele>
        <time>2020-06-21T10:50:07Z</time>
      </trkpt>
      <trkpt lat="49.14626" lon="2.01148">
        <ele>168</ele>
        <time>2020-06-21T10:50:13Z</time>
      </trkpt>
      <trkpt lat="49.14617" lon="2.01155">
        <ele>168</ele>
        <time>2020-06-21T10:50:19Z</time>
      </trkpt>
      <trkpt lat="49.14609" lon="2.01164">
        <ele>168</ele>
        <time>2020-06-21T10:50:25Z</time>
      </trkpt>
      <trkpt lat="49.146" lon="2.01176">
        <ele>165</ele>
        <time>2020-06-21T10:50:31Z</time>
      </trkpt>
      <trkpt lat="49.14592" lon="2.01187">
        <ele>164</ele>
        <time>2020-06-21T10:50:35Z</time>
      </trkpt>
      <trkpt lat="49.14584" lon="2.01198">
        <ele>164</ele>
        <time>2020-06-21T10:50:39Z</time>
      </trkpt>
      <trkpt lat="49.14577" lon="2.01209">
        <ele>165</ele>
        <time>2020-06-21T10:50:43Z</time>
      </trkpt>
      <trkpt lat="49.14569" lon="2.0122">
        <ele>165</ele>
        <time>2020-06-21T10:50:47Z</time>
      </trkpt>
      <trkpt lat="49.14561" lon="2.01236">
        <ele>164</ele>
        <time>2020-06-21T10:50:51Z</time>
      </trkpt>
      <trkpt lat="49.14554" lon="2.01251">
        <ele>162</ele>
        <time>2020-06-21T10:50:55Z</time>
      </trkpt>
      <trkpt lat="49.14548" lon="2.01264">
        <ele>162</ele>
        <time>2020-06-21T10:50:59Z</time>
      </trkpt>
      <trkpt lat="49.14541" lon="2.01274">
        <ele>162</ele>
        <time>2020-06-21T10:51:03Z</time>
      </trkpt>
      <trkpt lat="49.14533" lon="2.01289">
        <ele>162</ele>
        <time>2020-06-21T10:51:09Z</time>
      </trkpt>
      <trkpt lat="49.14527" lon="2.01302">
        <ele>162</ele>
        <time>2020-06-21T10:51:15Z</time>
      </trkpt>
      <trkpt lat="49.14522" lon="2.01316">
        <ele>162</ele>
        <time>2020-06-21T10:51:21Z</time>
      </trkpt>
      <trkpt lat="49.14516" lon="2.0133">
        <ele>162</ele>
        <time>2020-06-21T10:51:27Z</time>
      </trkpt>
      <trkpt lat="49.1451" lon="2.01344">
        <ele>161</ele>
        <time>2020-06-21T10:51:33Z</time>
      </trkpt>
      <trkpt lat="49.14504" lon="2.01358">
        <ele>160</ele>
        <time>2020-06-21T10:51:39Z</time>
      </trkpt>
      <trkpt lat="49.14498" lon="2.01371">
        <ele>158</ele>
        <time>2020-06-21T10:51:45Z</time>
      </trkpt>
      <trkpt lat="49.14492" lon="2.01384">
        <ele>158</ele>
        <time>2020-06-21T10:51:52Z</time>
      </trkpt>
      <trkpt lat="49.14489" lon="2.01398">
        <ele>158</ele>
        <time>2020-06-21T10:52:00Z</time>
      </trkpt>
      <trkpt lat="49.14485" lon="2.01413">
        <ele>158</ele>
        <time>2020-06-21T10:52:08Z</time>
      </trkpt>
      <trkpt lat="49.1448" lon="2.01425">
        <ele>157</ele>
        <time>2020-06-21T10:52:14Z</time>
      </trkpt>
      <trkpt lat="49.14473" lon="2.01436">
        <ele>157</ele>
        <time>2020-06-21T10:52:20Z</time>
      </trkpt>
      <trkpt lat="49.14467" lon="2.01448">
        <ele>156</ele>
        <time>2020-06-21T10:52:27Z</time>
      </trkpt>
      <trkpt lat="49.14462" lon="2.01463">
        <ele>156</ele>
        <time>2020-06-21T10:52:34Z</time>
      </trkpt>
      <trkpt lat="49.14456" lon="2.01475">
        <ele>156</ele>
        <time>2020-06-21T10:52:40Z</time>
      </trkpt>
      <trkpt lat="49.14448" lon="2.01484">
        <ele>156</ele>
        <time>2020-06-21T10:52:47Z</time>
      </trkpt>
      <trkpt lat="49.14439" lon="2.01492">
        <ele>156</ele>
        <time>2020-06-21T10:52:54Z</time>
      </trkpt>
      <trkpt lat="49.1443" lon="2.01502">
        <ele>155</ele>
        <time>2020-06-21T10:53:02Z</time>
      </trkpt>
      <trkpt lat="49.14439" lon="2.01509">
        <ele>155</ele>
        <time>2020-06-21T10:53:19Z</time>
      </trkpt>
      <trkpt lat="49.14449" lon="2.0151">
        <ele>155</ele>
        <time>2020-06-21T10:53:44Z</time>
      </trkpt>
      <trkpt lat="49.1446" lon="2.01506">
        <ele>155</ele>
        <time>2020-06-21T10:53:48Z</time>
      </trkpt>
      <trkpt lat="49.14468" lon="2.01496">
        <ele>156</ele>
        <time>2020-06-21T10:53:53Z</time>
      </trkpt>
      <trkpt lat="49.14475" lon="2.01486">
        <ele>156</ele>
        <time>2020-06-21T10:53:59Z</time>
      </trkpt>
      <trkpt lat="49.14483" lon="2.01474">
        <ele>156</ele>
        <time>2020-06-21T10:54:07Z</time>
      </trkpt>
      <trkpt lat="49.1449" lon="2.01462">
        <ele>156</ele>
        <time>2020-06-21T10:54:15Z</time>
      </trkpt>
      <trkpt lat="49.14499" lon="2.01456">
        <ele>156</ele>
        <time>2020-06-21T10:54:24Z</time>
      </trkpt>
      <trkpt lat="49.14508" lon="2.01449">
        <ele>156</ele>
        <time>2020-06-21T10:54:32Z</time>
      </trkpt>
      <trkpt lat="49.14515" lon="2.01439">
        <ele>156</ele>
        <time>2020-06-21T10:54:40Z</time>
      </trkpt>
      <trkpt lat="49.14523" lon="2.01428">
        <ele>156</ele>
        <time>2020-06-21T10:54:47Z</time>
      </trkpt>
      <trkpt lat="49.1453" lon="2.01419">
        <ele>156</ele>
        <time>2020-06-21T10:54:53Z</time>
      </trkpt>
      <trkpt lat="49.14536" lon="2.01408">
        <ele>157</ele>
        <time>2020-06-21T10:54:59Z</time>
      </trkpt>
      <trkpt lat="49.14541" lon="2.01394">
        <ele>157</ele>
        <time>2020-06-21T10:55:06Z</time>
      </trkpt>
      <trkpt lat="49.14547" lon="2.01379">
        <ele>157</ele>
        <time>2020-06-21T10:55:14Z</time>
      </trkpt>
      <trkpt lat="49.14553" lon="2.01368">
        <ele>157</ele>
        <time>2020-06-21T10:55:23Z</time>
      </trkpt>
      <trkpt lat="49.14561" lon="2.0136">
        <ele>157</ele>
        <time>2020-06-21T10:55:33Z</time>
      </trkpt>
      <trkpt lat="49.1457" lon="2.0135">
        <ele>157</ele>
        <time>2020-06-21T10:55:43Z</time>
      </trkpt>
      <trkpt lat="49.14576" lon="2.0134">
        <ele>157</ele>
        <time>2020-06-21T10:55:51Z</time>
      </trkpt>
      <trkpt lat="49.14581" lon="2.01324">
        <ele>158</ele>
        <time>2020-06-21T10:55:58Z</time>
      </trkpt>
      <trkpt lat="49.14586" lon="2.0131">
        <ele>156</ele>
        <time>2020-06-21T10:56:05Z</time>
      </trkpt>
      <trkpt lat="49.14591" lon="2.01296">
        <ele>157</ele>
        <time>2020-06-21T10:56:11Z</time>
      </trkpt>
      <trkpt lat="49.14595" lon="2.01281">
        <ele>157</ele>
        <time>2020-06-21T10:56:20Z</time>
      </trkpt>
      <trkpt lat="49.14599" lon="2.01266">
        <ele>158</ele>
        <time>2020-06-21T10:56:27Z</time>
      </trkpt>
      <trkpt lat="49.14603" lon="2.01251">
        <ele>158</ele>
        <time>2020-06-21T10:56:34Z</time>
      </trkpt>
      <trkpt lat="49.14604" lon="2.01237">
        <ele>161</ele>
        <time>2020-06-21T10:56:43Z</time>
      </trkpt>
      <trkpt lat="49.14598" lon="2.01217">
        <ele>162</ele>
        <time>2020-06-21T10:57:00Z</time>
      </trkpt>
      <trkpt lat="49.14598" lon="2.01201">
        <ele>163</ele>
        <time>2020-06-21T10:57:09Z</time>
      </trkpt>
      <trkpt lat="49.146" lon="2.01187">
        <ele>164</ele>
        <time>2020-06-21T10:57:17Z</time>
      </trkpt>
      <trkpt lat="49.14603" lon="2.01172">
        <ele>165</ele>
        <time>2020-06-21T10:57:25Z</time>
      </trkpt>
      <trkpt lat="49.14607" lon="2.01157">
        <ele>169</ele>
        <time>2020-06-21T10:57:33Z</time>
      </trkpt>
      <trkpt lat="49.14611" lon="2.01143">
        <ele>169</ele>
        <time>2020-06-21T10:57:42Z</time>
      </trkpt>
      <trkpt lat="49.14616" lon="2.01129">
        <ele>169</ele>
        <time>2020-06-21T10:57:50Z</time>
      </trkpt>
      <trkpt lat="49.14622" lon="2.01115">
        <ele>170</ele>
        <time>2020-06-21T10:57:58Z</time>
      </trkpt>
      <trkpt lat="49.14626" lon="2.011">
        <ele>171</ele>
        <time>2020-06-21T10:58:06Z</time>
      </trkpt>
      <trkpt lat="49.14631" lon="2.01084">
        <ele>171</ele>
        <time>2020-06-21T10:58:14Z</time>
      </trkpt>
      <trkpt lat="49.14636" lon="2.01071">
        <ele>174</ele>
        <time>2020-06-21T10:58:22Z</time>
      </trkpt>
      <trkpt lat="49.1464" lon="2.01057">
        <ele>174</ele>
        <time>2020-06-21T10:58:30Z</time>
      </trkpt>
      <trkpt lat="49.14645" lon="2.01045">
        <ele>174</ele>
        <time>2020-06-21T10:58:38Z</time>
      </trkpt>
      <trkpt lat="49.14649" lon="2.01032">
        <ele>174</ele>
        <time>2020-06-21T10:58:46Z</time>
      </trkpt>
      <trkpt lat="49.14654" lon="2.01018">
        <ele>174</ele>
        <time>2020-06-21T10:58:54Z</time>
      </trkpt>
      <trkpt lat="49.14658" lon="2.01001">
        <ele>175</ele>
        <time>2020-06-21T10:59:02Z</time>
      </trkpt>
      <trkpt lat="49.14664" lon="2.00986">
        <ele>174</ele>
        <time>2020-06-21T10:59:10Z</time>
      </trkpt>
      <trkpt lat="49.14671" lon="2.00974">
        <ele>176</ele>
        <time>2020-06-21T10:59:18Z</time>
      </trkpt>
      <trkpt lat="49.1468" lon="2.00963">
        <ele>177</ele>
        <time>2020-06-21T10:59:26Z</time>
      </trkpt>
      <trkpt lat="49.14687" lon="2.00951">
        <ele>177</ele>
        <time>2020-06-21T10:59:34Z</time>
      </trkpt>
      <trkpt lat="49.14695" lon="2.0094">
        <ele>177</ele>
        <time>2020-06-21T10:59:42Z</time>
      </trkpt>
      <trkpt lat="49.14701" lon="2.00921">
        <ele>177</ele>
        <time>2020-06-21T11:00:10Z</time>
      </trkpt>
      <trkpt lat="49.14706" lon="2.00909">
        <ele>177</ele>
        <time>2020-06-21T11:00:18Z</time>
      </trkpt>
      <trkpt lat="49.14709" lon="2.00895">
        <ele>177</ele>
        <time>2020-06-21T11:00:32Z</time>
      </trkpt>
      <trkpt lat="49.14701" lon="2.00901">
        <ele>176</ele>
        <time>2020-06-21T11:02:01Z</time>
      </trkpt>
      <trkpt lat="49.14714" lon="2.00932">
        <ele>178</ele>
        <time>2020-06-21T11:11:57Z</time>
      </trkpt>
      <trkpt lat="49.14718" lon="2.00913">
        <ele>178</ele>
        <time>2020-06-21T11:12:38Z</time>
      </trkpt>
      <trkpt lat="49.14718" lon="2.00898">
        <ele>177</ele>
        <time>2020-06-21T11:13:30Z</time>
      </trkpt>
      <trkpt lat="49.14709" lon="2.00903">
        <ele>177</ele>
        <time>2020-06-21T11:13:58Z</time>
      </trkpt>
      <trkpt lat="49.14703" lon="2.00891">
        <ele>176</ele>
        <time>2020-06-21T11:14:42Z</time>
      </trkpt>
      <trkpt lat="49.14693" lon="2.00892">
        <ele>176</ele>
        <time>2020-06-21T11:15:43Z</time>
      </trkpt>
      <trkpt lat="49.14684" lon="2.00887">
        <ele>175</ele>
        <time>2020-06-21T11:15:48Z</time>
      </trkpt>
      <trkpt lat="49.14673" lon="2.0088">
        <ele>175</ele>
        <time>2020-06-21T11:15:54Z</time>
      </trkpt>
      <trkpt lat="49.14664" lon="2.0088">
        <ele>171</ele>
        <time>2020-06-21T11:16:00Z</time>
      </trkpt>
      <trkpt lat="49.14675" lon="2.00876">
        <ele>175</ele>
        <time>2020-06-21T11:16:50Z</time>
      </trkpt>
      <trkpt lat="49.14684" lon="2.00885">
        <ele>175</ele>
        <time>2020-06-21T11:17:08Z</time>
      </trkpt>
      <trkpt lat="49.14713" lon="2.00895">
        <ele>177</ele>
        <time>2020-06-21T11:18:47Z</time>
      </trkpt>
      <trkpt lat="49.14699" lon="2.00897">
        <ele>176</ele>
        <time>2020-06-21T11:18:52Z</time>
      </trkpt>
      <trkpt lat="49.14688" lon="2.00892">
        <ele>176</ele>
        <time>2020-06-21T11:20:59Z</time>
      </trkpt>
      <trkpt lat="49.14696" lon="2.00903">
        <ele>176</ele>
        <time>2020-06-21T11:21:17Z</time>
      </trkpt>
      <trkpt lat="49.147" lon="2.00918">
        <ele>177</ele>
        <time>2020-06-21T11:21:26Z</time>
      </trkpt>
      <trkpt lat="49.14709" lon="2.00915">
        <ele>177</ele>
        <time>2020-06-21T11:21:53Z</time>
      </trkpt>
      <trkpt lat="49.14718" lon="2.00913">
        <ele>178</ele>
        <time>2020-06-21T11:22:32Z</time>
      </trkpt>
      <trkpt lat="49.14712" lon="2.00895">
        <ele>177</ele>
        <time>2020-06-21T11:24:16Z</time>
      </trkpt>
      <trkpt lat="49.14704" lon="2.00886">
        <ele>176</ele>
        <time>2020-06-21T11:24:40Z</time>
      </trkpt>
      <trkpt lat="49.14724" lon="2.00895">
        <ele>178</ele>
        <time>2020-06-21T11:30:07Z</time>
      </trkpt>
      <trkpt lat="49.14714" lon="2.00885">
        <ele>177</ele>
        <time>2020-06-21T11:30:25Z</time>
      </trkpt>
      <trkpt lat="49.14704" lon="2.00885">
        <ele>176</ele>
        <time>2020-06-21T11:30:46Z</time>
      </trkpt>
      <trkpt lat="49.14697" lon="2.00894">
        <ele>176</ele>
        <time>2020-06-21T11:30:55Z</time>
      </trkpt>
      <trkpt lat="49.14705" lon="2.00884">
        <ele>176</ele>
        <time>2020-06-21T11:31:16Z</time>
      </trkpt>
      <trkpt lat="49.14714" lon="2.00886">
        <ele>177</ele>
        <time>2020-06-21T11:31:35Z</time>
      </trkpt>
      <trkpt lat="49.1471" lon="2.00903">
        <ele>177</ele>
        <time>2020-06-21T11:32:54Z</time>
      </trkpt>
      <trkpt lat="49.14706" lon="2.00916">
        <ele>177</ele>
        <time>2020-06-21T11:34:05Z</time>
      </trkpt>
      <trkpt lat="49.14698" lon="2.00905">
        <ele>176</ele>
        <time>2020-06-21T11:36:47Z</time>
      </trkpt>
      <trkpt lat="49.14696" lon="2.00891">
        <ele>176</ele>
        <time>2020-06-21T11:36:55Z</time>
      </trkpt>
      <trkpt lat="49.14696" lon="2.00873">
        <ele>176</ele>
        <time>2020-06-21T11:37:03Z</time>
      </trkpt>
      <trkpt lat="49.14699" lon="2.0086">
        <ele>176</ele>
        <time>2020-06-21T11:37:13Z</time>
      </trkpt>
      <trkpt lat="49.14704" lon="2.00845">
        <ele>176</ele>
        <time>2020-06-21T11:37:21Z</time>
      </trkpt>
      <trkpt lat="49.14708" lon="2.00832">
        <ele>174</ele>
        <time>2020-06-21T11:37:27Z</time>
      </trkpt>
      <trkpt lat="49.14714" lon="2.00819">
        <ele>174</ele>
        <time>2020-06-21T11:37:34Z</time>
      </trkpt>
      <trkpt lat="49.14721" lon="2.00806">
        <ele>174</ele>
        <time>2020-06-21T11:37:42Z</time>
      </trkpt>
      <trkpt lat="49.14727" lon="2.00794">
        <ele>174</ele>
        <time>2020-06-21T11:37:48Z</time>
      </trkpt>
      <trkpt lat="49.14732" lon="2.00782">
        <ele>174</ele>
        <time>2020-06-21T11:37:54Z</time>
      </trkpt>
      <trkpt lat="49.14737" lon="2.00769">
        <ele>174</ele>
        <time>2020-06-21T11:38:01Z</time>
      </trkpt>
      <trkpt lat="49.14743" lon="2.00756">
        <ele>174</ele>
        <time>2020-06-21T11:38:09Z</time>
      </trkpt>
      <trkpt lat="49.14749" lon="2.00744">
        <ele>174</ele>
        <time>2020-06-21T11:38:17Z</time>
      </trkpt>
      <trkpt lat="49.14755" lon="2.0073">
        <ele>176</ele>
        <time>2020-06-21T11:38:25Z</time>
      </trkpt>
      <trkpt lat="49.14761" lon="2.00716">
        <ele>176</ele>
        <time>2020-06-21T11:38:33Z</time>
      </trkpt>
      <trkpt lat="49.14767" lon="2.00704">
        <ele>175</ele>
        <time>2020-06-21T11:38:41Z</time>
      </trkpt>
      <trkpt lat="49.14772" lon="2.00691">
        <ele>175</ele>
        <time>2020-06-21T11:38:49Z</time>
      </trkpt>
      <trkpt lat="49.14777" lon="2.00676">
        <ele>175</ele>
        <time>2020-06-21T11:38:57Z</time>
      </trkpt>
      <trkpt lat="49.1478" lon="2.00661">
        <ele>172</ele>
        <time>2020-06-21T11:39:05Z</time>
      </trkpt>
      <trkpt lat="49.14783" lon="2.00647">
        <ele>172</ele>
        <time>2020-06-21T11:39:12Z</time>
      </trkpt>
      <trkpt lat="49.14786" lon="2.00633">
        <ele>171</ele>
        <time>2020-06-21T11:39:18Z</time>
      </trkpt>
      <trkpt lat="49.1479" lon="2.00617">
        <ele>171</ele>
        <time>2020-06-21T11:39:26Z</time>
      </trkpt>
      <trkpt lat="49.14794" lon="2.00601">
        <ele>171</ele>
        <time>2020-06-21T11:39:34Z</time>
      </trkpt>
      <trkpt lat="49.14797" lon="2.00586">
        <ele>170</ele>
        <time>2020-06-21T11:39:42Z</time>
      </trkpt>
      <trkpt lat="49.14801" lon="2.00571">
        <ele>168</ele>
        <time>2020-06-21T11:39:50Z</time>
      </trkpt>
      <trkpt lat="49.14804" lon="2.00557">
        <ele>168</ele>
        <time>2020-06-21T11:39:58Z</time>
      </trkpt>
      <trkpt lat="49.14808" lon="2.00543">
        <ele>168</ele>
        <time>2020-06-21T11:40:06Z</time>
      </trkpt>
      <trkpt lat="49.14811" lon="2.00529">
        <ele>168</ele>
        <time>2020-06-21T11:40:12Z</time>
      </trkpt>
      <trkpt lat="49.14813" lon="2.00515">
        <ele>168</ele>
        <time>2020-06-21T11:40:18Z</time>
      </trkpt>
      <trkpt lat="49.14814" lon="2.00498">
        <ele>167</ele>
        <time>2020-06-21T11:40:26Z</time>
      </trkpt>
      <trkpt lat="49.14814" lon="2.00481">
        <ele>166</ele>
        <time>2020-06-21T11:40:34Z</time>
      </trkpt>
      <trkpt lat="49.14814" lon="2.00466">
        <ele>166</ele>
        <time>2020-06-21T11:40:43Z</time>
      </trkpt>
      <trkpt lat="49.14815" lon="2.00451">
        <ele>165</ele>
        <time>2020-06-21T11:40:50Z</time>
      </trkpt>
      <trkpt lat="49.14819" lon="2.00434">
        <ele>165</ele>
        <time>2020-06-21T11:40:58Z</time>
      </trkpt>
      <trkpt lat="49.14822" lon="2.00418">
        <ele>165</ele>
        <time>2020-06-21T11:41:06Z</time>
      </trkpt>
      <trkpt lat="49.14824" lon="2.00401">
        <ele>165</ele>
        <time>2020-06-21T11:41:14Z</time>
      </trkpt>
      <trkpt lat="49.14826" lon="2.00385">
        <ele>165</ele>
        <time>2020-06-21T11:41:22Z</time>
      </trkpt>
      <trkpt lat="49.14827" lon="2.00368">
        <ele>165</ele>
        <time>2020-06-21T11:41:30Z</time>
      </trkpt>
      <trkpt lat="49.14827" lon="2.00351">
        <ele>165</ele>
        <time>2020-06-21T11:41:38Z</time>
      </trkpt>
      <trkpt lat="49.14826" lon="2.00335">
        <ele>165</ele>
        <time>2020-06-21T11:41:46Z</time>
      </trkpt>
      <trkpt lat="49.14827" lon="2.00318">
        <ele>165</ele>
        <time>2020-06-21T11:41:54Z</time>
      </trkpt>
      <trkpt lat="49.14828" lon="2.003">
        <ele>165</ele>
        <time>2020-06-21T11:42:02Z</time>
      </trkpt>
      <trkpt lat="49.14829" lon="2.00284">
        <ele>165</ele>
        <time>2020-06-21T11:42:10Z</time>
      </trkpt>
      <trkpt lat="49.1483" lon="2.00269">
        <ele>165</ele>
        <time>2020-06-21T11:42:18Z</time>
      </trkpt>
      <trkpt lat="49.14828" lon="2.00253">
        <ele>166</ele>
        <time>2020-06-21T11:42:26Z</time>
      </trkpt>
      <trkpt lat="49.14824" lon="2.00236">
        <ele>167</ele>
        <time>2020-06-21T11:42:34Z</time>
      </trkpt>
      <trkpt lat="49.14821" lon="2.00221">
        <ele>168</ele>
        <time>2020-06-21T11:42:42Z</time>
      </trkpt>
      <trkpt lat="49.14819" lon="2.00205">
        <ele>168</ele>
        <time>2020-06-21T11:42:50Z</time>
      </trkpt>
      <trkpt lat="49.1482" lon="2.00191">
        <ele>169</ele>
        <time>2020-06-21T11:42:58Z</time>
      </trkpt>
      <trkpt lat="49.14821" lon="2.00174">
        <ele>170</ele>
        <time>2020-06-21T11:43:06Z</time>
      </trkpt>
      <trkpt lat="49.1482" lon="2.00158">
        <ele>171</ele>
        <time>2020-06-21T11:43:14Z</time>
      </trkpt>
      <trkpt lat="49.1482" lon="2.00141">
        <ele>171</ele>
        <time>2020-06-21T11:43:22Z</time>
      </trkpt>
      <trkpt lat="49.14821" lon="2.00127">
        <ele>171</ele>
        <time>2020-06-21T11:43:30Z</time>
      </trkpt>
      <trkpt lat="49.14821" lon="2.00111">
        <ele>171</ele>
        <time>2020-06-21T11:43:38Z</time>
      </trkpt>
      <trkpt lat="49.14821" lon="2.00093">
        <ele>172</ele>
        <time>2020-06-21T11:43:46Z</time>
      </trkpt>
      <trkpt lat="49.14822" lon="2.00077">
        <ele>171</ele>
        <time>2020-06-21T11:43:54Z</time>
      </trkpt>
      <trkpt lat="49.14824" lon="2.00063">
        <ele>171</ele>
        <time>2020-06-21T11:44:04Z</time>
      </trkpt>
      <trkpt lat="49.1483" lon="2.00049">
        <ele>171</ele>
        <time>2020-06-21T11:44:13Z</time>
      </trkpt>
      <trkpt lat="49.14837" lon="2.00036">
        <ele>173</ele>
        <time>2020-06-21T11:44:20Z</time>
      </trkpt>
      <trkpt lat="49.14842" lon="2.00022">
        <ele>173</ele>
        <time>2020-06-21T11:44:26Z</time>
      </trkpt>
      <trkpt lat="49.14847" lon="2.0001">
        <ele>173</ele>
        <time>2020-06-21T11:44:33Z</time>
      </trkpt>
      <trkpt lat="49.14852" lon="1.99996">
        <ele>172</ele>
        <time>2020-06-21T11:44:41Z</time>
      </trkpt>
      <trkpt lat="49.14857" lon="1.99984">
        <ele>173</ele>
        <time>2020-06-21T11:44:50Z</time>
      </trkpt>
      <trkpt lat="49.14862" lon="1.99969">
        <ele>173</ele>
        <time>2020-06-21T11:44:58Z</time>
      </trkpt>
      <trkpt lat="49.14866" lon="1.99952">
        <ele>173</ele>
        <time>2020-06-21T11:45:06Z</time>
      </trkpt>
      <trkpt lat="49.1487" lon="1.99939">
        <ele>172</ele>
        <time>2020-06-21T11:45:13Z</time>
      </trkpt>
      <trkpt lat="49.14877" lon="1.99926">
        <ele>173</ele>
        <time>2020-06-21T11:45:21Z</time>
      </trkpt>
      <trkpt lat="49.14882" lon="1.9991">
        <ele>171</ele>
        <time>2020-06-21T11:45:29Z</time>
      </trkpt>
      <trkpt lat="49.14886" lon="1.99894">
        <ele>171</ele>
        <time>2020-06-21T11:45:37Z</time>
      </trkpt>
      <trkpt lat="49.14893" lon="1.99879">
        <ele>171</ele>
        <time>2020-06-21T11:45:45Z</time>
      </trkpt>
      <trkpt lat="49.14898" lon="1.99866">
        <ele>171</ele>
        <time>2020-06-21T11:45:54Z</time>
      </trkpt>
      <trkpt lat="49.14901" lon="1.9985">
        <ele>171</ele>
        <time>2020-06-21T11:46:02Z</time>
      </trkpt>
      <trkpt lat="49.14901" lon="1.99834">
        <ele>171</ele>
        <time>2020-06-21T11:46:09Z</time>
      </trkpt>
      <trkpt lat="49.14904" lon="1.99818">
        <ele>168</ele>
        <time>2020-06-21T11:46:17Z</time>
      </trkpt>
      <trkpt lat="49.14907" lon="1.99801">
        <ele>167</ele>
        <time>2020-06-21T11:46:25Z</time>
      </trkpt>
      <trkpt lat="49.14908" lon="1.99785">
        <ele>166</ele>
        <time>2020-06-21T11:46:33Z</time>
      </trkpt>
      <trkpt lat="49.14906" lon="1.99767">
        <ele>165</ele>
        <time>2020-06-21T11:46:41Z</time>
      </trkpt>
      <trkpt lat="49.14904" lon="1.99753">
        <ele>166</ele>
        <time>2020-06-21T11:46:47Z</time>
      </trkpt>
      <trkpt lat="49.149" lon="1.99739">
        <ele>163</ele>
        <time>2020-06-21T11:46:53Z</time>
      </trkpt>
      <trkpt lat="49.14895" lon="1.99725">
        <ele>162</ele>
        <time>2020-06-21T11:47:00Z</time>
      </trkpt>
      <trkpt lat="49.1489" lon="1.99712">
        <ele>162</ele>
        <time>2020-06-21T11:47:08Z</time>
      </trkpt>
      <trkpt lat="49.14885" lon="1.99696">
        <ele>162</ele>
        <time>2020-06-21T11:47:16Z</time>
      </trkpt>
      <trkpt lat="49.14881" lon="1.99683">
        <ele>161</ele>
        <time>2020-06-21T11:47:22Z</time>
      </trkpt>
      <trkpt lat="49.14876" lon="1.99669">
        <ele>161</ele>
        <time>2020-06-21T11:47:29Z</time>
      </trkpt>
      <trkpt lat="49.14872" lon="1.99653">
        <ele>161</ele>
        <time>2020-06-21T11:47:37Z</time>
      </trkpt>
      <trkpt lat="49.14867" lon="1.99641">
        <ele>161</ele>
        <time>2020-06-21T11:47:43Z</time>
      </trkpt>
      <trkpt lat="49.14861" lon="1.99628">
        <ele>161</ele>
        <time>2020-06-21T11:47:49Z</time>
      </trkpt>
      <trkpt lat="49.14856" lon="1.99616">
        <ele>161</ele>
        <time>2020-06-21T11:47:55Z</time>
      </trkpt>
      <trkpt lat="49.1485" lon="1.99604">
        <ele>161</ele>
        <time>2020-06-21T11:48:01Z</time>
      </trkpt>
      <trkpt lat="49.14844" lon="1.99589">
        <ele>160</ele>
        <time>2020-06-21T11:48:09Z</time>
      </trkpt>
      <trkpt lat="49.14838" lon="1.99577">
        <ele>161</ele>
        <time>2020-06-21T11:48:15Z</time>
      </trkpt>
      <trkpt lat="49.14832" lon="1.99564">
        <ele>159</ele>
        <time>2020-06-21T11:48:22Z</time>
      </trkpt>
      <trkpt lat="49.14826" lon="1.9955">
        <ele>159</ele>
        <time>2020-06-21T11:48:30Z</time>
      </trkpt>
      <trkpt lat="49.14821" lon="1.99536">
        <ele>160</ele>
        <time>2020-06-21T11:48:38Z</time>
      </trkpt>
      <trkpt lat="49.14816" lon="1.99524">
        <ele>160</ele>
        <time>2020-06-21T11:48:44Z</time>
      </trkpt>
      <trkpt lat="49.14811" lon="1.99511">
        <ele>160</ele>
        <time>2020-06-21T11:48:49Z</time>
      </trkpt>
      <trkpt lat="49.14806" lon="1.99496">
        <ele>161</ele>
        <time>2020-06-21T11:48:55Z</time>
      </trkpt>
      <trkpt lat="49.14799" lon="1.99485">
        <ele>161</ele>
        <time>2020-06-21T11:49:03Z</time>
      </trkpt>
      <trkpt lat="49.14795" lon="1.99471">
        <ele>161</ele>
        <time>2020-06-21T11:49:13Z</time>
      </trkpt>
      <trkpt lat="49.1479" lon="1.99456">
        <ele>161</ele>
        <time>2020-06-21T11:49:20Z</time>
      </trkpt>
      <trkpt lat="49.14788" lon="1.99442">
        <ele>161</ele>
        <time>2020-06-21T11:49:26Z</time>
      </trkpt>
      <trkpt lat="49.14788" lon="1.99428">
        <ele>161</ele>
        <time>2020-06-21T11:49:34Z</time>
      </trkpt>
      <trkpt lat="49.14788" lon="1.99414">
        <ele>160</ele>
        <time>2020-06-21T11:49:43Z</time>
      </trkpt>
      <trkpt lat="49.14783" lon="1.99399">
        <ele>160</ele>
        <time>2020-06-21T11:49:48Z</time>
      </trkpt>
      <trkpt lat="49.14777" lon="1.99383">
        <ele>160</ele>
        <time>2020-06-21T11:49:54Z</time>
      </trkpt>
      <trkpt lat="49.14771" lon="1.99368">
        <ele>159</ele>
        <time>2020-06-21T11:50:00Z</time>
      </trkpt>
      <trkpt lat="49.14769" lon="1.9935">
        <ele>158</ele>
        <time>2020-06-21T11:50:08Z</time>
      </trkpt>
      <trkpt lat="49.14769" lon="1.99336">
        <ele>158</ele>
        <time>2020-06-21T11:50:14Z</time>
      </trkpt>
      <trkpt lat="49.14771" lon="1.99322">
        <ele>158</ele>
        <time>2020-06-21T11:50:20Z</time>
      </trkpt>
      <trkpt lat="49.14774" lon="1.99309">
        <ele>158</ele>
        <time>2020-06-21T11:50:26Z</time>
      </trkpt>
      <trkpt lat="49.14777" lon="1.99295">
        <ele>158</ele>
        <time>2020-06-21T11:50:32Z</time>
      </trkpt>
      <trkpt lat="49.14781" lon="1.99281">
        <ele>158</ele>
        <time>2020-06-21T11:50:38Z</time>
      </trkpt>
      <trkpt lat="49.14785" lon="1.99267">
        <ele>158</ele>
        <time>2020-06-21T11:50:45Z</time>
      </trkpt>
      <trkpt lat="49.1479" lon="1.99254">
        <ele>159</ele>
        <time>2020-06-21T11:50:51Z</time>
      </trkpt>
      <trkpt lat="49.14795" lon="1.9924">
        <ele>159</ele>
        <time>2020-06-21T11:50:58Z</time>
      </trkpt>
      <trkpt lat="49.14801" lon="1.99227">
        <ele>159</ele>
        <time>2020-06-21T11:51:06Z</time>
      </trkpt>
      <trkpt lat="49.14806" lon="1.99214">
        <ele>159</ele>
        <time>2020-06-21T11:51:14Z</time>
      </trkpt>
      <trkpt lat="49.1481" lon="1.992">
        <ele>160</ele>
        <time>2020-06-21T11:51:23Z</time>
      </trkpt>
      <trkpt lat="49.14814" lon="1.99186">
        <ele>160</ele>
        <time>2020-06-21T11:51:31Z</time>
      </trkpt>
      <trkpt lat="49.14814" lon="1.99171">
        <ele>161</ele>
        <time>2020-06-21T11:51:39Z</time>
      </trkpt>
      <trkpt lat="49.14815" lon="1.99155">
        <ele>159</ele>
        <time>2020-06-21T11:51:47Z</time>
      </trkpt>
      <trkpt lat="49.14817" lon="1.99139">
        <ele>158</ele>
        <time>2020-06-21T11:51:54Z</time>
      </trkpt>
      <trkpt lat="49.14821" lon="1.99125">
        <ele>157</ele>
        <time>2020-06-21T11:52:01Z</time>
      </trkpt>
      <trkpt lat="49.14827" lon="1.99112">
        <ele>157</ele>
        <time>2020-06-21T11:52:08Z</time>
      </trkpt>
      <trkpt lat="49.14833" lon="1.99101">
        <ele>157</ele>
        <time>2020-06-21T11:52:14Z</time>
      </trkpt>
      <trkpt lat="49.14841" lon="1.9909">
        <ele>160</ele>
        <time>2020-06-21T11:52:22Z</time>
      </trkpt>
      <trkpt lat="49.14849" lon="1.99077">
        <ele>158</ele>
        <time>2020-06-21T11:52:31Z</time>
      </trkpt>
      <trkpt lat="49.14854" lon="1.99064">
        <ele>158</ele>
        <time>2020-06-21T11:52:37Z</time>
      </trkpt>
      <trkpt lat="49.14858" lon="1.99049">
        <ele>158</ele>
        <time>2020-06-21T11:52:44Z</time>
      </trkpt>
      <trkpt lat="49.14864" lon="1.99036">
        <ele>158</ele>
        <time>2020-06-21T11:52:52Z</time>
      </trkpt>
      <trkpt lat="49.14873" lon="1.99027">
        <ele>158</ele>
        <time>2020-06-21T11:53:00Z</time>
      </trkpt>
      <trkpt lat="49.14881" lon="1.99017">
        <ele>158</ele>
        <time>2020-06-21T11:53:08Z</time>
      </trkpt>
      <trkpt lat="49.14891" lon="1.99009">
        <ele>158</ele>
        <time>2020-06-21T11:53:16Z</time>
      </trkpt>
      <trkpt lat="49.14901" lon="1.99001">
        <ele>159</ele>
        <time>2020-06-21T11:53:24Z</time>
      </trkpt>
      <trkpt lat="49.14912" lon="1.98996">
        <ele>158</ele>
        <time>2020-06-21T11:53:32Z</time>
      </trkpt>
      <trkpt lat="49.1492" lon="1.98991">
        <ele>159</ele>
        <time>2020-06-21T11:53:38Z</time>
      </trkpt>
      <trkpt lat="49.14928" lon="1.98981">
        <ele>158</ele>
        <time>2020-06-21T11:53:45Z</time>
      </trkpt>
      <trkpt lat="49.14933" lon="1.98966">
        <ele>157</ele>
        <time>2020-06-21T11:53:52Z</time>
      </trkpt>
      <trkpt lat="49.14935" lon="1.98953">
        <ele>157</ele>
        <time>2020-06-21T11:53:58Z</time>
      </trkpt>
      <trkpt lat="49.14937" lon="1.98939">
        <ele>156</ele>
        <time>2020-06-21T11:54:04Z</time>
      </trkpt>
      <trkpt lat="49.14937" lon="1.98925">
        <ele>156</ele>
        <time>2020-06-21T11:54:10Z</time>
      </trkpt>
      <trkpt lat="49.14938" lon="1.98909">
        <ele>152</ele>
        <time>2020-06-21T11:54:17Z</time>
      </trkpt>
      <trkpt lat="49.14938" lon="1.98894">
        <ele>152</ele>
        <time>2020-06-21T11:54:25Z</time>
      </trkpt>
      <trkpt lat="49.14937" lon="1.9888">
        <ele>151</ele>
        <time>2020-06-21T11:54:34Z</time>
      </trkpt>
      <trkpt lat="49.14937" lon="1.98866">
        <ele>150</ele>
        <time>2020-06-21T11:54:42Z</time>
      </trkpt>
      <trkpt lat="49.1494" lon="1.98851">
        <ele>150</ele>
        <time>2020-06-21T11:54:50Z</time>
      </trkpt>
      <trkpt lat="49.14946" lon="1.98839">
        <ele>149</ele>
        <time>2020-06-21T11:54:58Z</time>
      </trkpt>
      <trkpt lat="49.14954" lon="1.98826">
        <ele>146</ele>
        <time>2020-06-21T11:55:06Z</time>
      </trkpt>
      <trkpt lat="49.14956" lon="1.9881">
        <ele>146</ele>
        <time>2020-06-21T11:55:14Z</time>
      </trkpt>
      <trkpt lat="49.14951" lon="1.98795">
        <ele>146</ele>
        <time>2020-06-21T11:55:22Z</time>
      </trkpt>
      <trkpt lat="49.14946" lon="1.98781">
        <ele>145</ele>
        <time>2020-06-21T11:55:30Z</time>
      </trkpt>
      <trkpt lat="49.14942" lon="1.98767">
        <ele>145</ele>
        <time>2020-06-21T11:55:39Z</time>
      </trkpt>
      <trkpt lat="49.14939" lon="1.98751">
        <ele>144</ele>
        <time>2020-06-21T11:55:47Z</time>
      </trkpt>
      <trkpt lat="49.14936" lon="1.98736">
        <ele>142</ele>
        <time>2020-06-21T11:55:56Z</time>
      </trkpt>
      <trkpt lat="49.14932" lon="1.9872">
        <ele>141</ele>
        <time>2020-06-21T11:56:04Z</time>
      </trkpt>
      <trkpt lat="49.14928" lon="1.98707">
        <ele>141</ele>
        <time>2020-06-21T11:56:10Z</time>
      </trkpt>
      <trkpt lat="49.14923" lon="1.98694">
        <ele>140</ele>
        <time>2020-06-21T11:56:16Z</time>
      </trkpt>
      <trkpt lat="49.14919" lon="1.98681">
        <ele>139</ele>
        <time>2020-06-21T11:56:25Z</time>
      </trkpt>
      <trkpt lat="49.14912" lon="1.98668">
        <ele>138</ele>
        <time>2020-06-21T11:56:34Z</time>
      </trkpt>
      <trkpt lat="49.14906" lon="1.98654">
        <ele>136</ele>
        <time>2020-06-21T11:56:42Z</time>
      </trkpt>
      <trkpt lat="49.149" lon="1.98642">
        <ele>135</ele>
        <time>2020-06-21T11:56:52Z</time>
      </trkpt>
      <trkpt lat="49.14889" lon="1.98644">
        <ele>134</ele>
        <time>2020-06-21T11:57:03Z</time>
      </trkpt>
      <trkpt lat="49.14894" lon="1.9863">
        <ele>134</ele>
        <time>2020-06-21T12:00:30Z</time>
      </trkpt>
      <trkpt lat="49.14901" lon="1.98619">
        <ele>134</ele>
        <time>2020-06-21T12:00:45Z</time>
      </trkpt>
      <trkpt lat="49.14905" lon="1.98605">
        <ele>134</ele>
        <time>2020-06-21T12:00:54Z</time>
      </trkpt>
      <trkpt lat="49.14909" lon="1.98592">
        <ele>135</ele>
        <time>2020-06-21T12:01:02Z</time>
      </trkpt>
      <trkpt lat="49.14911" lon="1.98577">
        <ele>134</ele>
        <time>2020-06-21T12:01:12Z</time>
      </trkpt>
      <trkpt lat="49.14909" lon="1.98562">
        <ele>133</ele>
        <time>2020-06-21T12:01:21Z</time>
      </trkpt>
      <trkpt lat="49.14912" lon="1.98548">
        <ele>132</ele>
        <time>2020-06-21T12:01:30Z</time>
      </trkpt>
      <trkpt lat="49.14911" lon="1.98532">
        <ele>131</ele>
        <time>2020-06-21T12:01:58Z</time>
      </trkpt>
      <trkpt lat="49.14901" lon="1.98525">
        <ele>131</ele>
        <time>2020-06-21T12:02:05Z</time>
      </trkpt>
      <trkpt lat="49.14892" lon="1.98519">
        <ele>130</ele>
        <time>2020-06-21T12:02:11Z</time>
      </trkpt>
      <trkpt lat="49.14882" lon="1.98516">
        <ele>130</ele>
        <time>2020-06-21T12:02:17Z</time>
      </trkpt>
      <trkpt lat="49.14871" lon="1.98514">
        <ele>130</ele>
        <time>2020-06-21T12:02:24Z</time>
      </trkpt>
      <trkpt lat="49.14861" lon="1.98514">
        <ele>129</ele>
        <time>2020-06-21T12:02:31Z</time>
      </trkpt>
      <trkpt lat="49.14851" lon="1.98513">
        <ele>128</ele>
        <time>2020-06-21T12:02:37Z</time>
      </trkpt>
      <trkpt lat="49.1484" lon="1.98509">
        <ele>128</ele>
        <time>2020-06-21T12:02:45Z</time>
      </trkpt>
      <trkpt lat="49.1483" lon="1.98507">
        <ele>126</ele>
        <time>2020-06-21T12:02:52Z</time>
      </trkpt>
      <trkpt lat="49.14819" lon="1.98504">
        <ele>126</ele>
        <time>2020-06-21T12:03:00Z</time>
      </trkpt>
      <trkpt lat="49.14811" lon="1.98495">
        <ele>124</ele>
        <time>2020-06-21T12:03:08Z</time>
      </trkpt>
      <trkpt lat="49.14802" lon="1.9849">
        <ele>124</ele>
        <time>2020-06-21T12:03:16Z</time>
      </trkpt>
      <trkpt lat="49.14792" lon="1.98488">
        <ele>124</ele>
        <time>2020-06-21T12:03:24Z</time>
      </trkpt>
      <trkpt lat="49.14782" lon="1.98485">
        <ele>123</ele>
        <time>2020-06-21T12:03:33Z</time>
      </trkpt>
      <trkpt lat="49.14772" lon="1.98483">
        <ele>123</ele>
        <time>2020-06-21T12:03:40Z</time>
      </trkpt>
      <trkpt lat="49.14762" lon="1.98478">
        <ele>123</ele>
        <time>2020-06-21T12:03:46Z</time>
      </trkpt>
      <trkpt lat="49.14752" lon="1.98471">
        <ele>123</ele>
        <time>2020-06-21T12:03:52Z</time>
      </trkpt>
      <trkpt lat="49.14742" lon="1.98465">
        <ele>121</ele>
        <time>2020-06-21T12:03:59Z</time>
      </trkpt>
      <trkpt lat="49.14731" lon="1.98462">
        <ele>120</ele>
        <time>2020-06-21T12:04:07Z</time>
      </trkpt>
      <trkpt lat="49.14721" lon="1.9846">
        <ele>120</ele>
        <time>2020-06-21T12:04:14Z</time>
      </trkpt>
      <trkpt lat="49.14711" lon="1.98455">
        <ele>120</ele>
        <time>2020-06-21T12:04:21Z</time>
      </trkpt>
      <trkpt lat="49.14702" lon="1.98459">
        <ele>120</ele>
        <time>2020-06-21T12:04:35Z</time>
      </trkpt>
      <trkpt lat="49.14692" lon="1.98452">
        <ele>120</ele>
        <time>2020-06-21T12:04:51Z</time>
      </trkpt>
      <trkpt lat="49.14683" lon="1.98441">
        <ele>120</ele>
        <time>2020-06-21T12:04:57Z</time>
      </trkpt>
      <trkpt lat="49.14674" lon="1.98434">
        <ele>120</ele>
        <time>2020-06-21T12:05:04Z</time>
      </trkpt>
      <trkpt lat="49.14667" lon="1.98423">
        <ele>119</ele>
        <time>2020-06-21T12:05:11Z</time>
      </trkpt>
      <trkpt lat="49.14658" lon="1.98411">
        <ele>119</ele>
        <time>2020-06-21T12:05:15Z</time>
      </trkpt>
      <trkpt lat="49.14651" lon="1.98401">
        <ele>119</ele>
        <time>2020-06-21T12:05:19Z</time>
      </trkpt>
      <trkpt lat="49.14642" lon="1.98393">
        <ele>118</ele>
        <time>2020-06-21T12:05:24Z</time>
      </trkpt>
      <trkpt lat="49.14633" lon="1.98383">
        <ele>118</ele>
        <time>2020-06-21T12:05:30Z</time>
      </trkpt>
      <trkpt lat="49.14628" lon="1.98368">
        <ele>118</ele>
        <time>2020-06-21T12:05:35Z</time>
      </trkpt>
      <trkpt lat="49.14621" lon="1.98353">
        <ele>118</ele>
        <time>2020-06-21T12:05:41Z</time>
      </trkpt>
      <trkpt lat="49.14614" lon="1.98342">
        <ele>118</ele>
        <time>2020-06-21T12:05:47Z</time>
      </trkpt>
      <trkpt lat="49.14607" lon="1.98331">
        <ele>117</ele>
        <time>2020-06-21T12:05:53Z</time>
      </trkpt>
      <trkpt lat="49.14602" lon="1.98319">
        <ele>117</ele>
        <time>2020-06-21T12:05:59Z</time>
      </trkpt>
      <trkpt lat="49.14595" lon="1.98307">
        <ele>117</ele>
        <time>2020-06-21T12:06:06Z</time>
      </trkpt>
      <trkpt lat="49.14592" lon="1.98293">
        <ele>117</ele>
        <time>2020-06-21T12:06:14Z</time>
      </trkpt>
      <trkpt lat="49.14592" lon="1.98276">
        <ele>117</ele>
        <time>2020-06-21T12:06:22Z</time>
      </trkpt>
      <trkpt lat="49.14591" lon="1.98262">
        <ele>116</ele>
        <time>2020-06-21T12:06:28Z</time>
      </trkpt>
      <trkpt lat="49.14585" lon="1.98248">
        <ele>116</ele>
        <time>2020-06-21T12:06:35Z</time>
      </trkpt>
      <trkpt lat="49.14578" lon="1.98235">
        <ele>116</ele>
        <time>2020-06-21T12:06:41Z</time>
      </trkpt>
      <trkpt lat="49.14574" lon="1.98221">
        <ele>115</ele>
        <time>2020-06-21T12:06:48Z</time>
      </trkpt>
      <trkpt lat="49.14575" lon="1.98206">
        <ele>115</ele>
        <time>2020-06-21T12:06:56Z</time>
      </trkpt>
      <trkpt lat="49.14577" lon="1.98189">
        <ele>115</ele>
        <time>2020-06-21T12:07:02Z</time>
      </trkpt>
      <trkpt lat="49.14574" lon="1.98174">
        <ele>114</ele>
        <time>2020-06-21T12:07:10Z</time>
      </trkpt>
      <trkpt lat="49.14569" lon="1.98159">
        <ele>113</ele>
        <time>2020-06-21T12:07:18Z</time>
      </trkpt>
      <trkpt lat="49.14566" lon="1.98145">
        <ele>113</ele>
        <time>2020-06-21T12:07:24Z</time>
      </trkpt>
      <trkpt lat="49.14563" lon="1.98131">
        <ele>113</ele>
        <time>2020-06-21T12:07:30Z</time>
      </trkpt>
      <trkpt lat="49.14556" lon="1.98118">
        <ele>112</ele>
        <time>2020-06-21T12:07:37Z</time>
      </trkpt>
      <trkpt lat="49.1455" lon="1.98106">
        <ele>112</ele>
        <time>2020-06-21T12:07:44Z</time>
      </trkpt>
      <trkpt lat="49.14545" lon="1.98093">
        <ele>112</ele>
        <time>2020-06-21T12:07:50Z</time>
      </trkpt>
      <trkpt lat="49.1454" lon="1.98078">
        <ele>111</ele>
        <time>2020-06-21T12:07:57Z</time>
      </trkpt>
      <trkpt lat="49.14536" lon="1.98063">
        <ele>111</ele>
        <time>2020-06-21T12:08:05Z</time>
      </trkpt>
      <trkpt lat="49.14537" lon="1.98046">
        <ele>110</ele>
        <time>2020-06-21T12:08:13Z</time>
      </trkpt>
      <trkpt lat="49.14541" lon="1.98031">
        <ele>110</ele>
        <time>2020-06-21T12:08:24Z</time>
      </trkpt>
      <trkpt lat="49.14544" lon="1.98016">
        <ele>110</ele>
        <time>2020-06-21T12:08:33Z</time>
      </trkpt>
      <trkpt lat="49.14549" lon="1.98001">
        <ele>110</ele>
        <time>2020-06-21T12:08:41Z</time>
      </trkpt>
      <trkpt lat="49.14554" lon="1.97986">
        <ele>110</ele>
        <time>2020-06-21T12:08:49Z</time>
      </trkpt>
      <trkpt lat="49.14559" lon="1.97973">
        <ele>110</ele>
        <time>2020-06-21T12:08:55Z</time>
      </trkpt>
      <trkpt lat="49.14562" lon="1.97959">
        <ele>110</ele>
        <time>2020-06-21T12:09:01Z</time>
      </trkpt>
      <trkpt lat="49.14566" lon="1.97946">
        <ele>110</ele>
        <time>2020-06-21T12:09:07Z</time>
      </trkpt>
      <trkpt lat="49.14571" lon="1.97925">
        <ele>110</ele>
        <time>2020-06-21T12:09:17Z</time>
      </trkpt>
      <trkpt lat="49.14577" lon="1.97913">
        <ele>110</ele>
        <time>2020-06-21T12:09:23Z</time>
      </trkpt>
      <trkpt lat="49.14582" lon="1.97902">
        <ele>110</ele>
        <time>2020-06-21T12:09:29Z</time>
      </trkpt>
      <trkpt lat="49.14582" lon="1.97881">
        <ele>110</ele>
        <time>2020-06-21T12:09:45Z</time>
      </trkpt>
      <trkpt lat="49.14577" lon="1.97868">
        <ele>110</ele>
        <time>2020-06-21T12:09:54Z</time>
      </trkpt>
      <trkpt lat="49.14572" lon="1.97855">
        <ele>110</ele>
        <time>2020-06-21T12:10:02Z</time>
      </trkpt>
      <trkpt lat="49.14567" lon="1.97839">
        <ele>110</ele>
        <time>2020-06-21T12:10:10Z</time>
      </trkpt>
      <trkpt lat="49.14563" lon="1.97824">
        <ele>109</ele>
        <time>2020-06-21T12:10:18Z</time>
      </trkpt>
      <trkpt lat="49.1456" lon="1.97809">
        <ele>109</ele>
        <time>2020-06-21T12:10:32Z</time>
      </trkpt>
      <trkpt lat="49.14555" lon="1.9779">
        <ele>108</ele>
        <time>2020-06-21T12:11:58Z</time>
      </trkpt>
      <trkpt lat="49.14549" lon="1.97776">
        <ele>108</ele>
        <time>2020-06-21T12:12:08Z</time>
      </trkpt>
      <trkpt lat="49.14548" lon="1.97762">
        <ele>108</ele>
        <time>2020-06-21T12:12:16Z</time>
      </trkpt>
      <trkpt lat="49.14546" lon="1.97746">
        <ele>107</ele>
        <time>2020-06-21T12:12:24Z</time>
      </trkpt>
      <trkpt lat="49.14544" lon="1.97731">
        <ele>107</ele>
        <time>2020-06-21T12:12:32Z</time>
      </trkpt>
      <trkpt lat="49.14544" lon="1.97716">
        <ele>107</ele>
        <time>2020-06-21T12:12:38Z</time>
      </trkpt>
      <trkpt lat="49.14542" lon="1.97701">
        <ele>107</ele>
        <time>2020-06-21T12:12:45Z</time>
      </trkpt>
      <trkpt lat="49.14544" lon="1.97685">
        <ele>107</ele>
        <time>2020-06-21T12:12:52Z</time>
      </trkpt>
      <trkpt lat="49.14543" lon="1.97671">
        <ele>107</ele>
        <time>2020-06-21T12:12:59Z</time>
      </trkpt>
      <trkpt lat="49.1453" lon="1.97665">
        <ele>106</ele>
        <time>2020-06-21T12:13:12Z</time>
      </trkpt>
      <trkpt lat="49.14519" lon="1.97666">
        <ele>106</ele>
        <time>2020-06-21T12:13:20Z</time>
      </trkpt>
      <trkpt lat="49.14508" lon="1.97669">
        <ele>106</ele>
        <time>2020-06-21T12:13:28Z</time>
      </trkpt>
      <trkpt lat="49.145" lon="1.97673">
        <ele>105</ele>
        <time>2020-06-21T12:13:39Z</time>
      </trkpt>
      <trkpt lat="49.14506" lon="1.97659">
        <ele>106</ele>
        <time>2020-06-21T12:15:24Z</time>
      </trkpt>
      <trkpt lat="49.14516" lon="1.97658">
        <ele>106</ele>
        <time>2020-06-21T12:15:34Z</time>
      </trkpt>
      <trkpt lat="49.14525" lon="1.9766">
        <ele>106</ele>
        <time>2020-06-21T12:15:44Z</time>
      </trkpt>
      <trkpt lat="49.14535" lon="1.97661">
        <ele>106</ele>
        <time>2020-06-21T12:15:53Z</time>
      </trkpt>
      <trkpt lat="49.14545" lon="1.9766">
        <ele>107</ele>
        <time>2020-06-21T12:16:06Z</time>
      </trkpt>
      <trkpt lat="49.14546" lon="1.97645">
        <ele>107</ele>
        <time>2020-06-21T12:16:13Z</time>
      </trkpt>
      <trkpt lat="49.14545" lon="1.97628">
        <ele>107</ele>
        <time>2020-06-21T12:16:21Z</time>
      </trkpt>
      <trkpt lat="49.14545" lon="1.97612">
        <ele>106</ele>
        <time>2020-06-21T12:16:28Z</time>
      </trkpt>
      <trkpt lat="49.14543" lon="1.97597">
        <ele>106</ele>
        <time>2020-06-21T12:16:35Z</time>
      </trkpt>
      <trkpt lat="49.14542" lon="1.97581">
        <ele>106</ele>
        <time>2020-06-21T12:16:43Z</time>
      </trkpt>
      <trkpt lat="49.14543" lon="1.97566">
        <ele>106</ele>
        <time>2020-06-21T12:16:51Z</time>
      </trkpt>
      <trkpt lat="49.14544" lon="1.97551">
        <ele>106</ele>
        <time>2020-06-21T12:16:59Z</time>
      </trkpt>
      <trkpt lat="49.14543" lon="1.97537">
        <ele>105</ele>
        <time>2020-06-21T12:17:06Z</time>
      </trkpt>
      <trkpt lat="49.14541" lon="1.9752">
        <ele>105</ele>
        <time>2020-06-21T12:17:14Z</time>
      </trkpt>
      <trkpt lat="49.1454" lon="1.97502">
        <ele>105</ele>
        <time>2020-06-21T12:17:22Z</time>
      </trkpt>
      <trkpt lat="49.14542" lon="1.97487">
        <ele>105</ele>
        <time>2020-06-21T12:17:30Z</time>
      </trkpt>
      <trkpt lat="49.14544" lon="1.97472">
        <ele>105</ele>
        <time>2020-06-21T12:17:38Z</time>
      </trkpt>
      <trkpt lat="49.14547" lon="1.97456">
        <ele>105</ele>
        <time>2020-06-21T12:17:46Z</time>
      </trkpt>
      <trkpt lat="49.14547" lon="1.9744">
        <ele>105</ele>
        <time>2020-06-21T12:18:09Z</time>
      </trkpt>
      <trkpt lat="49.14552" lon="1.97426">
        <ele>105</ele>
        <time>2020-06-21T12:18:17Z</time>
      </trkpt>
      <trkpt lat="49.14554" lon="1.9741">
        <ele>104</ele>
        <time>2020-06-21T12:18:25Z</time>
      </trkpt>
      <trkpt lat="49.14559" lon="1.97396">
        <ele>104</ele>
        <time>2020-06-21T12:18:33Z</time>
      </trkpt>
      <trkpt lat="49.14564" lon="1.97382">
        <ele>103</ele>
        <time>2020-06-21T12:18:40Z</time>
      </trkpt>
      <trkpt lat="49.14565" lon="1.97366">
        <ele>103</ele>
        <time>2020-06-21T12:18:47Z</time>
      </trkpt>
      <trkpt lat="49.14569" lon="1.97351">
        <ele>103</ele>
        <time>2020-06-21T12:18:54Z</time>
      </trkpt>
      <trkpt lat="49.14572" lon="1.97337">
        <ele>103</ele>
        <time>2020-06-21T12:19:02Z</time>
      </trkpt>
      <trkpt lat="49.14574" lon="1.97322">
        <ele>102</ele>
        <time>2020-06-21T12:19:08Z</time>
      </trkpt>
      <trkpt lat="49.14576" lon="1.97307">
        <ele>102</ele>
        <time>2020-06-21T12:19:15Z</time>
      </trkpt>
      <trkpt lat="49.14575" lon="1.9729">
        <ele>101</ele>
        <time>2020-06-21T12:19:23Z</time>
      </trkpt>
      <trkpt lat="49.14577" lon="1.97276">
        <ele>101</ele>
        <time>2020-06-21T12:19:29Z</time>
      </trkpt>
      <trkpt lat="49.14581" lon="1.97259">
        <ele>101</ele>
        <time>2020-06-21T12:19:37Z</time>
      </trkpt>
      <trkpt lat="49.14584" lon="1.97246">
        <ele>101</ele>
        <time>2020-06-21T12:19:43Z</time>
      </trkpt>
      <trkpt lat="49.14586" lon="1.97231">
        <ele>101</ele>
        <time>2020-06-21T12:19:50Z</time>
      </trkpt>
      <trkpt lat="49.14586" lon="1.97214">
        <ele>100</ele>
        <time>2020-06-21T12:19:58Z</time>
      </trkpt>
      <trkpt lat="49.14586" lon="1.97197">
        <ele>100</ele>
        <time>2020-06-21T12:20:05Z</time>
      </trkpt>
      <trkpt lat="49.14587" lon="1.97181">
        <ele>100</ele>
        <time>2020-06-21T12:20:13Z</time>
      </trkpt>
      <trkpt lat="49.14588" lon="1.97166">
        <ele>99</ele>
        <time>2020-06-21T12:20:20Z</time>
      </trkpt>
      <trkpt lat="49.14588" lon="1.97149">
        <ele>99</ele>
        <time>2020-06-21T12:20:27Z</time>
      </trkpt>
      <trkpt lat="49.14589" lon="1.97133">
        <ele>99</ele>
        <time>2020-06-21T12:20:35Z</time>
      </trkpt>
      <trkpt lat="49.14588" lon="1.97117">
        <ele>99</ele>
        <time>2020-06-21T12:20:42Z</time>
      </trkpt>
      <trkpt lat="49.14589" lon="1.97101">
        <ele>99</ele>
        <time>2020-06-21T12:20:49Z</time>
      </trkpt>
      <trkpt lat="49.14588" lon="1.97084">
        <ele>99</ele>
        <time>2020-06-21T12:20:56Z</time>
      </trkpt>
      <trkpt lat="49.14587" lon="1.97069">
        <ele>99</ele>
        <time>2020-06-21T12:21:03Z</time>
      </trkpt>
      <trkpt lat="49.14585" lon="1.97053">
        <ele>99</ele>
        <time>2020-06-21T12:21:09Z</time>
      </trkpt>
      <trkpt lat="49.14584" lon="1.97038">
        <ele>99</ele>
        <time>2020-06-21T12:21:16Z</time>
      </trkpt>
      <trkpt lat="49.1458" lon="1.97023">
        <ele>98</ele>
        <time>2020-06-21T12:21:23Z</time>
      </trkpt>
      <trkpt lat="49.14578" lon="1.97007">
        <ele>99</ele>
        <time>2020-06-21T12:21:30Z</time>
      </trkpt>
      <trkpt lat="49.14576" lon="1.96992">
        <ele>99</ele>
        <time>2020-06-21T12:21:36Z</time>
      </trkpt>
      <trkpt lat="49.14574" lon="1.96977">
        <ele>99</ele>
        <time>2020-06-21T12:21:42Z</time>
      </trkpt>
      <trkpt lat="49.14574" lon="1.96961">
        <ele>99</ele>
        <time>2020-06-21T12:21:50Z</time>
      </trkpt>
      <trkpt lat="49.14574" lon="1.96947">
        <ele>99</ele>
        <time>2020-06-21T12:21:57Z</time>
      </trkpt>
      <trkpt lat="49.14574" lon="1.96931">
        <ele>99</ele>
        <time>2020-06-21T12:22:04Z</time>
      </trkpt>
      <trkpt lat="49.14569" lon="1.96918">
        <ele>99</ele>
        <time>2020-06-21T12:22:11Z</time>
      </trkpt>
      <trkpt lat="49.14565" lon="1.96902">
        <ele>99</ele>
        <time>2020-06-21T12:22:18Z</time>
      </trkpt>
      <trkpt lat="49.14564" lon="1.96886">
        <ele>99</ele>
        <time>2020-06-21T12:22:26Z</time>
      </trkpt>
      <trkpt lat="49.14565" lon="1.96867">
        <ele>99</ele>
        <time>2020-06-21T12:22:34Z</time>
      </trkpt>
      <trkpt lat="49.14565" lon="1.96853">
        <ele>99</ele>
        <time>2020-06-21T12:22:40Z</time>
      </trkpt>
      <trkpt lat="49.14565" lon="1.96839">
        <ele>99</ele>
        <time>2020-06-21T12:22:46Z</time>
      </trkpt>
      <trkpt lat="49.14566" lon="1.96823">
        <ele>99</ele>
        <time>2020-06-21T12:22:53Z</time>
      </trkpt>
      <trkpt lat="49.14567" lon="1.96807">
        <ele>99</ele>
        <time>2020-06-21T12:23:00Z</time>
      </trkpt>
      <trkpt lat="49.14572" lon="1.96794">
        <ele>99</ele>
        <time>2020-06-21T12:23:08Z</time>
      </trkpt>
      <trkpt lat="49.14576" lon="1.96777">
        <ele>99</ele>
        <time>2020-06-21T12:23:16Z</time>
      </trkpt>
      <trkpt lat="49.14581" lon="1.96764">
        <ele>99</ele>
        <time>2020-06-21T12:23:23Z</time>
      </trkpt>
      <trkpt lat="49.14586" lon="1.96751">
        <ele>98</ele>
        <time>2020-06-21T12:23:29Z</time>
      </trkpt>
      <trkpt lat="49.1459" lon="1.96737">
        <ele>97</ele>
        <time>2020-06-21T12:23:35Z</time>
      </trkpt>
      <trkpt lat="49.14595" lon="1.96722">
        <ele>97</ele>
        <time>2020-06-21T12:23:43Z</time>
      </trkpt>
      <trkpt lat="49.14598" lon="1.96709">
        <ele>97</ele>
        <time>2020-06-21T12:23:49Z</time>
      </trkpt>
      <trkpt lat="49.14602" lon="1.96694">
        <ele>97</ele>
        <time>2020-06-21T12:23:55Z</time>
      </trkpt>
      <trkpt lat="49.14609" lon="1.9668">
        <ele>97</ele>
        <time>2020-06-21T12:24:04Z</time>
      </trkpt>
      <trkpt lat="49.1461" lon="1.96666">
        <ele>96</ele>
        <time>2020-06-21T12:24:11Z</time>
      </trkpt>
      <trkpt lat="49.14613" lon="1.96651">
        <ele>96</ele>
        <time>2020-06-21T12:24:19Z</time>
      </trkpt>
      <trkpt lat="49.14614" lon="1.96637">
        <ele>96</ele>
        <time>2020-06-21T12:24:27Z</time>
      </trkpt>
      <trkpt lat="49.14614" lon="1.96622">
        <ele>96</ele>
        <time>2020-06-21T12:24:33Z</time>
      </trkpt>
      <trkpt lat="49.14614" lon="1.96607">
        <ele>96</ele>
        <time>2020-06-21T12:24:39Z</time>
      </trkpt>
      <trkpt lat="49.14614" lon="1.96591">
        <ele>96</ele>
        <time>2020-06-21T12:24:47Z</time>
      </trkpt>
      <trkpt lat="49.14616" lon="1.96575">
        <ele>95</ele>
        <time>2020-06-21T12:24:55Z</time>
      </trkpt>
      <trkpt lat="49.14618" lon="1.9656">
        <ele>95</ele>
        <time>2020-06-21T12:25:03Z</time>
      </trkpt>
      <trkpt lat="49.14621" lon="1.96545">
        <ele>95</ele>
        <time>2020-06-21T12:25:11Z</time>
      </trkpt>
      <trkpt lat="49.14621" lon="1.96528">
        <ele>95</ele>
        <time>2020-06-21T12:25:18Z</time>
      </trkpt>
      <trkpt lat="49.1462" lon="1.96511">
        <ele>95</ele>
        <time>2020-06-21T12:25:25Z</time>
      </trkpt>
      <trkpt lat="49.14619" lon="1.96495">
        <ele>95</ele>
        <time>2020-06-21T12:25:33Z</time>
      </trkpt>
      <trkpt lat="49.14621" lon="1.96479">
        <ele>94</ele>
        <time>2020-06-21T12:25:41Z</time>
      </trkpt>
      <trkpt lat="49.14627" lon="1.96467">
        <ele>94</ele>
        <time>2020-06-21T12:25:48Z</time>
      </trkpt>
      <trkpt lat="49.14632" lon="1.96454">
        <ele>94</ele>
        <time>2020-06-21T12:25:57Z</time>
      </trkpt>
      <trkpt lat="49.14623" lon="1.96446">
        <ele>94</ele>
        <time>2020-06-21T12:26:04Z</time>
      </trkpt>
      <trkpt lat="49.14621" lon="1.96432">
        <ele>94</ele>
        <time>2020-06-21T12:26:10Z</time>
      </trkpt>
      <trkpt lat="49.14622" lon="1.96412">
        <ele>94</ele>
        <time>2020-06-21T12:26:14Z</time>
      </trkpt>
      <trkpt lat="49.14619" lon="1.96398">
        <ele>94</ele>
        <time>2020-06-21T12:26:19Z</time>
      </trkpt>
      <trkpt lat="49.14608" lon="1.96398">
        <ele>94</ele>
        <time>2020-06-21T12:26:26Z</time>
      </trkpt>
      <trkpt lat="49.14598" lon="1.96404">
        <ele>95</ele>
        <time>2020-06-21T12:26:34Z</time>
      </trkpt>
      <trkpt lat="49.14588" lon="1.96411">
        <ele>95</ele>
        <time>2020-06-21T12:26:42Z</time>
      </trkpt>
      <trkpt lat="49.14579" lon="1.96416">
        <ele>96</ele>
        <time>2020-06-21T12:26:49Z</time>
      </trkpt>
      <trkpt lat="49.1457" lon="1.9642">
        <ele>97</ele>
        <time>2020-06-21T12:26:55Z</time>
      </trkpt>
      <trkpt lat="49.1456" lon="1.96422">
        <ele>98</ele>
        <time>2020-06-21T12:27:03Z</time>
      </trkpt>
      <trkpt lat="49.14549" lon="1.96423">
        <ele>98</ele>
        <time>2020-06-21T12:27:10Z</time>
      </trkpt>
      <trkpt lat="49.14539" lon="1.96424">
        <ele>98</ele>
        <time>2020-06-21T12:27:17Z</time>
      </trkpt>
      <trkpt lat="49.1453" lon="1.96427">
        <ele>99</ele>
        <time>2020-06-21T12:27:23Z</time>
      </trkpt>
      <trkpt lat="49.14523" lon="1.96413">
        <ele>99</ele>
        <time>2020-06-21T12:27:36Z</time>
      </trkpt>
      <trkpt lat="49.14523" lon="1.96397">
        <ele>99</ele>
        <time>2020-06-21T12:27:44Z</time>
      </trkpt>
      <trkpt lat="49.14522" lon="1.96383">
        <ele>99</ele>
        <time>2020-06-21T12:27:50Z</time>
      </trkpt>
      <trkpt lat="49.14522" lon="1.96367">
        <ele>99</ele>
        <time>2020-06-21T12:27:59Z</time>
      </trkpt>
      <trkpt lat="49.14522" lon="1.96352">
        <ele>99</ele>
        <time>2020-06-21T12:28:07Z</time>
      </trkpt>
      <trkpt lat="49.14522" lon="1.96335">
        <ele>99</ele>
        <time>2020-06-21T12:28:15Z</time>
      </trkpt>
      <trkpt lat="49.1452" lon="1.96318">
        <ele>99</ele>
        <time>2020-06-21T12:28:23Z</time>
      </trkpt>
      <trkpt lat="49.14519" lon="1.96302">
        <ele>99</ele>
        <time>2020-06-21T12:28:31Z</time>
      </trkpt>
      <trkpt lat="49.14518" lon="1.96286">
        <ele>99</ele>
        <time>2020-06-21T12:28:38Z</time>
      </trkpt>
      <trkpt lat="49.14517" lon="1.9627">
        <ele>99</ele>
        <time>2020-06-21T12:28:46Z</time>
      </trkpt>
      <trkpt lat="49.14515" lon="1.96254">
        <ele>99</ele>
        <time>2020-06-21T12:28:53Z</time>
      </trkpt>
      <trkpt lat="49.14513" lon="1.96237">
        <ele>99</ele>
        <time>2020-06-21T12:29:01Z</time>
      </trkpt>
      <trkpt lat="49.1451" lon="1.9622">
        <ele>99</ele>
        <time>2020-06-21T12:29:08Z</time>
      </trkpt>
      <trkpt lat="49.14509" lon="1.96205">
        <ele>98</ele>
        <time>2020-06-21T12:29:14Z</time>
      </trkpt>
      <trkpt lat="49.14506" lon="1.96188">
        <ele>99</ele>
        <time>2020-06-21T12:29:22Z</time>
      </trkpt>
      <trkpt lat="49.14503" lon="1.96173">
        <ele>99</ele>
        <time>2020-06-21T12:29:29Z</time>
      </trkpt>
      <trkpt lat="49.14501" lon="1.96157">
        <ele>99</ele>
        <time>2020-06-21T12:29:36Z</time>
      </trkpt>
      <trkpt lat="49.14498" lon="1.96142">
        <ele>99</ele>
        <time>2020-06-21T12:29:43Z</time>
      </trkpt>
      <trkpt lat="49.14494" lon="1.96128">
        <ele>99</ele>
        <time>2020-06-21T12:29:50Z</time>
      </trkpt>
      <trkpt lat="49.14489" lon="1.96115">
        <ele>99</ele>
        <time>2020-06-21T12:29:57Z</time>
      </trkpt>
      <trkpt lat="49.14483" lon="1.96103">
        <ele>99</ele>
        <time>2020-06-21T12:30:03Z</time>
      </trkpt>
      <trkpt lat="49.14474" lon="1.96092">
        <ele>99</ele>
        <time>2020-06-21T12:30:11Z</time>
      </trkpt>
      <trkpt lat="49.14465" lon="1.96084">
        <ele>99</ele>
        <time>2020-06-21T12:30:17Z</time>
      </trkpt>
      <trkpt lat="49.14455" lon="1.96077">
        <ele>99</ele>
        <time>2020-06-21T12:30:23Z</time>
      </trkpt>
      <trkpt lat="49.14446" lon="1.96069">
        <ele>98</ele>
        <time>2020-06-21T12:30:29Z</time>
      </trkpt>
      <trkpt lat="49.14437" lon="1.96062">
        <ele>98</ele>
        <time>2020-06-21T12:30:35Z</time>
      </trkpt>
      <trkpt lat="49.14429" lon="1.96054">
        <ele>98</ele>
        <time>2020-06-21T12:30:42Z</time>
      </trkpt>
      <trkpt lat="49.14419" lon="1.96045">
        <ele>98</ele>
        <time>2020-06-21T12:30:50Z</time>
      </trkpt>
      <trkpt lat="49.14411" lon="1.96037">
        <ele>98</ele>
        <time>2020-06-21T12:30:58Z</time>
      </trkpt>
      <trkpt lat="49.14402" lon="1.96027">
        <ele>98</ele>
        <time>2020-06-21T12:31:05Z</time>
      </trkpt>
      <trkpt lat="49.14393" lon="1.96022">
        <ele>98</ele>
        <time>2020-06-21T12:31:11Z</time>
      </trkpt>
      <trkpt lat="49.14385" lon="1.96014">
        <ele>98</ele>
        <time>2020-06-21T12:31:19Z</time>
      </trkpt>
      <trkpt lat="49.14375" lon="1.96008">
        <ele>98</ele>
        <time>2020-06-21T12:31:26Z</time>
      </trkpt>
      <trkpt lat="49.14365" lon="1.96003">
        <ele>98</ele>
        <time>2020-06-21T12:31:32Z</time>
      </trkpt>
      <trkpt lat="49.14356" lon="1.95996">
        <ele>97</ele>
        <time>2020-06-21T12:31:38Z</time>
      </trkpt>
      <trkpt lat="49.14347" lon="1.95989">
        <ele>97</ele>
        <time>2020-06-21T12:31:44Z</time>
      </trkpt>
      <trkpt lat="49.14338" lon="1.95981">
        <ele>97</ele>
        <time>2020-06-21T12:31:51Z</time>
      </trkpt>
      <trkpt lat="49.14328" lon="1.95973">
        <ele>99</ele>
        <time>2020-06-21T12:31:59Z</time>
      </trkpt>
      <trkpt lat="49.1432" lon="1.95967">
        <ele>99</ele>
        <time>2020-06-21T12:32:05Z</time>
      </trkpt>
      <trkpt lat="49.14311" lon="1.95961">
        <ele>99</ele>
        <time>2020-06-21T12:32:11Z</time>
      </trkpt>
      <trkpt lat="49.14302" lon="1.95953">
        <ele>99</ele>
        <time>2020-06-21T12:32:19Z</time>
      </trkpt>
      <trkpt lat="49.14293" lon="1.95946">
        <ele>99</ele>
        <time>2020-06-21T12:32:25Z</time>
      </trkpt>
      <trkpt lat="49.14284" lon="1.95938">
        <ele>99</ele>
        <time>2020-06-21T12:32:31Z</time>
      </trkpt>
      <trkpt lat="49.14275" lon="1.95931">
        <ele>99</ele>
        <time>2020-06-21T12:32:38Z</time>
      </trkpt>
      <trkpt lat="49.14265" lon="1.95925">
        <ele>99</ele>
        <time>2020-06-21T12:32:46Z</time>
      </trkpt>
      <trkpt lat="49.14256" lon="1.95915">
        <ele>99</ele>
        <time>2020-06-21T12:32:54Z</time>
      </trkpt>
      <trkpt lat="49.14246" lon="1.95909">
        <ele>100</ele>
        <time>2020-06-21T12:33:01Z</time>
      </trkpt>
      <trkpt lat="49.14236" lon="1.95902">
        <ele>100</ele>
        <time>2020-06-21T12:33:09Z</time>
      </trkpt>
      <trkpt lat="49.14228" lon="1.95895">
        <ele>99</ele>
        <time>2020-06-21T12:33:15Z</time>
      </trkpt>
      <trkpt lat="49.14219" lon="1.95889">
        <ele>99</ele>
        <time>2020-06-21T12:33:24Z</time>
      </trkpt>
      <trkpt lat="49.14208" lon="1.95884">
        <ele>99</ele>
        <time>2020-06-21T12:33:32Z</time>
      </trkpt>
      <trkpt lat="49.14198" lon="1.95877">
        <ele>99</ele>
        <time>2020-06-21T12:33:39Z</time>
      </trkpt>
      <trkpt lat="49.14189" lon="1.95869">
        <ele>99</ele>
        <time>2020-06-21T12:33:46Z</time>
      </trkpt>
      <trkpt lat="49.14181" lon="1.9586">
        <ele>99</ele>
        <time>2020-06-21T12:33:53Z</time>
      </trkpt>
      <trkpt lat="49.14172" lon="1.95853">
        <ele>99</ele>
        <time>2020-06-21T12:34:01Z</time>
      </trkpt>
      <trkpt lat="49.14163" lon="1.95848">
        <ele>100</ele>
        <time>2020-06-21T12:34:07Z</time>
      </trkpt>
      <trkpt lat="49.14153" lon="1.9584">
        <ele>100</ele>
        <time>2020-06-21T12:34:13Z</time>
      </trkpt>
      <trkpt lat="49.14144" lon="1.95838">
        <ele>101</ele>
        <time>2020-06-21T12:34:19Z</time>
      </trkpt>
      <trkpt lat="49.14134" lon="1.95832">
        <ele>100</ele>
        <time>2020-06-21T12:34:27Z</time>
      </trkpt>
      <trkpt lat="49.14126" lon="1.95825">
        <ele>100</ele>
        <time>2020-06-21T12:34:33Z</time>
      </trkpt>
      <trkpt lat="49.14115" lon="1.95817">
        <ele>100</ele>
        <time>2020-06-21T12:34:41Z</time>
      </trkpt>
      <trkpt lat="49.14106" lon="1.9581">
        <ele>100</ele>
        <time>2020-06-21T12:34:47Z</time>
      </trkpt>
      <trkpt lat="49.14096" lon="1.95804">
        <ele>100</ele>
        <time>2020-06-21T12:34:55Z</time>
      </trkpt>
      <trkpt lat="49.14086" lon="1.95798">
        <ele>100</ele>
        <time>2020-06-21T12:35:02Z</time>
      </trkpt>
      <trkpt lat="49.14077" lon="1.95793">
        <ele>102</ele>
        <time>2020-06-21T12:35:08Z</time>
      </trkpt>
      <trkpt lat="49.14067" lon="1.95789">
        <ele>102</ele>
        <time>2020-06-21T12:35:15Z</time>
      </trkpt>
      <trkpt lat="49.14059" lon="1.95783">
        <ele>102</ele>
        <time>2020-06-21T12:35:21Z</time>
      </trkpt>
      <trkpt lat="49.14049" lon="1.95777">
        <ele>102</ele>
        <time>2020-06-21T12:35:29Z</time>
      </trkpt>
      <trkpt lat="49.14039" lon="1.9577">
        <ele>102</ele>
        <time>2020-06-21T12:35:36Z</time>
      </trkpt>
      <trkpt lat="49.1403" lon="1.95764">
        <ele>102</ele>
        <time>2020-06-21T12:35:42Z</time>
      </trkpt>
      <trkpt lat="49.14021" lon="1.95759">
        <ele>102</ele>
        <time>2020-06-21T12:35:49Z</time>
      </trkpt>
      <trkpt lat="49.1401" lon="1.95755">
        <ele>102</ele>
        <time>2020-06-21T12:35:57Z</time>
      </trkpt>
      <trkpt lat="49.14" lon="1.95754">
        <ele>102</ele>
        <time>2020-06-21T12:36:04Z</time>
      </trkpt>
      <trkpt lat="49.1399" lon="1.9575">
        <ele>103</ele>
        <time>2020-06-21T12:36:10Z</time>
      </trkpt>
      <trkpt lat="49.13979" lon="1.95746">
        <ele>103</ele>
        <time>2020-06-21T12:36:16Z</time>
      </trkpt>
      <trkpt lat="49.13969" lon="1.95743">
        <ele>104</ele>
        <time>2020-06-21T12:36:23Z</time>
      </trkpt>
      <trkpt lat="49.13958" lon="1.95738">
        <ele>104</ele>
        <time>2020-06-21T12:36:30Z</time>
      </trkpt>
      <trkpt lat="49.13948" lon="1.95735">
        <ele>104</ele>
        <time>2020-06-21T12:36:38Z</time>
      </trkpt>
      <trkpt lat="49.13938" lon="1.95732">
        <ele>104</ele>
        <time>2020-06-21T12:36:45Z</time>
      </trkpt>
      <trkpt lat="49.13928" lon="1.95727">
        <ele>104</ele>
        <time>2020-06-21T12:36:52Z</time>
      </trkpt>
      <trkpt lat="49.13918" lon="1.95722">
        <ele>105</ele>
        <time>2020-06-21T12:37:00Z</time>
      </trkpt>
      <trkpt lat="49.13907" lon="1.95717">
        <ele>106</ele>
        <time>2020-06-21T12:37:08Z</time>
      </trkpt>
      <trkpt lat="49.13896" lon="1.95712">
        <ele>106</ele>
        <time>2020-06-21T12:37:16Z</time>
      </trkpt>
      <trkpt lat="49.13886" lon="1.95706">
        <ele>107</ele>
        <time>2020-06-21T12:37:23Z</time>
      </trkpt>
      <trkpt lat="49.13876" lon="1.957">
        <ele>107</ele>
        <time>2020-06-21T12:37:30Z</time>
      </trkpt>
      <trkpt lat="49.13867" lon="1.95694">
        <ele>107</ele>
        <time>2020-06-21T12:37:37Z</time>
      </trkpt>
      <trkpt lat="49.13857" lon="1.95688">
        <ele>107</ele>
        <time>2020-06-21T12:37:44Z</time>
      </trkpt>
      <trkpt lat="49.13846" lon="1.95682">
        <ele>107</ele>
        <time>2020-06-21T12:37:51Z</time>
      </trkpt>
      <trkpt lat="49.13837" lon="1.95677">
        <ele>108</ele>
        <time>2020-06-21T12:37:57Z</time>
      </trkpt>
      <trkpt lat="49.13828" lon="1.95672">
        <ele>108</ele>
        <time>2020-06-21T12:38:03Z</time>
      </trkpt>
      <trkpt lat="49.1382" lon="1.95662">
        <ele>108</ele>
        <time>2020-06-21T12:38:10Z</time>
      </trkpt>
      <trkpt lat="49.13809" lon="1.95655">
        <ele>108</ele>
        <time>2020-06-21T12:38:18Z</time>
      </trkpt>
      <trkpt lat="49.13799" lon="1.95653">
        <ele>108</ele>
        <time>2020-06-21T12:38:24Z</time>
      </trkpt>
      <trkpt lat="49.13789" lon="1.95648">
        <ele>108</ele>
        <time>2020-06-21T12:38:32Z</time>
      </trkpt>
      <trkpt lat="49.13778" lon="1.9564">
        <ele>108</ele>
        <time>2020-06-21T12:38:39Z</time>
      </trkpt>
      <trkpt lat="49.13768" lon="1.95633">
        <ele>108</ele>
        <time>2020-06-21T12:38:47Z</time>
      </trkpt>
      <trkpt lat="49.13762" lon="1.95622">
        <ele>108</ele>
        <time>2020-06-21T12:43:21Z</time>
      </trkpt>
      <trkpt lat="49.13762" lon="1.95606">
        <ele>108</ele>
        <time>2020-06-21T12:43:33Z</time>
      </trkpt>
      <trkpt lat="49.13762" lon="1.95588">
        <ele>108</ele>
        <time>2020-06-21T12:43:41Z</time>
      </trkpt>
      <trkpt lat="49.13761" lon="1.95572">
        <ele>108</ele>
        <time>2020-06-21T12:43:49Z</time>
      </trkpt>
      <trkpt lat="49.13762" lon="1.95556">
        <ele>107</ele>
        <time>2020-06-21T12:43:57Z</time>
      </trkpt>
      <trkpt lat="49.13763" lon="1.9554">
        <ele>107</ele>
        <time>2020-06-21T12:44:04Z</time>
      </trkpt>
      <trkpt lat="49.13763" lon="1.95525">
        <ele>107</ele>
        <time>2020-06-21T12:44:10Z</time>
      </trkpt>
      <trkpt lat="49.13762" lon="1.95511">
        <ele>107</ele>
        <time>2020-06-21T12:44:16Z</time>
      </trkpt>
      <trkpt lat="49.13763" lon="1.95496">
        <ele>107</ele>
        <time>2020-06-21T12:44:22Z</time>
      </trkpt>
      <trkpt lat="49.13764" lon="1.95481">
        <ele>107</ele>
        <time>2020-06-21T12:44:28Z</time>
      </trkpt>
      <trkpt lat="49.13764" lon="1.95467">
        <ele>107</ele>
        <time>2020-06-21T12:44:34Z</time>
      </trkpt>
      <trkpt lat="49.13765" lon="1.95453">
        <ele>107</ele>
        <time>2020-06-21T12:44:40Z</time>
      </trkpt>
      <trkpt lat="49.13768" lon="1.95438">
        <ele>107</ele>
        <time>2020-06-21T12:44:48Z</time>
      </trkpt>
      <trkpt lat="49.13769" lon="1.95423">
        <ele>107</ele>
        <time>2020-06-21T12:44:54Z</time>
      </trkpt>
      <trkpt lat="49.13771" lon="1.95408">
        <ele>107</ele>
        <time>2020-06-21T12:45:00Z</time>
      </trkpt>
      <trkpt lat="49.13773" lon="1.95393">
        <ele>107</ele>
        <time>2020-06-21T12:45:06Z</time>
      </trkpt>
      <trkpt lat="49.13773" lon="1.95379">
        <ele>107</ele>
        <time>2020-06-21T12:45:12Z</time>
      </trkpt>
      <trkpt lat="49.13774" lon="1.95362">
        <ele>107</ele>
        <time>2020-06-21T12:45:20Z</time>
      </trkpt>
      <trkpt lat="49.13778" lon="1.95347">
        <ele>107</ele>
        <time>2020-06-21T12:45:27Z</time>
      </trkpt>
      <trkpt lat="49.13781" lon="1.95333">
        <ele>107</ele>
        <time>2020-06-21T12:45:33Z</time>
      </trkpt>
      <trkpt lat="49.13783" lon="1.95319">
        <ele>107</ele>
        <time>2020-06-21T12:45:39Z</time>
      </trkpt>
      <trkpt lat="49.13786" lon="1.95304">
        <ele>107</ele>
        <time>2020-06-21T12:45:45Z</time>
      </trkpt>
      <trkpt lat="49.13788" lon="1.95288">
        <ele>107</ele>
        <time>2020-06-21T12:45:52Z</time>
      </trkpt>
      <trkpt lat="49.13791" lon="1.95274">
        <ele>107</ele>
        <time>2020-06-21T12:45:59Z</time>
      </trkpt>
      <trkpt lat="49.13794" lon="1.95259">
        <ele>107</ele>
        <time>2020-06-21T12:46:05Z</time>
      </trkpt>
      <trkpt lat="49.13796" lon="1.95244">
        <ele>107</ele>
        <time>2020-06-21T12:46:11Z</time>
      </trkpt>
      <trkpt lat="49.13798" lon="1.95227">
        <ele>107</ele>
        <time>2020-06-21T12:46:18Z</time>
      </trkpt>
      <trkpt lat="49.13802" lon="1.95215">
        <ele>107</ele>
        <time>2020-06-21T12:46:24Z</time>
      </trkpt>
      <trkpt lat="49.13805" lon="1.95202">
        <ele>107</ele>
        <time>2020-06-21T12:46:30Z</time>
      </trkpt>
      <trkpt lat="49.13807" lon="1.95188">
        <ele>107</ele>
        <time>2020-06-21T12:46:36Z</time>
      </trkpt>
      <trkpt lat="49.13809" lon="1.95172">
        <ele>107</ele>
        <time>2020-06-21T12:46:56Z</time>
      </trkpt>
      <trkpt lat="49.13809" lon="1.95156">
        <ele>107</ele>
        <time>2020-06-21T12:47:04Z</time>
      </trkpt>
      <trkpt lat="49.13808" lon="1.95142">
        <ele>107</ele>
        <time>2020-06-21T12:47:10Z</time>
      </trkpt>
      <trkpt lat="49.13809" lon="1.95127">
        <ele>107</ele>
        <time>2020-06-21T12:47:18Z</time>
      </trkpt>
      <trkpt lat="49.13809" lon="1.95113">
        <ele>107</ele>
        <time>2020-06-21T12:47:24Z</time>
      </trkpt>
      <trkpt lat="49.13809" lon="1.95097">
        <ele>107</ele>
        <time>2020-06-21T12:47:31Z</time>
      </trkpt>
      <trkpt lat="49.13808" lon="1.95081">
        <ele>108</ele>
        <time>2020-06-21T12:47:39Z</time>
      </trkpt>
      <trkpt lat="49.13806" lon="1.95065">
        <ele>108</ele>
        <time>2020-06-21T12:47:47Z</time>
      </trkpt>
      <trkpt lat="49.13804" lon="1.95052">
        <ele>108</ele>
        <time>2020-06-21T12:47:53Z</time>
      </trkpt>
      <trkpt lat="49.13802" lon="1.95036">
        <ele>109</ele>
        <time>2020-06-21T12:48:01Z</time>
      </trkpt>
      <trkpt lat="49.13799" lon="1.95021">
        <ele>109</ele>
        <time>2020-06-21T12:48:07Z</time>
      </trkpt>
      <trkpt lat="49.13799" lon="1.95006">
        <ele>109</ele>
        <time>2020-06-21T12:48:13Z</time>
      </trkpt>
      <trkpt lat="49.13798" lon="1.94992">
        <ele>109</ele>
        <time>2020-06-21T12:48:20Z</time>
      </trkpt>
      <trkpt lat="49.13799" lon="1.94975">
        <ele>109</ele>
        <time>2020-06-21T12:48:32Z</time>
      </trkpt>
      <trkpt lat="49.13803" lon="1.94962">
        <ele>109</ele>
        <time>2020-06-21T12:48:44Z</time>
      </trkpt>
      <trkpt lat="49.13806" lon="1.94947">
        <ele>109</ele>
        <time>2020-06-21T12:48:53Z</time>
      </trkpt>
      <trkpt lat="49.13805" lon="1.94933">
        <ele>109</ele>
        <time>2020-06-21T12:49:01Z</time>
      </trkpt>
      <trkpt lat="49.13804" lon="1.94918">
        <ele>109</ele>
        <time>2020-06-21T12:49:08Z</time>
      </trkpt>
      <trkpt lat="49.13802" lon="1.94903">
        <ele>108</ele>
        <time>2020-06-21T12:49:14Z</time>
      </trkpt>
      <trkpt lat="49.138" lon="1.94887">
        <ele>108</ele>
        <time>2020-06-21T12:49:20Z</time>
      </trkpt>
      <trkpt lat="49.13798" lon="1.94871">
        <ele>108</ele>
        <time>2020-06-21T12:49:26Z</time>
      </trkpt>
      <trkpt lat="49.13797" lon="1.94854">
        <ele>108</ele>
        <time>2020-06-21T12:49:32Z</time>
      </trkpt>
      <trkpt lat="49.13795" lon="1.94838">
        <ele>108</ele>
        <time>2020-06-21T12:49:38Z</time>
      </trkpt>
      <trkpt lat="49.13794" lon="1.94822">
        <ele>107</ele>
        <time>2020-06-21T12:49:44Z</time>
      </trkpt>
      <trkpt lat="49.13792" lon="1.94806">
        <ele>107</ele>
        <time>2020-06-21T12:49:51Z</time>
      </trkpt>
      <trkpt lat="49.13791" lon="1.94791">
        <ele>106</ele>
        <time>2020-06-21T12:49:59Z</time>
      </trkpt>
      <trkpt lat="49.13788" lon="1.94776">
        <ele>106</ele>
        <time>2020-06-21T12:50:05Z</time>
      </trkpt>
      <trkpt lat="49.13785" lon="1.94759">
        <ele>105</ele>
        <time>2020-06-21T12:50:11Z</time>
      </trkpt>
      <trkpt lat="49.13781" lon="1.94743">
        <ele>102</ele>
        <time>2020-06-21T12:50:17Z</time>
      </trkpt>
      <trkpt lat="49.13779" lon="1.94728">
        <ele>101</ele>
        <time>2020-06-21T12:50:23Z</time>
      </trkpt>
      <trkpt lat="49.13776" lon="1.94714">
        <ele>100</ele>
        <time>2020-06-21T12:50:29Z</time>
      </trkpt>
      <trkpt lat="49.13776" lon="1.94698">
        <ele>99</ele>
        <time>2020-06-21T12:50:36Z</time>
      </trkpt>
      <trkpt lat="49.13776" lon="1.94681">
        <ele>98</ele>
        <time>2020-06-21T12:50:44Z</time>
      </trkpt>
      <trkpt lat="49.13779" lon="1.94666">
        <ele>93</ele>
        <time>2020-06-21T12:50:51Z</time>
      </trkpt>
      <trkpt lat="49.13784" lon="1.94652">
        <ele>94</ele>
        <time>2020-06-21T12:50:58Z</time>
      </trkpt>
      <trkpt lat="49.13788" lon="1.94638">
        <ele>94</ele>
        <time>2020-06-21T12:51:06Z</time>
      </trkpt>
      <trkpt lat="49.13794" lon="1.94623">
        <ele>94</ele>
        <time>2020-06-21T12:51:14Z</time>
      </trkpt>
      <trkpt lat="49.138" lon="1.9461">
        <ele>94</ele>
        <time>2020-06-21T12:51:21Z</time>
      </trkpt>
      <trkpt lat="49.13804" lon="1.94594">
        <ele>94</ele>
        <time>2020-06-21T12:51:29Z</time>
      </trkpt>
      <trkpt lat="49.13798" lon="1.94582">
        <ele>88</ele>
        <time>2020-06-21T12:51:50Z</time>
      </trkpt>
      <trkpt lat="49.13788" lon="1.9458">
        <ele>86</ele>
        <time>2020-06-21T12:51:58Z</time>
      </trkpt>
      <trkpt lat="49.13779" lon="1.94576">
        <ele>85</ele>
        <time>2020-06-21T12:52:06Z</time>
      </trkpt>
      <trkpt lat="49.13773" lon="1.94565">
        <ele>85</ele>
        <time>2020-06-21T12:52:17Z</time>
      </trkpt>
      <trkpt lat="49.13772" lon="1.9455">
        <ele>84</ele>
        <time>2020-06-21T12:52:25Z</time>
      </trkpt>
      <trkpt lat="49.13771" lon="1.94532">
        <ele>83</ele>
        <time>2020-06-21T12:52:33Z</time>
      </trkpt>
      <trkpt lat="49.13772" lon="1.94515">
        <ele>82</ele>
        <time>2020-06-21T12:52:41Z</time>
      </trkpt>
      <trkpt lat="49.13774" lon="1.945">
        <ele>77</ele>
        <time>2020-06-21T12:52:48Z</time>
      </trkpt>
      <trkpt lat="49.13777" lon="1.94486">
        <ele>77</ele>
        <time>2020-06-21T12:52:54Z</time>
      </trkpt>
      <trkpt lat="49.13779" lon="1.94471">
        <ele>77</ele>
        <time>2020-06-21T12:53:01Z</time>
      </trkpt>
      <trkpt lat="49.13778" lon="1.94453">
        <ele>76</ele>
        <time>2020-06-21T12:53:07Z</time>
      </trkpt>
      <trkpt lat="49.13776" lon="1.94437">
        <ele>75</ele>
        <time>2020-06-21T12:53:14Z</time>
      </trkpt>
      <trkpt lat="49.13775" lon="1.94422">
        <ele>74</ele>
        <time>2020-06-21T12:53:19Z</time>
      </trkpt>
      <trkpt lat="49.13774" lon="1.94407">
        <ele>70</ele>
        <time>2020-06-21T12:53:27Z</time>
      </trkpt>
      <trkpt lat="49.13774" lon="1.94392">
        <ele>70</ele>
        <time>2020-06-21T12:53:34Z</time>
      </trkpt>
      <trkpt lat="49.13768" lon="1.94376">
        <ele>69</ele>
        <time>2020-06-21T12:53:40Z</time>
      </trkpt>
      <trkpt lat="49.13764" lon="1.94362">
        <ele>68</ele>
        <time>2020-06-21T12:53:49Z</time>
      </trkpt>
      <trkpt lat="49.1376" lon="1.94347">
        <ele>66</ele>
        <time>2020-06-21T12:53:57Z</time>
      </trkpt>
      <trkpt lat="49.13754" lon="1.94335">
        <ele>64</ele>
        <time>2020-06-21T12:54:52Z</time>
      </trkpt>
      <trkpt lat="49.13744" lon="1.94339">
        <ele>63</ele>
        <time>2020-06-21T12:54:59Z</time>
      </trkpt>
      <trkpt lat="49.13735" lon="1.94344">
        <ele>64</ele>
        <time>2020-06-21T12:55:07Z</time>
      </trkpt>
      <trkpt lat="49.13725" lon="1.94345">
        <ele>64</ele>
        <time>2020-06-21T12:55:15Z</time>
      </trkpt>
      <trkpt lat="49.13714" lon="1.94345">
        <ele>64</ele>
        <time>2020-06-21T12:55:22Z</time>
      </trkpt>
      <trkpt lat="49.13703" lon="1.94346">
        <ele>63</ele>
        <time>2020-06-21T12:55:30Z</time>
      </trkpt>
      <trkpt lat="49.13694" lon="1.94339">
        <ele>63</ele>
        <time>2020-06-21T12:55:38Z</time>
      </trkpt>
      <trkpt lat="49.13688" lon="1.94325">
        <ele>60</ele>
        <time>2020-06-21T12:55:46Z</time>
      </trkpt>
      <trkpt lat="49.13685" lon="1.94312">
        <ele>60</ele>
        <time>2020-06-21T12:55:52Z</time>
      </trkpt>
      <trkpt lat="49.1368" lon="1.943">
        <ele>60</ele>
        <time>2020-06-21T12:56:00Z</time>
      </trkpt>
      <trkpt lat="49.13674" lon="1.9429">
        <ele>60</ele>
        <time>2020-06-21T12:56:06Z</time>
      </trkpt>
      <trkpt lat="49.13667" lon="1.94282">
        <ele>59</ele>
        <time>2020-06-21T12:56:12Z</time>
      </trkpt>
      <trkpt lat="49.1366" lon="1.9427">
        <ele>59</ele>
        <time>2020-06-21T12:56:22Z</time>
      </trkpt>
      <trkpt lat="49.13651" lon="1.94261">
        <ele>58</ele>
        <time>2020-06-21T12:56:31Z</time>
      </trkpt>
      <trkpt lat="49.13644" lon="1.94252">
        <ele>58</ele>
        <time>2020-06-21T12:56:39Z</time>
      </trkpt>
      <trkpt lat="49.13636" lon="1.94242">
        <ele>58</ele>
        <time>2020-06-21T12:56:47Z</time>
      </trkpt>
      <trkpt lat="49.13628" lon="1.9423">
        <ele>58</ele>
        <time>2020-06-21T12:56:55Z</time>
      </trkpt>
      <trkpt lat="49.1362" lon="1.94222">
        <ele>58</ele>
        <time>2020-06-21T12:57:03Z</time>
      </trkpt>
      <trkpt lat="49.13612" lon="1.94211">
        <ele>58</ele>
        <time>2020-06-21T12:57:11Z</time>
      </trkpt>
      <trkpt lat="49.13604" lon="1.94202">
        <ele>58</ele>
        <time>2020-06-21T12:57:19Z</time>
      </trkpt>
      <trkpt lat="49.13598" lon="1.9419">
        <ele>58</ele>
        <time>2020-06-21T12:57:25Z</time>
      </trkpt>
      <trkpt lat="49.13591" lon="1.94178">
        <ele>58</ele>
        <time>2020-06-21T12:57:32Z</time>
      </trkpt>
      <trkpt lat="49.13583" lon="1.94168">
        <ele>58</ele>
        <time>2020-06-21T12:57:38Z</time>
      </trkpt>
      <trkpt lat="49.13577" lon="1.94156">
        <ele>59</ele>
        <time>2020-06-21T12:57:45Z</time>
      </trkpt>
      <trkpt lat="49.13573" lon="1.94143">
        <ele>60</ele>
        <time>2020-06-21T12:57:53Z</time>
      </trkpt>
      <trkpt lat="49.13566" lon="1.94128">
        <ele>60</ele>
        <time>2020-06-21T12:58:01Z</time>
      </trkpt>
      <trkpt lat="49.13561" lon="1.94115">
        <ele>61</ele>
        <time>2020-06-21T12:58:08Z</time>
      </trkpt>
      <trkpt lat="49.13557" lon="1.941">
        <ele>61</ele>
        <time>2020-06-21T12:58:15Z</time>
      </trkpt>
      <trkpt lat="49.13553" lon="1.94087">
        <ele>61</ele>
        <time>2020-06-21T12:58:21Z</time>
      </trkpt>
      <trkpt lat="49.13548" lon="1.94074">
        <ele>66</ele>
        <time>2020-06-21T12:58:28Z</time>
      </trkpt>
      <trkpt lat="49.13545" lon="1.94058">
        <ele>67</ele>
        <time>2020-06-21T12:58:36Z</time>
      </trkpt>
      <trkpt lat="49.13548" lon="1.94043">
        <ele>67</ele>
        <time>2020-06-21T12:58:44Z</time>
      </trkpt>
      <trkpt lat="49.13557" lon="1.94035">
        <ele>67</ele>
        <time>2020-06-21T12:58:53Z</time>
      </trkpt>
      <trkpt lat="49.13567" lon="1.9403">
        <ele>67</ele>
        <time>2020-06-21T12:59:00Z</time>
      </trkpt>
      <trkpt lat="49.13577" lon="1.94028">
        <ele>67</ele>
        <time>2020-06-21T12:59:07Z</time>
      </trkpt>
      <trkpt lat="49.13586" lon="1.94021">
        <ele>63</ele>
        <time>2020-06-21T12:59:13Z</time>
      </trkpt>
      <trkpt lat="49.13594" lon="1.94011">
        <ele>64</ele>
        <time>2020-06-21T12:59:21Z</time>
      </trkpt>
      <trkpt lat="49.13601" lon="1.94001">
        <ele>64</ele>
        <time>2020-06-21T12:59:27Z</time>
      </trkpt>
      <trkpt lat="49.13607" lon="1.93988">
        <ele>66</ele>
        <time>2020-06-21T12:59:35Z</time>
      </trkpt>
      <trkpt lat="49.13615" lon="1.93975">
        <ele>66</ele>
        <time>2020-06-21T12:59:43Z</time>
      </trkpt>
      <trkpt lat="49.13619" lon="1.93962">
        <ele>67</ele>
        <time>2020-06-21T12:59:49Z</time>
      </trkpt>
      <trkpt lat="49.1362" lon="1.93947">
        <ele>67</ele>
        <time>2020-06-21T12:59:56Z</time>
      </trkpt>
      <trkpt lat="49.13626" lon="1.93936">
        <ele>67</ele>
        <time>2020-06-21T13:00:47Z</time>
      </trkpt>
      <trkpt lat="49.13629" lon="1.9392">
        <ele>68</ele>
        <time>2020-06-21T13:00:53Z</time>
      </trkpt>
      <trkpt lat="49.13637" lon="1.93909">
        <ele>71</ele>
        <time>2020-06-21T13:01:01Z</time>
      </trkpt>
      <trkpt lat="49.13641" lon="1.93894">
        <ele>71</ele>
        <time>2020-06-21T13:01:09Z</time>
      </trkpt>
      <trkpt lat="49.13645" lon="1.9388">
        <ele>71</ele>
        <time>2020-06-21T13:01:16Z</time>
      </trkpt>
      <trkpt lat="49.13647" lon="1.93864">
        <ele>72</ele>
        <time>2020-06-21T13:01:23Z</time>
      </trkpt>
      <trkpt lat="49.13653" lon="1.93849">
        <ele>72</ele>
        <time>2020-06-21T13:01:32Z</time>
      </trkpt>
      <trkpt lat="49.13654" lon="1.93834">
        <ele>72</ele>
        <time>2020-06-21T13:01:40Z</time>
      </trkpt>
      <trkpt lat="49.13657" lon="1.9382">
        <ele>73</ele>
        <time>2020-06-21T13:01:47Z</time>
      </trkpt>
      <trkpt lat="49.1366" lon="1.93804">
        <ele>74</ele>
        <time>2020-06-21T13:01:56Z</time>
      </trkpt>
      <trkpt lat="49.13661" lon="1.93788">
        <ele>75</ele>
        <time>2020-06-21T13:02:03Z</time>
      </trkpt>
      <trkpt lat="49.13663" lon="1.93772">
        <ele>75</ele>
        <time>2020-06-21T13:02:10Z</time>
      </trkpt>
      <trkpt lat="49.13663" lon="1.93758">
        <ele>74</ele>
        <time>2020-06-21T13:02:16Z</time>
      </trkpt>
      <trkpt lat="49.13667" lon="1.93743">
        <ele>74</ele>
        <time>2020-06-21T13:02:23Z</time>
      </trkpt>
      <trkpt lat="49.13671" lon="1.93729">
        <ele>73</ele>
        <time>2020-06-21T13:02:29Z</time>
      </trkpt>
      <trkpt lat="49.13673" lon="1.93713">
        <ele>74</ele>
        <time>2020-06-21T13:02:35Z</time>
      </trkpt>
      <trkpt lat="49.13678" lon="1.937">
        <ele>74</ele>
        <time>2020-06-21T13:02:43Z</time>
      </trkpt>
      <trkpt lat="49.13685" lon="1.93689">
        <ele>75</ele>
        <time>2020-06-21T13:02:53Z</time>
      </trkpt>
      <trkpt lat="49.13693" lon="1.93679">
        <ele>74</ele>
        <time>2020-06-21T13:03:04Z</time>
      </trkpt>
      <trkpt lat="49.13701" lon="1.93671">
        <ele>74</ele>
        <time>2020-06-21T13:03:12Z</time>
      </trkpt>
      <trkpt lat="49.1371" lon="1.93663">
        <ele>77</ele>
        <time>2020-06-21T13:03:19Z</time>
      </trkpt>
      <trkpt lat="49.13719" lon="1.93655">
        <ele>77</ele>
        <time>2020-06-21T13:03:28Z</time>
      </trkpt>
      <trkpt lat="49.13726" lon="1.93644">
        <ele>77</ele>
        <time>2020-06-21T13:03:34Z</time>
      </trkpt>
      <trkpt lat="49.13731" lon="1.93632">
        <ele>78</ele>
        <time>2020-06-21T13:03:40Z</time>
      </trkpt>
      <trkpt lat="49.13734" lon="1.93617">
        <ele>78</ele>
        <time>2020-06-21T13:03:48Z</time>
      </trkpt>
      <trkpt lat="49.13741" lon="1.93603">
        <ele>79</ele>
        <time>2020-06-21T13:03:57Z</time>
      </trkpt>
      <trkpt lat="49.13746" lon="1.9359">
        <ele>80</ele>
        <time>2020-06-21T13:04:04Z</time>
      </trkpt>
      <trkpt lat="49.13751" lon="1.93577">
        <ele>80</ele>
        <time>2020-06-21T13:04:13Z</time>
      </trkpt>
      <trkpt lat="49.13758" lon="1.93565">
        <ele>79</ele>
        <time>2020-06-21T13:04:19Z</time>
      </trkpt>
      <trkpt lat="49.13765" lon="1.93554">
        <ele>79</ele>
        <time>2020-06-21T13:04:28Z</time>
      </trkpt>
      <trkpt lat="49.13773" lon="1.93545">
        <ele>79</ele>
        <time>2020-06-21T13:04:36Z</time>
      </trkpt>
      <trkpt lat="49.13783" lon="1.93538">
        <ele>79</ele>
        <time>2020-06-21T13:04:44Z</time>
      </trkpt>
      <trkpt lat="49.1379" lon="1.93527">
        <ele>79</ele>
        <time>2020-06-21T13:04:51Z</time>
      </trkpt>
      <trkpt lat="49.138" lon="1.9352">
        <ele>79</ele>
        <time>2020-06-21T13:04:59Z</time>
      </trkpt>
      <trkpt lat="49.1381" lon="1.93513">
        <ele>79</ele>
        <time>2020-06-21T13:05:07Z</time>
      </trkpt>
      <trkpt lat="49.13819" lon="1.93501">
        <ele>79</ele>
        <time>2020-06-21T13:05:15Z</time>
      </trkpt>
      <trkpt lat="49.13824" lon="1.93487">
        <ele>82</ele>
        <time>2020-06-21T13:05:22Z</time>
      </trkpt>
      <trkpt lat="49.1383" lon="1.93474">
        <ele>83</ele>
        <time>2020-06-21T13:05:29Z</time>
      </trkpt>
      <trkpt lat="49.13836" lon="1.93461">
        <ele>80</ele>
        <time>2020-06-21T13:05:37Z</time>
      </trkpt>
      <trkpt lat="49.13842" lon="1.93447">
        <ele>81</ele>
        <time>2020-06-21T13:05:45Z</time>
      </trkpt>
      <trkpt lat="49.13849" lon="1.93433">
        <ele>82</ele>
        <time>2020-06-21T13:05:53Z</time>
      </trkpt>
      <trkpt lat="49.13855" lon="1.93418">
        <ele>82</ele>
        <time>2020-06-21T13:06:01Z</time>
      </trkpt>
      <trkpt lat="49.1386" lon="1.93404">
        <ele>85</ele>
        <time>2020-06-21T13:06:08Z</time>
      </trkpt>
      <trkpt lat="49.13864" lon="1.9339">
        <ele>85</ele>
        <time>2020-06-21T13:06:14Z</time>
      </trkpt>
      <trkpt lat="49.13867" lon="1.93376">
        <ele>85</ele>
        <time>2020-06-21T13:06:20Z</time>
      </trkpt>
      <trkpt lat="49.1387" lon="1.93361">
        <ele>85</ele>
        <time>2020-06-21T13:06:27Z</time>
      </trkpt>
      <trkpt lat="49.13873" lon="1.93348">
        <ele>85</ele>
        <time>2020-06-21T13:06:33Z</time>
      </trkpt>
      <trkpt lat="49.13876" lon="1.93333">
        <ele>85</ele>
        <time>2020-06-21T13:06:40Z</time>
      </trkpt>
      <trkpt lat="49.1388" lon="1.93318">
        <ele>85</ele>
        <time>2020-06-21T13:06:48Z</time>
      </trkpt>
      <trkpt lat="49.13882" lon="1.93304">
        <ele>85</ele>
        <time>2020-06-21T13:06:56Z</time>
      </trkpt>
      <trkpt lat="49.13885" lon="1.93289">
        <ele>85</ele>
        <time>2020-06-21T13:07:04Z</time>
      </trkpt>
      <trkpt lat="49.1389" lon="1.93275">
        <ele>85</ele>
        <time>2020-06-21T13:07:12Z</time>
      </trkpt>
      <trkpt lat="49.13896" lon="1.93263">
        <ele>85</ele>
        <time>2020-06-21T13:07:20Z</time>
      </trkpt>
      <trkpt lat="49.13903" lon="1.9325">
        <ele>84</ele>
        <time>2020-06-21T13:07:28Z</time>
      </trkpt>
      <trkpt lat="49.1391" lon="1.93238">
        <ele>84</ele>
        <time>2020-06-21T13:07:35Z</time>
      </trkpt>
      <trkpt lat="49.13916" lon="1.93226">
        <ele>85</ele>
        <time>2020-06-21T13:07:42Z</time>
      </trkpt>
      <trkpt lat="49.13922" lon="1.9321">
        <ele>83</ele>
        <time>2020-06-21T13:07:50Z</time>
      </trkpt>
      <trkpt lat="49.13928" lon="1.93196">
        <ele>84</ele>
        <time>2020-06-21T13:07:58Z</time>
      </trkpt>
      <trkpt lat="49.13935" lon="1.93182">
        <ele>84</ele>
        <time>2020-06-21T13:08:06Z</time>
      </trkpt>
      <trkpt lat="49.13943" lon="1.93171">
        <ele>84</ele>
        <time>2020-06-21T13:08:14Z</time>
      </trkpt>
      <trkpt lat="49.13951" lon="1.93158">
        <ele>86</ele>
        <time>2020-06-21T13:08:22Z</time>
      </trkpt>
      <trkpt lat="49.13959" lon="1.93146">
        <ele>86</ele>
        <time>2020-06-21T13:08:30Z</time>
      </trkpt>
      <trkpt lat="49.13966" lon="1.93133">
        <ele>86</ele>
        <time>2020-06-21T13:08:37Z</time>
      </trkpt>
      <trkpt lat="49.13971" lon="1.93119">
        <ele>86</ele>
        <time>2020-06-21T13:08:45Z</time>
      </trkpt>
      <trkpt lat="49.13977" lon="1.93108">
        <ele>86</ele>
        <time>2020-06-21T13:08:53Z</time>
      </trkpt>
      <trkpt lat="49.13981" lon="1.93095">
        <ele>87</ele>
        <time>2020-06-21T13:09:00Z</time>
      </trkpt>
      <trkpt lat="49.13987" lon="1.93082">
        <ele>88</ele>
        <time>2020-06-21T13:09:07Z</time>
      </trkpt>
      <trkpt lat="49.13993" lon="1.93069">
        <ele>88</ele>
        <time>2020-06-21T13:09:14Z</time>
      </trkpt>
      <trkpt lat="49.13999" lon="1.93054">
        <ele>88</ele>
        <time>2020-06-21T13:09:22Z</time>
      </trkpt>
      <trkpt lat="49.14003" lon="1.93037">
        <ele>88</ele>
        <time>2020-06-21T13:09:30Z</time>
      </trkpt>
      <trkpt lat="49.1401" lon="1.93024">
        <ele>88</ele>
        <time>2020-06-21T13:09:38Z</time>
      </trkpt>
      <trkpt lat="49.14017" lon="1.93012">
        <ele>88</ele>
        <time>2020-06-21T13:09:45Z</time>
      </trkpt>
      <trkpt lat="49.14025" lon="1.93001">
        <ele>88</ele>
        <time>2020-06-21T13:09:53Z</time>
      </trkpt>
      <trkpt lat="49.14032" lon="1.92989">
        <ele>90</ele>
        <time>2020-06-21T13:10:01Z</time>
      </trkpt>
      <trkpt lat="49.14038" lon="1.92978">
        <ele>90</ele>
        <time>2020-06-21T13:10:07Z</time>
      </trkpt>
      <trkpt lat="49.14045" lon="1.92966">
        <ele>90</ele>
        <time>2020-06-21T13:10:14Z</time>
      </trkpt>
      <trkpt lat="49.14053" lon="1.92956">
        <ele>90</ele>
        <time>2020-06-21T13:10:20Z</time>
      </trkpt>
      <trkpt lat="49.1406" lon="1.92945">
        <ele>90</ele>
        <time>2020-06-21T13:10:27Z</time>
      </trkpt>
      <trkpt lat="49.14068" lon="1.92936">
        <ele>90</ele>
        <time>2020-06-21T13:10:34Z</time>
      </trkpt>
      <trkpt lat="49.14077" lon="1.92927">
        <ele>91</ele>
        <time>2020-06-21T13:10:41Z</time>
      </trkpt>
      <trkpt lat="49.14084" lon="1.92916">
        <ele>91</ele>
        <time>2020-06-21T13:10:48Z</time>
      </trkpt>
      <trkpt lat="49.14093" lon="1.92905">
        <ele>91</ele>
        <time>2020-06-21T13:10:56Z</time>
      </trkpt>
      <trkpt lat="49.14101" lon="1.92893">
        <ele>91</ele>
        <time>2020-06-21T13:11:04Z</time>
      </trkpt>
      <trkpt lat="49.14107" lon="1.9288">
        <ele>91</ele>
        <time>2020-06-21T13:11:12Z</time>
      </trkpt>
      <trkpt lat="49.14115" lon="1.92871">
        <ele>92</ele>
        <time>2020-06-21T13:11:19Z</time>
      </trkpt>
      <trkpt lat="49.14122" lon="1.9286">
        <ele>92</ele>
        <time>2020-06-21T13:11:26Z</time>
      </trkpt>
      <trkpt lat="49.14128" lon="1.92849">
        <ele>92</ele>
        <time>2020-06-21T13:11:34Z</time>
      </trkpt>
      <trkpt lat="49.14135" lon="1.92837">
        <ele>92</ele>
        <time>2020-06-21T13:11:41Z</time>
      </trkpt>
      <trkpt lat="49.14144" lon="1.92825">
        <ele>92</ele>
        <time>2020-06-21T13:11:49Z</time>
      </trkpt>
      <trkpt lat="49.1415" lon="1.92813">
        <ele>92</ele>
        <time>2020-06-21T13:11:56Z</time>
      </trkpt>
      <trkpt lat="49.14156" lon="1.92799">
        <ele>93</ele>
        <time>2020-06-21T13:12:03Z</time>
      </trkpt>
      <trkpt lat="49.14161" lon="1.92785">
        <ele>93</ele>
        <time>2020-06-21T13:12:09Z</time>
      </trkpt>
      <trkpt lat="49.14166" lon="1.92773">
        <ele>93</ele>
        <time>2020-06-21T13:12:16Z</time>
      </trkpt>
      <trkpt lat="49.14175" lon="1.92762">
        <ele>93</ele>
        <time>2020-06-21T13:12:24Z</time>
      </trkpt>
      <trkpt lat="49.14182" lon="1.92751">
        <ele>93</ele>
        <time>2020-06-21T13:12:32Z</time>
      </trkpt>
      <trkpt lat="49.14187" lon="1.92737">
        <ele>93</ele>
        <time>2020-06-21T13:12:39Z</time>
      </trkpt>
      <trkpt lat="49.14192" lon="1.92724">
        <ele>93</ele>
        <time>2020-06-21T13:12:45Z</time>
      </trkpt>
      <trkpt lat="49.14198" lon="1.92709">
        <ele>93</ele>
        <time>2020-06-21T13:12:53Z</time>
      </trkpt>
      <trkpt lat="49.14206" lon="1.92698">
        <ele>93</ele>
        <time>2020-06-21T13:13:00Z</time>
      </trkpt>
      <trkpt lat="49.14213" lon="1.92687">
        <ele>93</ele>
        <time>2020-06-21T13:13:08Z</time>
      </trkpt>
      <trkpt lat="49.14219" lon="1.92676">
        <ele>93</ele>
        <time>2020-06-21T13:13:14Z</time>
      </trkpt>
      <trkpt lat="49.14225" lon="1.92662">
        <ele>93</ele>
        <time>2020-06-21T13:13:21Z</time>
      </trkpt>
      <trkpt lat="49.1423" lon="1.9265">
        <ele>93</ele>
        <time>2020-06-21T13:13:28Z</time>
      </trkpt>
      <trkpt lat="49.14237" lon="1.92636">
        <ele>93</ele>
        <time>2020-06-21T13:13:36Z</time>
      </trkpt>
      <trkpt lat="49.14243" lon="1.92625">
        <ele>93</ele>
        <time>2020-06-21T13:13:42Z</time>
      </trkpt>
      <trkpt lat="49.14246" lon="1.92611">
        <ele>93</ele>
        <time>2020-06-21T13:13:48Z</time>
      </trkpt>
      <trkpt lat="49.14253" lon="1.92597">
        <ele>93</ele>
        <time>2020-06-21T13:13:56Z</time>
      </trkpt>
      <trkpt lat="49.1426" lon="1.92584">
        <ele>93</ele>
        <time>2020-06-21T13:14:04Z</time>
      </trkpt>
      <trkpt lat="49.14266" lon="1.9257">
        <ele>93</ele>
        <time>2020-06-21T13:14:12Z</time>
      </trkpt>
      <trkpt lat="49.14273" lon="1.92558">
        <ele>93</ele>
        <time>2020-06-21T13:14:19Z</time>
      </trkpt>
      <trkpt lat="49.14279" lon="1.92547">
        <ele>93</ele>
        <time>2020-06-21T13:14:25Z</time>
      </trkpt>
      <trkpt lat="49.14286" lon="1.92534">
        <ele>93</ele>
        <time>2020-06-21T13:14:33Z</time>
      </trkpt>
      <trkpt lat="49.14291" lon="1.9252">
        <ele>93</ele>
        <time>2020-06-21T13:14:40Z</time>
      </trkpt>
      <trkpt lat="49.14298" lon="1.92508">
        <ele>93</ele>
        <time>2020-06-21T13:14:48Z</time>
      </trkpt>
      <trkpt lat="49.14306" lon="1.92497">
        <ele>93</ele>
        <time>2020-06-21T13:14:55Z</time>
      </trkpt>
      <trkpt lat="49.14313" lon="1.92483">
        <ele>93</ele>
        <time>2020-06-21T13:15:03Z</time>
      </trkpt>
      <trkpt lat="49.14319" lon="1.92471">
        <ele>93</ele>
        <time>2020-06-21T13:15:10Z</time>
      </trkpt>
      <trkpt lat="49.14325" lon="1.92456">
        <ele>93</ele>
        <time>2020-06-21T13:15:18Z</time>
      </trkpt>
      <trkpt lat="49.1433" lon="1.92442">
        <ele>93</ele>
        <time>2020-06-21T13:15:25Z</time>
      </trkpt>
      <trkpt lat="49.14337" lon="1.92428">
        <ele>93</ele>
        <time>2020-06-21T13:15:33Z</time>
      </trkpt>
      <trkpt lat="49.14346" lon="1.92417">
        <ele>93</ele>
        <time>2020-06-21T13:15:41Z</time>
      </trkpt>
      <trkpt lat="49.14352" lon="1.92404">
        <ele>93</ele>
        <time>2020-06-21T13:15:48Z</time>
      </trkpt>
      <trkpt lat="49.14358" lon="1.9239">
        <ele>93</ele>
        <time>2020-06-21T13:15:56Z</time>
      </trkpt>
      <trkpt lat="49.14365" lon="1.92378">
        <ele>93</ele>
        <time>2020-06-21T13:16:04Z</time>
      </trkpt>
      <trkpt lat="49.14372" lon="1.92365">
        <ele>93</ele>
        <time>2020-06-21T13:16:12Z</time>
      </trkpt>
      <trkpt lat="49.1438" lon="1.92352">
        <ele>93</ele>
        <time>2020-06-21T13:16:20Z</time>
      </trkpt>
      <trkpt lat="49.14388" lon="1.92341">
        <ele>93</ele>
        <time>2020-06-21T13:16:28Z</time>
      </trkpt>
      <trkpt lat="49.14396" lon="1.92327">
        <ele>93</ele>
        <time>2020-06-21T13:16:36Z</time>
      </trkpt>
      <trkpt lat="49.14404" lon="1.92316">
        <ele>93</ele>
        <time>2020-06-21T13:16:44Z</time>
      </trkpt>
      <trkpt lat="49.1441" lon="1.92304">
        <ele>93</ele>
        <time>2020-06-21T13:16:51Z</time>
      </trkpt>
      <trkpt lat="49.14417" lon="1.92291">
        <ele>92</ele>
        <time>2020-06-21T13:16:58Z</time>
      </trkpt>
      <trkpt lat="49.14424" lon="1.92277">
        <ele>92</ele>
        <time>2020-06-21T13:17:06Z</time>
      </trkpt>
      <trkpt lat="49.14431" lon="1.92264">
        <ele>92</ele>
        <time>2020-06-21T13:17:14Z</time>
      </trkpt>
      <trkpt lat="49.1444" lon="1.92255">
        <ele>92</ele>
        <time>2020-06-21T13:17:21Z</time>
      </trkpt>
      <trkpt lat="49.14449" lon="1.92246">
        <ele>93</ele>
        <time>2020-06-21T13:17:28Z</time>
      </trkpt>
      <trkpt lat="49.14458" lon="1.92237">
        <ele>93</ele>
        <time>2020-06-21T13:17:35Z</time>
      </trkpt>
      <trkpt lat="49.14466" lon="1.92224">
        <ele>93</ele>
        <time>2020-06-21T13:17:42Z</time>
      </trkpt>
      <trkpt lat="49.14472" lon="1.92212">
        <ele>93</ele>
        <time>2020-06-21T13:17:48Z</time>
      </trkpt>
      <trkpt lat="49.14478" lon="1.922">
        <ele>93</ele>
        <time>2020-06-21T13:17:55Z</time>
      </trkpt>
      <trkpt lat="49.14486" lon="1.92187">
        <ele>93</ele>
        <time>2020-06-21T13:18:03Z</time>
      </trkpt>
      <trkpt lat="49.14494" lon="1.92177">
        <ele>93</ele>
        <time>2020-06-21T13:18:10Z</time>
      </trkpt>
      <trkpt lat="49.145" lon="1.92164">
        <ele>93</ele>
        <time>2020-06-21T13:18:17Z</time>
      </trkpt>
      <trkpt lat="49.14508" lon="1.9215">
        <ele>93</ele>
        <time>2020-06-21T13:18:25Z</time>
      </trkpt>
      <trkpt lat="49.14513" lon="1.92136">
        <ele>92</ele>
        <time>2020-06-21T13:18:33Z</time>
      </trkpt>
      <trkpt lat="49.1452" lon="1.92124">
        <ele>92</ele>
        <time>2020-06-21T13:18:40Z</time>
      </trkpt>
      <trkpt lat="49.14528" lon="1.92111">
        <ele>92</ele>
        <time>2020-06-21T13:18:48Z</time>
      </trkpt>
      <trkpt lat="49.14533" lon="1.92098">
        <ele>92</ele>
        <time>2020-06-21T13:18:54Z</time>
      </trkpt>
      <trkpt lat="49.14539" lon="1.92086">
        <ele>92</ele>
        <time>2020-06-21T13:19:01Z</time>
      </trkpt>
      <trkpt lat="49.14546" lon="1.92075">
        <ele>92</ele>
        <time>2020-06-21T13:19:09Z</time>
      </trkpt>
      <trkpt lat="49.14551" lon="1.9206">
        <ele>92</ele>
        <time>2020-06-21T13:19:17Z</time>
      </trkpt>
      <trkpt lat="49.14556" lon="1.92045">
        <ele>92</ele>
        <time>2020-06-21T13:19:25Z</time>
      </trkpt>
      <trkpt lat="49.1456" lon="1.92031">
        <ele>92</ele>
        <time>2020-06-21T13:19:31Z</time>
      </trkpt>
      <trkpt lat="49.14566" lon="1.92019">
        <ele>92</ele>
        <time>2020-06-21T13:19:39Z</time>
      </trkpt>
      <trkpt lat="49.14571" lon="1.92005">
        <ele>92</ele>
        <time>2020-06-21T13:19:46Z</time>
      </trkpt>
      <trkpt lat="49.14576" lon="1.91991">
        <ele>92</ele>
        <time>2020-06-21T13:19:53Z</time>
      </trkpt>
      <trkpt lat="49.1458" lon="1.91978">
        <ele>92</ele>
        <time>2020-06-21T13:19:59Z</time>
      </trkpt>
      <trkpt lat="49.14587" lon="1.91964">
        <ele>92</ele>
        <time>2020-06-21T13:20:07Z</time>
      </trkpt>
      <trkpt lat="49.14591" lon="1.9195">
        <ele>92</ele>
        <time>2020-06-21T13:20:13Z</time>
      </trkpt>
      <trkpt lat="49.14597" lon="1.91936">
        <ele>92</ele>
        <time>2020-06-21T13:20:19Z</time>
      </trkpt>
      <trkpt lat="49.14601" lon="1.91923">
        <ele>92</ele>
        <time>2020-06-21T13:20:27Z</time>
      </trkpt>
      <trkpt lat="49.14607" lon="1.9191">
        <ele>92</ele>
        <time>2020-06-21T13:20:35Z</time>
      </trkpt>
      <trkpt lat="49.14613" lon="1.91895">
        <ele>92</ele>
        <time>2020-06-21T13:20:43Z</time>
      </trkpt>
      <trkpt lat="49.14618" lon="1.9188">
        <ele>92</ele>
        <time>2020-06-21T13:20:50Z</time>
      </trkpt>
      <trkpt lat="49.14625" lon="1.91866">
        <ele>92</ele>
        <time>2020-06-21T13:20:57Z</time>
      </trkpt>
      <trkpt lat="49.1463" lon="1.91852">
        <ele>92</ele>
        <time>2020-06-21T13:21:05Z</time>
      </trkpt>
      <trkpt lat="49.14637" lon="1.91838">
        <ele>92</ele>
        <time>2020-06-21T13:21:13Z</time>
      </trkpt>
      <trkpt lat="49.14642" lon="1.91823">
        <ele>92</ele>
        <time>2020-06-21T13:21:19Z</time>
      </trkpt>
      <trkpt lat="49.14647" lon="1.91808">
        <ele>92</ele>
        <time>2020-06-21T13:21:27Z</time>
      </trkpt>
      <trkpt lat="49.14653" lon="1.91795">
        <ele>92</ele>
        <time>2020-06-21T13:21:34Z</time>
      </trkpt>
      <trkpt lat="49.14658" lon="1.91782">
        <ele>92</ele>
        <time>2020-06-21T13:21:42Z</time>
      </trkpt>
      <trkpt lat="49.14664" lon="1.91771">
        <ele>92</ele>
        <time>2020-06-21T13:21:50Z</time>
      </trkpt>
      <trkpt lat="49.14672" lon="1.91758">
        <ele>92</ele>
        <time>2020-06-21T13:21:58Z</time>
      </trkpt>
      <trkpt lat="49.14683" lon="1.91767">
        <ele>91</ele>
        <time>2020-06-21T13:27:00Z</time>
      </trkpt>
      <trkpt lat="49.14689" lon="1.91779">
        <ele>91</ele>
        <time>2020-06-21T13:27:06Z</time>
      </trkpt>
      <trkpt lat="49.14697" lon="1.91789">
        <ele>91</ele>
        <time>2020-06-21T13:27:14Z</time>
      </trkpt>
      <trkpt lat="49.14704" lon="1.918">
        <ele>91</ele>
        <time>2020-06-21T13:27:21Z</time>
      </trkpt>
      <trkpt lat="49.14712" lon="1.9181">
        <ele>91</ele>
        <time>2020-06-21T13:27:28Z</time>
      </trkpt>
      <trkpt lat="49.14717" lon="1.91823">
        <ele>91</ele>
        <time>2020-06-21T13:27:34Z</time>
      </trkpt>
      <trkpt lat="49.14722" lon="1.91838">
        <ele>90</ele>
        <time>2020-06-21T13:27:43Z</time>
      </trkpt>
      <trkpt lat="49.14728" lon="1.91851">
        <ele>90</ele>
        <time>2020-06-21T13:27:51Z</time>
      </trkpt>
      <trkpt lat="49.14733" lon="1.91866">
        <ele>90</ele>
        <time>2020-06-21T13:27:59Z</time>
      </trkpt>
      <trkpt lat="49.14738" lon="1.9188">
        <ele>90</ele>
        <time>2020-06-21T13:28:09Z</time>
      </trkpt>
      <trkpt lat="49.14743" lon="1.91892">
        <ele>90</ele>
        <time>2020-06-21T13:28:15Z</time>
      </trkpt>
      <trkpt lat="49.14746" lon="1.91909">
        <ele>89</ele>
        <time>2020-06-21T13:28:21Z</time>
      </trkpt>
      <trkpt lat="49.1475" lon="1.91925">
        <ele>89</ele>
        <time>2020-06-21T13:28:28Z</time>
      </trkpt>
      <trkpt lat="49.14754" lon="1.9194">
        <ele>89</ele>
        <time>2020-06-21T13:28:34Z</time>
      </trkpt>
      <trkpt lat="49.14758" lon="1.91954">
        <ele>88</ele>
        <time>2020-06-21T13:28:40Z</time>
      </trkpt>
      <trkpt lat="49.1476" lon="1.91971">
        <ele>88</ele>
        <time>2020-06-21T13:28:48Z</time>
      </trkpt>
      <trkpt lat="49.14762" lon="1.91985">
        <ele>88</ele>
        <time>2020-06-21T13:28:54Z</time>
      </trkpt>
      <trkpt lat="49.14764" lon="1.91999">
        <ele>88</ele>
        <time>2020-06-21T13:29:00Z</time>
      </trkpt>
      <trkpt lat="49.14768" lon="1.92012">
        <ele>88</ele>
        <time>2020-06-21T13:29:06Z</time>
      </trkpt>
      <trkpt lat="49.14772" lon="1.92027">
        <ele>88</ele>
        <time>2020-06-21T13:29:12Z</time>
      </trkpt>
      <trkpt lat="49.14774" lon="1.92044">
        <ele>88</ele>
        <time>2020-06-21T13:29:19Z</time>
      </trkpt>
      <trkpt lat="49.14765" lon="1.92055">
        <ele>88</ele>
        <time>2020-06-21T13:29:37Z</time>
      </trkpt>
      <trkpt lat="49.14754" lon="1.92059">
        <ele>88</ele>
        <time>2020-06-21T13:29:46Z</time>
      </trkpt>
      <trkpt lat="49.14744" lon="1.92065">
        <ele>87</ele>
        <time>2020-06-21T13:29:56Z</time>
      </trkpt>
      <trkpt lat="49.14737" lon="1.92074">
        <ele>87</ele>
        <time>2020-06-21T13:30:04Z</time>
      </trkpt>
      <trkpt lat="49.14729" lon="1.92086">
        <ele>87</ele>
        <time>2020-06-21T13:30:12Z</time>
      </trkpt>
      <trkpt lat="49.14722" lon="1.92099">
        <ele>87</ele>
        <time>2020-06-21T13:30:18Z</time>
      </trkpt>
      <trkpt lat="49.14721" lon="1.92115">
        <ele>87</ele>
        <time>2020-06-21T13:30:25Z</time>
      </trkpt>
      <trkpt lat="49.14717" lon="1.92129">
        <ele>87</ele>
        <time>2020-06-21T13:30:34Z</time>
      </trkpt>
      <trkpt lat="49.14714" lon="1.92143">
        <ele>87</ele>
        <time>2020-06-21T13:30:40Z</time>
      </trkpt>
      <trkpt lat="49.14709" lon="1.92156">
        <ele>87</ele>
        <time>2020-06-21T13:30:48Z</time>
      </trkpt>
      <trkpt lat="49.14703" lon="1.9217">
        <ele>87</ele>
        <time>2020-06-21T13:30:56Z</time>
      </trkpt>
      <trkpt lat="49.14698" lon="1.92185">
        <ele>87</ele>
        <time>2020-06-21T13:31:04Z</time>
      </trkpt>
      <trkpt lat="49.14697" lon="1.922">
        <ele>87</ele>
        <time>2020-06-21T13:31:15Z</time>
      </trkpt>
      <trkpt lat="49.14699" lon="1.92214">
        <ele>87</ele>
        <time>2020-06-21T13:31:46Z</time>
      </trkpt>
      <trkpt lat="49.14701" lon="1.92234">
        <ele>87</ele>
        <time>2020-06-21T13:32:33Z</time>
      </trkpt>
      <trkpt lat="49.14696" lon="1.92248">
        <ele>87</ele>
        <time>2020-06-21T13:32:42Z</time>
      </trkpt>
      <trkpt lat="49.14694" lon="1.92263">
        <ele>86</ele>
        <time>2020-06-21T13:32:51Z</time>
      </trkpt>
      <trkpt lat="49.14693" lon="1.92278">
        <ele>86</ele>
        <time>2020-06-21T13:32:59Z</time>
      </trkpt>
      <trkpt lat="49.14695" lon="1.92294">
        <ele>86</ele>
        <time>2020-06-21T13:33:07Z</time>
      </trkpt>
      <trkpt lat="49.14691" lon="1.92308">
        <ele>86</ele>
        <time>2020-06-21T13:33:17Z</time>
      </trkpt>
      <trkpt lat="49.1469" lon="1.92323">
        <ele>85</ele>
        <time>2020-06-21T13:33:31Z</time>
      </trkpt>
      <trkpt lat="49.14691" lon="1.92337">
        <ele>85</ele>
        <time>2020-06-21T13:33:46Z</time>
      </trkpt>
      <trkpt lat="49.14687" lon="1.92352">
        <ele>85</ele>
        <time>2020-06-21T13:33:53Z</time>
      </trkpt>
      <trkpt lat="49.14683" lon="1.92365">
        <ele>85</ele>
        <time>2020-06-21T13:33:59Z</time>
      </trkpt>
      <trkpt lat="49.14678" lon="1.9238">
        <ele>85</ele>
        <time>2020-06-21T13:34:07Z</time>
      </trkpt>
      <trkpt lat="49.14678" lon="1.92394">
        <ele>84</ele>
        <time>2020-06-21T13:34:13Z</time>
      </trkpt>
      <trkpt lat="49.14675" lon="1.92408">
        <ele>83</ele>
        <time>2020-06-21T13:34:19Z</time>
      </trkpt>
      <trkpt lat="49.14672" lon="1.92423">
        <ele>83</ele>
        <time>2020-06-21T13:34:26Z</time>
      </trkpt>
      <trkpt lat="49.14671" lon="1.92439">
        <ele>84</ele>
        <time>2020-06-21T13:34:38Z</time>
      </trkpt>
      <trkpt lat="49.14668" lon="1.92453">
        <ele>84</ele>
        <time>2020-06-21T13:34:46Z</time>
      </trkpt>
      <trkpt lat="49.14663" lon="1.92469">
        <ele>83</ele>
        <time>2020-06-21T13:34:54Z</time>
      </trkpt>
      <trkpt lat="49.1466" lon="1.92483">
        <ele>83</ele>
        <time>2020-06-21T13:35:00Z</time>
      </trkpt>
      <trkpt lat="49.14655" lon="1.92498">
        <ele>82</ele>
        <time>2020-06-21T13:35:07Z</time>
      </trkpt>
      <trkpt lat="49.1465" lon="1.92512">
        <ele>81</ele>
        <time>2020-06-21T13:35:13Z</time>
      </trkpt>
      <trkpt lat="49.14646" lon="1.92526">
        <ele>81</ele>
        <time>2020-06-21T13:35:19Z</time>
      </trkpt>
      <trkpt lat="49.14646" lon="1.92543">
        <ele>80</ele>
        <time>2020-06-21T13:35:27Z</time>
      </trkpt>
      <trkpt lat="49.14645" lon="1.92557">
        <ele>80</ele>
        <time>2020-06-21T13:35:37Z</time>
      </trkpt>
      <trkpt lat="49.14641" lon="1.92571">
        <ele>79</ele>
        <time>2020-06-21T13:35:46Z</time>
      </trkpt>
      <trkpt lat="49.14638" lon="1.92588">
        <ele>77</ele>
        <time>2020-06-21T13:35:54Z</time>
      </trkpt>
      <trkpt lat="49.14636" lon="1.92604">
        <ele>77</ele>
        <time>2020-06-21T13:36:02Z</time>
      </trkpt>
      <trkpt lat="49.14636" lon="1.9262">
        <ele>76</ele>
        <time>2020-06-21T13:36:10Z</time>
      </trkpt>
      <trkpt lat="49.14641" lon="1.92636">
        <ele>76</ele>
        <time>2020-06-21T13:37:31Z</time>
      </trkpt>
      <trkpt lat="49.14639" lon="1.9265">
        <ele>76</ele>
        <time>2020-06-21T13:38:10Z</time>
      </trkpt>
      <trkpt lat="49.14636" lon="1.92665">
        <ele>76</ele>
        <time>2020-06-21T13:38:17Z</time>
      </trkpt>
      <trkpt lat="49.14631" lon="1.92677">
        <ele>76</ele>
        <time>2020-06-21T13:38:26Z</time>
      </trkpt>
      <trkpt lat="49.14626" lon="1.92691">
        <ele>75</ele>
        <time>2020-06-21T13:38:37Z</time>
      </trkpt>
      <trkpt lat="49.14622" lon="1.92706">
        <ele>75</ele>
        <time>2020-06-21T13:38:45Z</time>
      </trkpt>
      <trkpt lat="49.14622" lon="1.92723">
        <ele>75</ele>
        <time>2020-06-21T13:38:51Z</time>
      </trkpt>
      <trkpt lat="49.14623" lon="1.92739">
        <ele>76</ele>
        <time>2020-06-21T13:38:57Z</time>
      </trkpt>
      <trkpt lat="49.14622" lon="1.92753">
        <ele>76</ele>
        <time>2020-06-21T13:39:03Z</time>
      </trkpt>
      <trkpt lat="49.1462" lon="1.92768">
        <ele>76</ele>
        <time>2020-06-21T13:39:11Z</time>
      </trkpt>
      <trkpt lat="49.14619" lon="1.92784">
        <ele>76</ele>
        <time>2020-06-21T13:39:19Z</time>
      </trkpt>
      <trkpt lat="49.14618" lon="1.92799">
        <ele>75</ele>
        <time>2020-06-21T13:39:27Z</time>
      </trkpt>
      <trkpt lat="49.14615" lon="1.92814">
        <ele>75</ele>
        <time>2020-06-21T13:39:35Z</time>
      </trkpt>
      <trkpt lat="49.14614" lon="1.9283">
        <ele>75</ele>
        <time>2020-06-21T13:39:44Z</time>
      </trkpt>
      <trkpt lat="49.14614" lon="1.92844">
        <ele>74</ele>
        <time>2020-06-21T13:39:52Z</time>
      </trkpt>
      <trkpt lat="49.14616" lon="1.92859">
        <ele>74</ele>
        <time>2020-06-21T13:40:00Z</time>
      </trkpt>
      <trkpt lat="49.14617" lon="1.92875">
        <ele>73</ele>
        <time>2020-06-21T13:40:08Z</time>
      </trkpt>
      <trkpt lat="49.14623" lon="1.92888">
        <ele>73</ele>
        <time>2020-06-21T13:40:16Z</time>
      </trkpt>
      <trkpt lat="49.14629" lon="1.92903">
        <ele>73</ele>
        <time>2020-06-21T13:40:23Z</time>
      </trkpt>
      <trkpt lat="49.14633" lon="1.92916">
        <ele>74</ele>
        <time>2020-06-21T13:40:27Z</time>
      </trkpt>
      <trkpt lat="49.14637" lon="1.92931">
        <ele>73</ele>
        <time>2020-06-21T13:40:32Z</time>
      </trkpt>
      <trkpt lat="49.14642" lon="1.92948">
        <ele>73</ele>
        <time>2020-06-21T13:40:38Z</time>
      </trkpt>
      <trkpt lat="49.14645" lon="1.92963">
        <ele>73</ele>
        <time>2020-06-21T13:40:44Z</time>
      </trkpt>
      <trkpt lat="49.14646" lon="1.92979">
        <ele>73</ele>
        <time>2020-06-21T13:40:50Z</time>
      </trkpt>
      <trkpt lat="49.14645" lon="1.92994">
        <ele>73</ele>
        <time>2020-06-21T13:40:56Z</time>
      </trkpt>
      <trkpt lat="49.14644" lon="1.9301">
        <ele>73</ele>
        <time>2020-06-21T13:41:03Z</time>
      </trkpt>
      <trkpt lat="49.14643" lon="1.93026">
        <ele>73</ele>
        <time>2020-06-21T13:41:12Z</time>
      </trkpt>
      <trkpt lat="49.14642" lon="1.93042">
        <ele>73</ele>
        <time>2020-06-21T13:41:20Z</time>
      </trkpt>
      <trkpt lat="49.14641" lon="1.93057">
        <ele>73</ele>
        <time>2020-06-21T13:41:27Z</time>
      </trkpt>
      <trkpt lat="49.1464" lon="1.93071">
        <ele>73</ele>
        <time>2020-06-21T13:41:33Z</time>
      </trkpt>
      <trkpt lat="49.14636" lon="1.93085">
        <ele>74</ele>
        <time>2020-06-21T13:41:39Z</time>
      </trkpt>
      <trkpt lat="49.14631" lon="1.93098">
        <ele>73</ele>
        <time>2020-06-21T13:41:45Z</time>
      </trkpt>
      <trkpt lat="49.14625" lon="1.93111">
        <ele>73</ele>
        <time>2020-06-21T13:41:51Z</time>
      </trkpt>
      <trkpt lat="49.1462" lon="1.93123">
        <ele>73</ele>
        <time>2020-06-21T13:41:57Z</time>
      </trkpt>
      <trkpt lat="49.14614" lon="1.93135">
        <ele>72</ele>
        <time>2020-06-21T13:42:03Z</time>
      </trkpt>
      <trkpt lat="49.14608" lon="1.93148">
        <ele>72</ele>
        <time>2020-06-21T13:42:10Z</time>
      </trkpt>
      <trkpt lat="49.14603" lon="1.93161">
        <ele>71</ele>
        <time>2020-06-21T13:42:18Z</time>
      </trkpt>
      <trkpt lat="49.14599" lon="1.93175">
        <ele>71</ele>
        <time>2020-06-21T13:42:27Z</time>
      </trkpt>
      <trkpt lat="49.14592" lon="1.93188">
        <ele>72</ele>
        <time>2020-06-21T13:42:34Z</time>
      </trkpt>
      <trkpt lat="49.14587" lon="1.932">
        <ele>72</ele>
        <time>2020-06-21T13:42:40Z</time>
      </trkpt>
      <trkpt lat="49.14582" lon="1.93213">
        <ele>66</ele>
        <time>2020-06-21T13:42:46Z</time>
      </trkpt>
      <trkpt lat="49.14579" lon="1.93227">
        <ele>66</ele>
        <time>2020-06-21T13:42:52Z</time>
      </trkpt>
      <trkpt lat="49.14572" lon="1.9324">
        <ele>67</ele>
        <time>2020-06-21T13:42:59Z</time>
      </trkpt>
      <trkpt lat="49.14566" lon="1.93255">
        <ele>67</ele>
        <time>2020-06-21T13:43:07Z</time>
      </trkpt>
      <trkpt lat="49.1456" lon="1.93267">
        <ele>66</ele>
        <time>2020-06-21T13:43:13Z</time>
      </trkpt>
      <trkpt lat="49.14556" lon="1.93283">
        <ele>66</ele>
        <time>2020-06-21T13:43:20Z</time>
      </trkpt>
      <trkpt lat="49.14552" lon="1.93297">
        <ele>66</ele>
        <time>2020-06-21T13:43:26Z</time>
      </trkpt>
      <trkpt lat="49.14548" lon="1.93314">
        <ele>66</ele>
        <time>2020-06-21T13:43:34Z</time>
      </trkpt>
      <trkpt lat="49.14545" lon="1.93327">
        <ele>66</ele>
        <time>2020-06-21T13:43:40Z</time>
      </trkpt>
      <trkpt lat="49.1454" lon="1.9334">
        <ele>67</ele>
        <time>2020-06-21T13:43:49Z</time>
      </trkpt>
      <trkpt lat="49.14541" lon="1.93355">
        <ele>67</ele>
        <time>2020-06-21T13:43:58Z</time>
      </trkpt>
      <trkpt lat="49.14541" lon="1.93372">
        <ele>68</ele>
        <time>2020-06-21T13:44:06Z</time>
      </trkpt>
      <trkpt lat="49.14536" lon="1.93385">
        <ele>67</ele>
        <time>2020-06-21T13:44:13Z</time>
      </trkpt>
      <trkpt lat="49.14532" lon="1.93399">
        <ele>67</ele>
        <time>2020-06-21T13:44:21Z</time>
      </trkpt>
      <trkpt lat="49.14527" lon="1.93413">
        <ele>66</ele>
        <time>2020-06-21T13:44:29Z</time>
      </trkpt>
      <trkpt lat="49.14528" lon="1.93429">
        <ele>67</ele>
        <time>2020-06-21T13:44:38Z</time>
      </trkpt>
      <trkpt lat="49.14529" lon="1.93445">
        <ele>67</ele>
        <time>2020-06-21T13:44:45Z</time>
      </trkpt>
      <trkpt lat="49.14527" lon="1.9346">
        <ele>67</ele>
        <time>2020-06-21T13:44:58Z</time>
      </trkpt>
      <trkpt lat="49.14526" lon="1.93475">
        <ele>67</ele>
        <time>2020-06-21T13:45:06Z</time>
      </trkpt>
      <trkpt lat="49.1453" lon="1.93492">
        <ele>67</ele>
        <time>2020-06-21T13:45:12Z</time>
      </trkpt>
      <trkpt lat="49.14536" lon="1.93506">
        <ele>65</ele>
        <time>2020-06-21T13:45:18Z</time>
      </trkpt>
      <trkpt lat="49.14537" lon="1.93521">
        <ele>64</ele>
        <time>2020-06-21T13:45:30Z</time>
      </trkpt>
      <trkpt lat="49.14538" lon="1.93534">
        <ele>64</ele>
        <time>2020-06-21T13:45:39Z</time>
      </trkpt>
      <trkpt lat="49.14543" lon="1.93546">
        <ele>64</ele>
        <time>2020-06-21T13:45:56Z</time>
      </trkpt>
      <trkpt lat="49.14553" lon="1.93551">
        <ele>64</ele>
        <time>2020-06-21T13:46:07Z</time>
      </trkpt>
      <trkpt lat="49.14562" lon="1.93556">
        <ele>64</ele>
        <time>2020-06-21T13:46:15Z</time>
      </trkpt>
      <trkpt lat="49.14572" lon="1.93561">
        <ele>64</ele>
        <time>2020-06-21T13:46:22Z</time>
      </trkpt>
      <trkpt lat="49.14581" lon="1.93564">
        <ele>64</ele>
        <time>2020-06-21T13:46:28Z</time>
      </trkpt>
      <trkpt lat="49.14594" lon="1.93571">
        <ele>67</ele>
        <time>2020-06-21T13:46:33Z</time>
      </trkpt>
      <trkpt lat="49.14607" lon="1.93576">
        <ele>68</ele>
        <time>2020-06-21T13:46:37Z</time>
      </trkpt>
      <trkpt lat="49.14616" lon="1.93582">
        <ele>69</ele>
        <time>2020-06-21T13:46:41Z</time>
      </trkpt>
      <trkpt lat="49.14628" lon="1.9359">
        <ele>63</ele>
        <time>2020-06-21T13:46:47Z</time>
      </trkpt>
      <trkpt lat="49.14635" lon="1.93598">
        <ele>63</ele>
        <time>2020-06-21T13:46:53Z</time>
      </trkpt>
      <trkpt lat="49.14644" lon="1.93605">
        <ele>63</ele>
        <time>2020-06-21T13:47:05Z</time>
      </trkpt>
      <trkpt lat="49.14653" lon="1.93606">
        <ele>63</ele>
        <time>2020-06-21T13:47:12Z</time>
      </trkpt>
      <trkpt lat="49.14664" lon="1.93604">
        <ele>64</ele>
        <time>2020-06-21T13:47:18Z</time>
      </trkpt>
      <trkpt lat="49.14674" lon="1.93602">
        <ele>65</ele>
        <time>2020-06-21T13:47:24Z</time>
      </trkpt>
      <trkpt lat="49.14683" lon="1.936">
        <ele>65</ele>
        <time>2020-06-21T13:47:32Z</time>
      </trkpt>
      <trkpt lat="49.14694" lon="1.93597">
        <ele>65</ele>
        <time>2020-06-21T13:47:40Z</time>
      </trkpt>
      <trkpt lat="49.14704" lon="1.93593">
        <ele>66</ele>
        <time>2020-06-21T13:47:48Z</time>
      </trkpt>
      <trkpt lat="49.14714" lon="1.9359">
        <ele>66</ele>
        <time>2020-06-21T13:47:54Z</time>
      </trkpt>
      <trkpt lat="49.14724" lon="1.93587">
        <ele>67</ele>
        <time>2020-06-21T13:48:01Z</time>
      </trkpt>
      <trkpt lat="49.14734" lon="1.93582">
        <ele>73</ele>
        <time>2020-06-21T13:48:08Z</time>
      </trkpt>
      <trkpt lat="49.14744" lon="1.93577">
        <ele>73</ele>
        <time>2020-06-21T13:48:17Z</time>
      </trkpt>
      <trkpt lat="49.14753" lon="1.93573">
        <ele>73</ele>
        <time>2020-06-21T13:48:27Z</time>
      </trkpt>
      <trkpt lat="49.14763" lon="1.9357">
        <ele>74</ele>
        <time>2020-06-21T13:48:36Z</time>
      </trkpt>
      <trkpt lat="49.14772" lon="1.93565">
        <ele>75</ele>
        <time>2020-06-21T13:48:43Z</time>
      </trkpt>
      <trkpt lat="49.14781" lon="1.93561">
        <ele>75</ele>
        <time>2020-06-21T13:48:51Z</time>
      </trkpt>
      <trkpt lat="49.14791" lon="1.93555">
        <ele>75</ele>
        <time>2020-06-21T13:49:00Z</time>
      </trkpt>
      <trkpt lat="49.14801" lon="1.9355">
        <ele>76</ele>
        <time>2020-06-21T13:49:09Z</time>
      </trkpt>
      <trkpt lat="49.14812" lon="1.93548">
        <ele>76</ele>
        <time>2020-06-21T13:49:15Z</time>
      </trkpt>
      <trkpt lat="49.14822" lon="1.93545">
        <ele>76</ele>
        <time>2020-06-21T13:49:21Z</time>
      </trkpt>
      <trkpt lat="49.14831" lon="1.93542">
        <ele>76</ele>
        <time>2020-06-21T13:49:27Z</time>
      </trkpt>
      <trkpt lat="49.14843" lon="1.9354">
        <ele>76</ele>
        <time>2020-06-21T13:49:33Z</time>
      </trkpt>
      <trkpt lat="49.14854" lon="1.9354">
        <ele>77</ele>
        <time>2020-06-21T13:49:41Z</time>
      </trkpt>
      <trkpt lat="49.14864" lon="1.93541">
        <ele>77</ele>
        <time>2020-06-21T13:49:47Z</time>
      </trkpt>
      <trkpt lat="49.14876" lon="1.93546">
        <ele>77</ele>
        <time>2020-06-21T13:49:53Z</time>
      </trkpt>
      <trkpt lat="49.14886" lon="1.93551">
        <ele>76</ele>
        <time>2020-06-21T13:50:00Z</time>
      </trkpt>
      <trkpt lat="49.14896" lon="1.93556">
        <ele>76</ele>
        <time>2020-06-21T13:50:06Z</time>
      </trkpt>
      <trkpt lat="49.14905" lon="1.93561">
        <ele>76</ele>
        <time>2020-06-21T13:50:12Z</time>
      </trkpt>
      <trkpt lat="49.14915" lon="1.93567">
        <ele>75</ele>
        <time>2020-06-21T13:50:18Z</time>
      </trkpt>
      <trkpt lat="49.14924" lon="1.93573">
        <ele>76</ele>
        <time>2020-06-21T13:50:24Z</time>
      </trkpt>
      <trkpt lat="49.14935" lon="1.93576">
        <ele>77</ele>
        <time>2020-06-21T13:50:32Z</time>
      </trkpt>
      <trkpt lat="49.14944" lon="1.9358">
        <ele>78</ele>
        <time>2020-06-21T13:50:40Z</time>
      </trkpt>
      <trkpt lat="49.14953" lon="1.93584">
        <ele>74</ele>
        <time>2020-06-21T13:50:46Z</time>
      </trkpt>
      <trkpt lat="49.14964" lon="1.9359">
        <ele>74</ele>
        <time>2020-06-21T13:50:52Z</time>
      </trkpt>
      <trkpt lat="49.14975" lon="1.93598">
        <ele>75</ele>
        <time>2020-06-21T13:50:58Z</time>
      </trkpt>
      <trkpt lat="49.14984" lon="1.93604">
        <ele>75</ele>
        <time>2020-06-21T13:51:05Z</time>
      </trkpt>
      <trkpt lat="49.14995" lon="1.93609">
        <ele>75</ele>
        <time>2020-06-21T13:51:14Z</time>
      </trkpt>
      <trkpt lat="49.15004" lon="1.93615">
        <ele>79</ele>
        <time>2020-06-21T13:51:21Z</time>
      </trkpt>
      <trkpt lat="49.15012" lon="1.93624">
        <ele>78</ele>
        <time>2020-06-21T13:51:30Z</time>
      </trkpt>
      <trkpt lat="49.15021" lon="1.93634">
        <ele>77</ele>
        <time>2020-06-21T13:51:39Z</time>
      </trkpt>
      <trkpt lat="49.15028" lon="1.93643">
        <ele>77</ele>
        <time>2020-06-21T13:51:47Z</time>
      </trkpt>
      <trkpt lat="49.15034" lon="1.93656">
        <ele>76</ele>
        <time>2020-06-21T13:51:56Z</time>
      </trkpt>
      <trkpt lat="49.15039" lon="1.9367">
        <ele>70</ele>
        <time>2020-06-21T13:52:06Z</time>
      </trkpt>
      <trkpt lat="49.15045" lon="1.93684">
        <ele>70</ele>
        <time>2020-06-21T13:52:14Z</time>
      </trkpt>
      <trkpt lat="49.15051" lon="1.93695">
        <ele>70</ele>
        <time>2020-06-21T13:52:20Z</time>
      </trkpt>
      <trkpt lat="49.15057" lon="1.93708">
        <ele>70</ele>
        <time>2020-06-21T13:52:27Z</time>
      </trkpt>
      <trkpt lat="49.15065" lon="1.93717">
        <ele>70</ele>
        <time>2020-06-21T13:52:34Z</time>
      </trkpt>
      <trkpt lat="49.15073" lon="1.9373">
        <ele>69</ele>
        <time>2020-06-21T13:52:42Z</time>
      </trkpt>
      <trkpt lat="49.15079" lon="1.93742">
        <ele>69</ele>
        <time>2020-06-21T13:52:49Z</time>
      </trkpt>
      <trkpt lat="49.15084" lon="1.93756">
        <ele>69</ele>
        <time>2020-06-21T13:52:55Z</time>
      </trkpt>
      <trkpt lat="49.15088" lon="1.93771">
        <ele>69</ele>
        <time>2020-06-21T13:53:01Z</time>
      </trkpt>
      <trkpt lat="49.15093" lon="1.93786">
        <ele>69</ele>
        <time>2020-06-21T13:53:07Z</time>
      </trkpt>
      <trkpt lat="49.151" lon="1.93801">
        <ele>68</ele>
        <time>2020-06-21T13:53:13Z</time>
      </trkpt>
      <trkpt lat="49.15106" lon="1.93817">
        <ele>68</ele>
        <time>2020-06-21T13:53:19Z</time>
      </trkpt>
      <trkpt lat="49.1511" lon="1.93832">
        <ele>67</ele>
        <time>2020-06-21T13:53:25Z</time>
      </trkpt>
      <trkpt lat="49.15115" lon="1.93847">
        <ele>64</ele>
        <time>2020-06-21T13:53:31Z</time>
      </trkpt>
      <trkpt lat="49.15119" lon="1.93863">
        <ele>64</ele>
        <time>2020-06-21T13:53:39Z</time>
      </trkpt>
      <trkpt lat="49.15122" lon="1.93878">
        <ele>64</ele>
        <time>2020-06-21T13:53:46Z</time>
      </trkpt>
      <trkpt lat="49.15125" lon="1.93893">
        <ele>64</ele>
        <time>2020-06-21T13:53:53Z</time>
      </trkpt>
      <trkpt lat="49.15126" lon="1.93909">
        <ele>63</ele>
        <time>2020-06-21T13:54:02Z</time>
      </trkpt>
      <trkpt lat="49.1513" lon="1.93922">
        <ele>62</ele>
        <time>2020-06-21T13:54:10Z</time>
      </trkpt>
      <trkpt lat="49.15138" lon="1.93932">
        <ele>62</ele>
        <time>2020-06-21T13:54:17Z</time>
      </trkpt>
      <trkpt lat="49.15147" lon="1.9394">
        <ele>62</ele>
        <time>2020-06-21T13:54:22Z</time>
      </trkpt>
      <trkpt lat="49.15156" lon="1.93947">
        <ele>62</ele>
        <time>2020-06-21T13:54:26Z</time>
      </trkpt>
      <trkpt lat="49.15167" lon="1.93955">
        <ele>62</ele>
        <time>2020-06-21T13:54:32Z</time>
      </trkpt>
      <trkpt lat="49.15176" lon="1.93959">
        <ele>62</ele>
        <time>2020-06-21T13:54:36Z</time>
      </trkpt>
      <trkpt lat="49.15186" lon="1.9396">
        <ele>62</ele>
        <time>2020-06-21T13:54:40Z</time>
      </trkpt>
      <trkpt lat="49.15197" lon="1.93959">
        <ele>62</ele>
        <time>2020-06-21T13:54:45Z</time>
      </trkpt>
      <trkpt lat="49.15207" lon="1.93955">
        <ele>62</ele>
        <time>2020-06-21T13:54:51Z</time>
      </trkpt>
      <trkpt lat="49.15216" lon="1.93941">
        <ele>63</ele>
        <time>2020-06-21T13:55:05Z</time>
      </trkpt>
      <trkpt lat="49.15223" lon="1.93931">
        <ele>63</ele>
        <time>2020-06-21T13:55:14Z</time>
      </trkpt>
      <trkpt lat="49.15233" lon="1.93923">
        <ele>63</ele>
        <time>2020-06-21T13:55:21Z</time>
      </trkpt>
      <trkpt lat="49.15242" lon="1.93917">
        <ele>64</ele>
        <time>2020-06-21T13:55:31Z</time>
      </trkpt>
      <trkpt lat="49.15252" lon="1.93912">
        <ele>64</ele>
        <time>2020-06-21T13:55:43Z</time>
      </trkpt>
      <trkpt lat="49.1526" lon="1.93906">
        <ele>64</ele>
        <time>2020-06-21T13:55:58Z</time>
      </trkpt>
      <trkpt lat="49.1526" lon="1.93889">
        <ele>64</ele>
        <time>2020-06-21T13:57:35Z</time>
      </trkpt>
      <trkpt lat="49.15266" lon="1.93875">
        <ele>64</ele>
        <time>2020-06-21T13:57:43Z</time>
      </trkpt>
      <trkpt lat="49.15269" lon="1.93861">
        <ele>64</ele>
        <time>2020-06-21T13:57:51Z</time>
      </trkpt>
      <trkpt lat="49.15269" lon="1.93845">
        <ele>65</ele>
        <time>2020-06-21T13:58:01Z</time>
      </trkpt>
      <trkpt lat="49.1528" lon="1.93856">
        <ele>64</ele>
        <time>2020-06-21T13:58:20Z</time>
      </trkpt>
      <trkpt lat="49.15285" lon="1.9387">
        <ele>63</ele>
        <time>2020-06-21T13:58:27Z</time>
      </trkpt>
      <trkpt lat="49.1529" lon="1.93883">
        <ele>63</ele>
        <time>2020-06-21T13:58:34Z</time>
      </trkpt>
      <trkpt lat="49.15295" lon="1.93898">
        <ele>63</ele>
        <time>2020-06-21T13:58:45Z</time>
      </trkpt>
      <trkpt lat="49.153" lon="1.9391">
        <ele>62</ele>
        <time>2020-06-21T13:58:53Z</time>
      </trkpt>
      <trkpt lat="49.15305" lon="1.93922">
        <ele>62</ele>
        <time>2020-06-21T13:59:01Z</time>
      </trkpt>
      <trkpt lat="49.15311" lon="1.93933">
        <ele>62</ele>
        <time>2020-06-21T13:59:10Z</time>
      </trkpt>
      <trkpt lat="49.15315" lon="1.93948">
        <ele>62</ele>
        <time>2020-06-21T13:59:18Z</time>
      </trkpt>
      <trkpt lat="49.15316" lon="1.93962">
        <ele>62</ele>
        <time>2020-06-21T13:59:28Z</time>
      </trkpt>
      <trkpt lat="49.15327" lon="1.93961">
        <ele>62</ele>
        <time>2020-06-21T13:59:41Z</time>
      </trkpt>
      <trkpt lat="49.15337" lon="1.93958">
        <ele>61</ele>
        <time>2020-06-21T13:59:48Z</time>
      </trkpt>
      <trkpt lat="49.15348" lon="1.93954">
        <ele>61</ele>
        <time>2020-06-21T13:59:54Z</time>
      </trkpt>
      <trkpt lat="49.15358" lon="1.9395">
        <ele>61</ele>
        <time>2020-06-21T14:00:00Z</time>
      </trkpt>
      <trkpt lat="49.15367" lon="1.93946">
        <ele>61</ele>
        <time>2020-06-21T14:00:06Z</time>
      </trkpt>
      <trkpt lat="49.15377" lon="1.93941">
        <ele>60</ele>
        <time>2020-06-21T14:00:12Z</time>
      </trkpt>
      <trkpt lat="49.15386" lon="1.93935">
        <ele>60</ele>
        <time>2020-06-21T14:00:18Z</time>
      </trkpt>
      <trkpt lat="49.15396" lon="1.93929">
        <ele>60</ele>
        <time>2020-06-21T14:00:25Z</time>
      </trkpt>
      <trkpt lat="49.15405" lon="1.93923">
        <ele>59</ele>
        <time>2020-06-21T14:00:32Z</time>
      </trkpt>
      <trkpt lat="49.15415" lon="1.93915">
        <ele>58</ele>
        <time>2020-06-21T14:00:40Z</time>
      </trkpt>
      <trkpt lat="49.15425" lon="1.93908">
        <ele>59</ele>
        <time>2020-06-21T14:00:48Z</time>
      </trkpt>
      <trkpt lat="49.15434" lon="1.93901">
        <ele>59</ele>
        <time>2020-06-21T14:00:55Z</time>
      </trkpt>
      <trkpt lat="49.15443" lon="1.93896">
        <ele>59</ele>
        <time>2020-06-21T14:01:01Z</time>
      </trkpt>
      <trkpt lat="49.15453" lon="1.9389">
        <ele>60</ele>
        <time>2020-06-21T14:01:09Z</time>
      </trkpt>
      <trkpt lat="49.1546" lon="1.93879">
        <ele>60</ele>
        <time>2020-06-21T14:01:22Z</time>
      </trkpt>
      <trkpt lat="49.15468" lon="1.9387">
        <ele>60</ele>
        <time>2020-06-21T14:01:28Z</time>
      </trkpt>
      <trkpt lat="49.15478" lon="1.93861">
        <ele>60</ele>
        <time>2020-06-21T14:01:34Z</time>
      </trkpt>
      <trkpt lat="49.15488" lon="1.93853">
        <ele>60</ele>
        <time>2020-06-21T14:01:42Z</time>
      </trkpt>
      <trkpt lat="49.15497" lon="1.93846">
        <ele>60</ele>
        <time>2020-06-21T14:01:48Z</time>
      </trkpt>
      <trkpt lat="49.15506" lon="1.9384">
        <ele>62</ele>
        <time>2020-06-21T14:01:56Z</time>
      </trkpt>
      <trkpt lat="49.15515" lon="1.93831">
        <ele>61</ele>
        <time>2020-06-21T14:02:05Z</time>
      </trkpt>
      <trkpt lat="49.15523" lon="1.93821">
        <ele>61</ele>
        <time>2020-06-21T14:02:13Z</time>
      </trkpt>
      <trkpt lat="49.15531" lon="1.93812">
        <ele>61</ele>
        <time>2020-06-21T14:02:19Z</time>
      </trkpt>
      <trkpt lat="49.15542" lon="1.93803">
        <ele>61</ele>
        <time>2020-06-21T14:02:25Z</time>
      </trkpt>
      <trkpt lat="49.15552" lon="1.93797">
        <ele>62</ele>
        <time>2020-06-21T14:02:31Z</time>
      </trkpt>
      <trkpt lat="49.15562" lon="1.9379">
        <ele>62</ele>
        <time>2020-06-21T14:02:38Z</time>
      </trkpt>
      <trkpt lat="49.15571" lon="1.9378">
        <ele>61</ele>
        <time>2020-06-21T14:02:46Z</time>
      </trkpt>
      <trkpt lat="49.15579" lon="1.93773">
        <ele>61</ele>
        <time>2020-06-21T14:02:52Z</time>
      </trkpt>
      <trkpt lat="49.1559" lon="1.93768">
        <ele>63</ele>
        <time>2020-06-21T14:03:00Z</time>
      </trkpt>
      <trkpt lat="49.15599" lon="1.93763">
        <ele>63</ele>
        <time>2020-06-21T14:03:08Z</time>
      </trkpt>
      <trkpt lat="49.1561" lon="1.93757">
        <ele>63</ele>
        <time>2020-06-21T14:03:17Z</time>
      </trkpt>
      <trkpt lat="49.1562" lon="1.93751">
        <ele>63</ele>
        <time>2020-06-21T14:03:24Z</time>
      </trkpt>
      <trkpt lat="49.15629" lon="1.93742">
        <ele>61</ele>
        <time>2020-06-21T14:03:31Z</time>
      </trkpt>
      <trkpt lat="49.15637" lon="1.93734">
        <ele>61</ele>
        <time>2020-06-21T14:03:37Z</time>
      </trkpt>
      <trkpt lat="49.15646" lon="1.93723">
        <ele>61</ele>
        <time>2020-06-21T14:03:45Z</time>
      </trkpt>
      <trkpt lat="49.15654" lon="1.93712">
        <ele>61</ele>
        <time>2020-06-21T14:03:52Z</time>
      </trkpt>
      <trkpt lat="49.15663" lon="1.93704">
        <ele>61</ele>
        <time>2020-06-21T14:04:00Z</time>
      </trkpt>
      <trkpt lat="49.15673" lon="1.93696">
        <ele>62</ele>
        <time>2020-06-21T14:04:08Z</time>
      </trkpt>
      <trkpt lat="49.15682" lon="1.93688">
        <ele>61</ele>
        <time>2020-06-21T14:04:16Z</time>
      </trkpt>
      <trkpt lat="49.15691" lon="1.93682">
        <ele>61</ele>
        <time>2020-06-21T14:04:24Z</time>
      </trkpt>
      <trkpt lat="49.157" lon="1.93678">
        <ele>61</ele>
        <time>2020-06-21T14:04:30Z</time>
      </trkpt>
      <trkpt lat="49.1571" lon="1.93674">
        <ele>61</ele>
        <time>2020-06-21T14:04:37Z</time>
      </trkpt>
      <trkpt lat="49.15718" lon="1.93667">
        <ele>61</ele>
        <time>2020-06-21T14:04:44Z</time>
      </trkpt>
      <trkpt lat="49.15728" lon="1.9366">
        <ele>62</ele>
        <time>2020-06-21T14:04:51Z</time>
      </trkpt>
      <trkpt lat="49.15739" lon="1.93655">
        <ele>61</ele>
        <time>2020-06-21T14:05:02Z</time>
      </trkpt>
      <trkpt lat="49.15749" lon="1.93654">
        <ele>61</ele>
        <time>2020-06-21T14:05:08Z</time>
      </trkpt>
      <trkpt lat="49.15759" lon="1.93651">
        <ele>62</ele>
        <time>2020-06-21T14:05:15Z</time>
      </trkpt>
      <trkpt lat="49.15773" lon="1.93662">
        <ele>62</ele>
        <time>2020-06-21T14:05:18Z</time>
      </trkpt>
      <trkpt lat="49.15779" lon="1.9365">
        <ele>62</ele>
        <time>2020-06-21T14:05:25Z</time>
      </trkpt>
      <trkpt lat="49.15783" lon="1.93637">
        <ele>62</ele>
        <time>2020-06-21T14:05:36Z</time>
      </trkpt>
      <trkpt lat="49.15793" lon="1.93634">
        <ele>62</ele>
        <time>2020-06-21T14:05:46Z</time>
      </trkpt>
      <trkpt lat="49.15804" lon="1.93634">
        <ele>62</ele>
        <time>2020-06-21T14:05:53Z</time>
      </trkpt>
      <trkpt lat="49.15817" lon="1.93632">
        <ele>62</ele>
        <time>2020-06-21T14:05:59Z</time>
      </trkpt>
      <trkpt lat="49.15828" lon="1.93628">
        <ele>62</ele>
        <time>2020-06-21T14:06:05Z</time>
      </trkpt>
      <trkpt lat="49.15841" lon="1.93626">
        <ele>62</ele>
        <time>2020-06-21T14:06:11Z</time>
      </trkpt>
      <trkpt lat="49.15852" lon="1.93624">
        <ele>62</ele>
        <time>2020-06-21T14:06:17Z</time>
      </trkpt>
      <trkpt lat="49.15862" lon="1.93625">
        <ele>62</ele>
        <time>2020-06-21T14:06:26Z</time>
      </trkpt>
      <trkpt lat="49.15872" lon="1.93627">
        <ele>62</ele>
        <time>2020-06-21T14:06:35Z</time>
      </trkpt>
      <trkpt lat="49.15875" lon="1.93646">
        <ele>62</ele>
        <time>2020-06-21T14:06:49Z</time>
      </trkpt>
      <trkpt lat="49.15882" lon="1.93659">
        <ele>62</ele>
        <time>2020-06-21T14:06:58Z</time>
      </trkpt>
      <trkpt lat="49.15888" lon="1.93671">
        <ele>63</ele>
        <time>2020-06-21T14:07:26Z</time>
      </trkpt>
      <trkpt lat="49.15897" lon="1.93676">
        <ele>63</ele>
        <time>2020-06-21T14:07:38Z</time>
      </trkpt>
      <trkpt lat="49.15907" lon="1.93679">
        <ele>63</ele>
        <time>2020-06-21T14:07:47Z</time>
      </trkpt>
      <trkpt lat="49.15918" lon="1.9368">
        <ele>64</ele>
        <time>2020-06-21T14:07:53Z</time>
      </trkpt>
      <trkpt lat="49.15929" lon="1.93683">
        <ele>64</ele>
        <time>2020-06-21T14:08:00Z</time>
      </trkpt>
      <trkpt lat="49.15939" lon="1.93687">
        <ele>64</ele>
        <time>2020-06-21T14:08:08Z</time>
      </trkpt>
      <trkpt lat="49.15949" lon="1.9369">
        <ele>64</ele>
        <time>2020-06-21T14:08:15Z</time>
      </trkpt>
      <trkpt lat="49.1596" lon="1.9369">
        <ele>64</ele>
        <time>2020-06-21T14:08:21Z</time>
      </trkpt>
      <trkpt lat="49.15971" lon="1.9369">
        <ele>64</ele>
        <time>2020-06-21T14:08:27Z</time>
      </trkpt>
      <trkpt lat="49.15981" lon="1.9369">
        <ele>64</ele>
        <time>2020-06-21T14:08:33Z</time>
      </trkpt>
      <trkpt lat="49.15992" lon="1.93692">
        <ele>64</ele>
        <time>2020-06-21T14:08:44Z</time>
      </trkpt>
      <trkpt lat="49.16003" lon="1.93693">
        <ele>64</ele>
        <time>2020-06-21T14:08:50Z</time>
      </trkpt>
      <trkpt lat="49.16015" lon="1.93686">
        <ele>64</ele>
        <time>2020-06-21T14:09:06Z</time>
      </trkpt>
      <trkpt lat="49.16022" lon="1.93675">
        <ele>64</ele>
        <time>2020-06-21T14:09:15Z</time>
      </trkpt>
      <trkpt lat="49.16025" lon="1.93659">
        <ele>65</ele>
        <time>2020-06-21T14:09:23Z</time>
      </trkpt>
      <trkpt lat="49.16029" lon="1.93644">
        <ele>65</ele>
        <time>2020-06-21T14:09:30Z</time>
      </trkpt>
      <trkpt lat="49.1604" lon="1.93634">
        <ele>65</ele>
        <time>2020-06-21T14:09:50Z</time>
      </trkpt>
      <trkpt lat="49.16049" lon="1.93629">
        <ele>65</ele>
        <time>2020-06-21T14:09:56Z</time>
      </trkpt>
      <trkpt lat="49.16058" lon="1.93624">
        <ele>65</ele>
        <time>2020-06-21T14:10:02Z</time>
      </trkpt>
      <trkpt lat="49.16067" lon="1.93618">
        <ele>66</ele>
        <time>2020-06-21T14:10:10Z</time>
      </trkpt>
      <trkpt lat="49.16075" lon="1.93624">
        <ele>66</ele>
        <time>2020-06-21T14:10:22Z</time>
      </trkpt>
      <trkpt lat="49.16085" lon="1.93628">
        <ele>67</ele>
        <time>2020-06-21T14:10:31Z</time>
      </trkpt>
      <trkpt lat="49.16095" lon="1.93629">
        <ele>67</ele>
        <time>2020-06-21T14:10:40Z</time>
      </trkpt>
      <trkpt lat="49.16104" lon="1.93632">
        <ele>67</ele>
        <time>2020-06-21T14:10:47Z</time>
      </trkpt>
      <trkpt lat="49.16113" lon="1.93638">
        <ele>66</ele>
        <time>2020-06-21T14:10:53Z</time>
      </trkpt>
      <trkpt lat="49.16122" lon="1.93644">
        <ele>66</ele>
        <time>2020-06-21T14:10:59Z</time>
      </trkpt>
      <trkpt lat="49.16131" lon="1.93649">
        <ele>66</ele>
        <time>2020-06-21T14:11:09Z</time>
      </trkpt>
      <trkpt lat="49.16143" lon="1.93653">
        <ele>66</ele>
        <time>2020-06-21T14:11:18Z</time>
      </trkpt>
      <trkpt lat="49.16154" lon="1.93659">
        <ele>66</ele>
        <time>2020-06-21T14:11:24Z</time>
      </trkpt>
      <trkpt lat="49.16165" lon="1.93662">
        <ele>65</ele>
        <time>2020-06-21T14:11:30Z</time>
      </trkpt>
      <trkpt lat="49.16175" lon="1.93664">
        <ele>66</ele>
        <time>2020-06-21T14:11:37Z</time>
      </trkpt>
      <trkpt lat="49.16185" lon="1.93662">
        <ele>66</ele>
        <time>2020-06-21T14:11:48Z</time>
      </trkpt>
    </trkseg>
  </trk>
</gpx>